<?xml version="1.0" encoding="UTF-8" standalone="no" ?>
<gpx xmlns="http://www.topografix.com/GPX/1/1" xmlns:xsi="http://www.w3.org/2001/XMLSchema-instance" xsi:schemaLocation="http://www.topografix.com/GPX/1/1 http://www.topografix.com/GPX/1/1/gpx.xsd" version="1.1" creator="VisuGPX - https://www.visugpx.com">
  <metadata>
    <name>lomener - port louis à velo</name>
    <desc><![CDATA[petite ballade du 29/08/2011 autour de lorient]]></desc>
  </metadata>
  <trk>
    <name><![CDATA[lomener - port louis à velo_1]]></name>
    <trkseg>
      <trkpt lat="47.70257" lon="-3.43104">
        <ele>4</ele>
        <time>2011-08-29T10:36:50Z</time>
      </trkpt>
      <trkpt lat="47.70253" lon="-3.43152">
        <ele>5</ele>
        <time>2011-08-29T10:37:01Z</time>
      </trkpt>
      <trkpt lat="47.70255" lon="-3.43161">
        <ele>5</ele>
        <time>2011-08-29T10:37:09Z</time>
      </trkpt>
      <trkpt lat="47.70261" lon="-3.43167">
        <ele>5</ele>
        <time>2011-08-29T10:37:12Z</time>
      </trkpt>
      <trkpt lat="47.70305" lon="-3.43191">
        <ele>6</ele>
        <time>2011-08-29T10:37:24Z</time>
      </trkpt>
      <trkpt lat="47.70326" lon="-3.43204">
        <ele>6</ele>
        <time>2011-08-29T10:37:30Z</time>
      </trkpt>
      <trkpt lat="47.7034" lon="-3.43212">
        <ele>6</ele>
        <time>2011-08-29T10:37:34Z</time>
      </trkpt>
      <trkpt lat="47.70404" lon="-3.43234">
        <ele>6</ele>
        <time>2011-08-29T10:37:48Z</time>
      </trkpt>
      <trkpt lat="47.7043" lon="-3.43247">
        <ele>5</ele>
        <time>2011-08-29T10:37:54Z</time>
      </trkpt>
      <trkpt lat="47.70434" lon="-3.43248">
        <ele>5</ele>
        <time>2011-08-29T10:37:55Z</time>
      </trkpt>
      <trkpt lat="47.70448" lon="-3.43248">
        <ele>5</ele>
        <time>2011-08-29T10:37:59Z</time>
      </trkpt>
      <trkpt lat="47.70454" lon="-3.43242">
        <ele>5</ele>
        <time>2011-08-29T10:38:01Z</time>
      </trkpt>
      <trkpt lat="47.70464" lon="-3.43195">
        <ele>5</ele>
        <time>2011-08-29T10:38:09Z</time>
      </trkpt>
      <trkpt lat="47.70486" lon="-3.43046">
        <ele>4</ele>
        <time>2011-08-29T10:38:32Z</time>
      </trkpt>
      <trkpt lat="47.70517" lon="-3.42803">
        <ele>4</ele>
        <time>2011-08-29T10:39:09Z</time>
      </trkpt>
      <trkpt lat="47.70535" lon="-3.42686">
        <ele>5</ele>
        <time>2011-08-29T10:39:27Z</time>
      </trkpt>
      <trkpt lat="47.70545" lon="-3.42629">
        <ele>4</ele>
        <time>2011-08-29T10:39:36Z</time>
      </trkpt>
      <trkpt lat="47.70552" lon="-3.42599">
        <ele>4</ele>
        <time>2011-08-29T10:39:41Z</time>
      </trkpt>
      <trkpt lat="47.70568" lon="-3.42508">
        <ele>5</ele>
        <time>2011-08-29T10:39:56Z</time>
      </trkpt>
      <trkpt lat="47.70573" lon="-3.42491">
        <ele>5</ele>
        <time>2011-08-29T10:39:59Z</time>
      </trkpt>
      <trkpt lat="47.70581" lon="-3.42469">
        <ele>5</ele>
        <time>2011-08-29T10:40:03Z</time>
      </trkpt>
      <trkpt lat="47.70591" lon="-3.42448">
        <ele>5</ele>
        <time>2011-08-29T10:40:07Z</time>
      </trkpt>
      <trkpt lat="47.70621" lon="-3.42401">
        <ele>6</ele>
        <time>2011-08-29T10:40:17Z</time>
      </trkpt>
      <trkpt lat="47.70626" lon="-3.42383">
        <ele>6</ele>
        <time>2011-08-29T10:40:20Z</time>
      </trkpt>
      <trkpt lat="47.70634" lon="-3.42368">
        <ele>6</ele>
        <time>2011-08-29T10:40:23Z</time>
      </trkpt>
      <trkpt lat="47.70652" lon="-3.42287">
        <ele>7</ele>
        <time>2011-08-29T10:40:37Z</time>
      </trkpt>
      <trkpt lat="47.70658" lon="-3.42244">
        <ele>8</ele>
        <time>2011-08-29T10:40:44Z</time>
      </trkpt>
      <trkpt lat="47.70676" lon="-3.42157">
        <ele>10</ele>
        <time>2011-08-29T10:40:58Z</time>
      </trkpt>
      <trkpt lat="47.70687" lon="-3.42123">
        <ele>11</ele>
        <time>2011-08-29T10:41:04Z</time>
      </trkpt>
      <trkpt lat="47.70692" lon="-3.42113">
        <ele>11</ele>
        <time>2011-08-29T10:41:06Z</time>
      </trkpt>
      <trkpt lat="47.707" lon="-3.42106">
        <ele>11</ele>
        <time>2011-08-29T10:41:08Z</time>
      </trkpt>
      <trkpt lat="47.70708" lon="-3.42101">
        <ele>11</ele>
        <time>2011-08-29T10:41:10Z</time>
      </trkpt>
      <trkpt lat="47.70716" lon="-3.421">
        <ele>11</ele>
        <time>2011-08-29T10:41:12Z</time>
      </trkpt>
      <trkpt lat="47.70784" lon="-3.42097">
        <ele>12</ele>
        <time>2011-08-29T10:41:28Z</time>
      </trkpt>
      <trkpt lat="47.70809" lon="-3.42093">
        <ele>12</ele>
        <time>2011-08-29T10:41:34Z</time>
      </trkpt>
      <trkpt lat="47.70817" lon="-3.42087">
        <ele>13</ele>
        <time>2011-08-29T10:41:36Z</time>
      </trkpt>
      <trkpt lat="47.7083" lon="-3.42069">
        <ele>12</ele>
        <time>2011-08-29T10:41:40Z</time>
      </trkpt>
      <trkpt lat="47.70838" lon="-3.42063">
        <ele>13</ele>
        <time>2011-08-29T10:41:42Z</time>
      </trkpt>
      <trkpt lat="47.70846" lon="-3.42062">
        <ele>13</ele>
        <time>2011-08-29T10:41:44Z</time>
      </trkpt>
      <trkpt lat="47.70854" lon="-3.42066">
        <ele>13</ele>
        <time>2011-08-29T10:41:46Z</time>
      </trkpt>
      <trkpt lat="47.70864" lon="-3.42078">
        <ele>13</ele>
        <time>2011-08-29T10:41:49Z</time>
      </trkpt>
      <trkpt lat="47.70873" lon="-3.42084">
        <ele>13</ele>
        <time>2011-08-29T10:41:51Z</time>
      </trkpt>
      <trkpt lat="47.70902" lon="-3.42091">
        <ele>13</ele>
        <time>2011-08-29T10:41:57Z</time>
      </trkpt>
      <trkpt lat="47.70925" lon="-3.42089">
        <ele>13</ele>
        <time>2011-08-29T10:42:02Z</time>
      </trkpt>
      <trkpt lat="47.70956" lon="-3.4208">
        <ele>13</ele>
        <time>2011-08-29T10:42:09Z</time>
      </trkpt>
      <trkpt lat="47.70989" lon="-3.42065">
        <ele>13</ele>
        <time>2011-08-29T10:42:17Z</time>
      </trkpt>
      <trkpt lat="47.7102" lon="-3.42049">
        <ele>14</ele>
        <time>2011-08-29T10:42:25Z</time>
      </trkpt>
      <trkpt lat="47.71099" lon="-3.42016">
        <ele>15</ele>
        <time>2011-08-29T10:42:44Z</time>
      </trkpt>
      <trkpt lat="47.71116" lon="-3.42012">
        <ele>16</ele>
        <time>2011-08-29T10:42:48Z</time>
      </trkpt>
      <trkpt lat="47.71133" lon="-3.42013">
        <ele>16</ele>
        <time>2011-08-29T10:42:52Z</time>
      </trkpt>
      <trkpt lat="47.71174" lon="-3.42024">
        <ele>16</ele>
        <time>2011-08-29T10:43:01Z</time>
      </trkpt>
      <trkpt lat="47.71228" lon="-3.42043">
        <ele>17</ele>
        <time>2011-08-29T10:43:13Z</time>
      </trkpt>
      <trkpt lat="47.71254" lon="-3.42055">
        <ele>16</ele>
        <time>2011-08-29T10:43:20Z</time>
      </trkpt>
      <trkpt lat="47.7133" lon="-3.42086">
        <ele>15</ele>
        <time>2011-08-29T10:43:38Z</time>
      </trkpt>
      <trkpt lat="47.71359" lon="-3.42103">
        <ele>15</ele>
        <time>2011-08-29T10:43:45Z</time>
      </trkpt>
      <trkpt lat="47.71382" lon="-3.42125">
        <ele>14</ele>
        <time>2011-08-29T10:43:51Z</time>
      </trkpt>
      <trkpt lat="47.71405" lon="-3.42155">
        <ele>14</ele>
        <time>2011-08-29T10:43:58Z</time>
      </trkpt>
      <trkpt lat="47.7145" lon="-3.42228">
        <ele>13</ele>
        <time>2011-08-29T10:44:12Z</time>
      </trkpt>
      <trkpt lat="47.71483" lon="-3.42285">
        <ele>13</ele>
        <time>2011-08-29T10:44:23Z</time>
      </trkpt>
      <trkpt lat="47.71498" lon="-3.42308">
        <ele>14</ele>
        <time>2011-08-29T10:44:28Z</time>
      </trkpt>
      <trkpt lat="47.71515" lon="-3.42327">
        <ele>14</ele>
        <time>2011-08-29T10:44:33Z</time>
      </trkpt>
      <trkpt lat="47.71534" lon="-3.4234">
        <ele>15</ele>
        <time>2011-08-29T10:44:38Z</time>
      </trkpt>
      <trkpt lat="47.71555" lon="-3.42349">
        <ele>15</ele>
        <time>2011-08-29T10:44:43Z</time>
      </trkpt>
      <trkpt lat="47.71581" lon="-3.42351">
        <ele>15</ele>
        <time>2011-08-29T10:44:49Z</time>
      </trkpt>
      <trkpt lat="47.71656" lon="-3.42345">
        <ele>18</ele>
        <time>2011-08-29T10:45:07Z</time>
      </trkpt>
      <trkpt lat="47.7169" lon="-3.42337">
        <ele>19</ele>
        <time>2011-08-29T10:45:16Z</time>
      </trkpt>
      <trkpt lat="47.71727" lon="-3.42311">
        <ele>19</ele>
        <time>2011-08-29T10:45:26Z</time>
      </trkpt>
      <trkpt lat="47.7175" lon="-3.42292">
        <ele>21</ele>
        <time>2011-08-29T10:45:32Z</time>
      </trkpt>
      <trkpt lat="47.71773" lon="-3.42262">
        <ele>21</ele>
        <time>2011-08-29T10:45:39Z</time>
      </trkpt>
      <trkpt lat="47.7179" lon="-3.42246">
        <ele>22</ele>
        <time>2011-08-29T10:45:44Z</time>
      </trkpt>
      <trkpt lat="47.718" lon="-3.42235">
        <ele>22</ele>
        <time>2011-08-29T10:45:47Z</time>
      </trkpt>
      <trkpt lat="47.71826" lon="-3.42195">
        <ele>23</ele>
        <time>2011-08-29T10:45:56Z</time>
      </trkpt>
      <trkpt lat="47.71838" lon="-3.42173">
        <ele>23</ele>
        <time>2011-08-29T10:46:00Z</time>
      </trkpt>
      <trkpt lat="47.71844" lon="-3.42143">
        <ele>22</ele>
        <time>2011-08-29T10:46:05Z</time>
      </trkpt>
      <trkpt lat="47.71861" lon="-3.42026">
        <ele>21</ele>
        <time>2011-08-29T10:46:24Z</time>
      </trkpt>
      <trkpt lat="47.71877" lon="-3.41854">
        <ele>20</ele>
        <time>2011-08-29T10:46:50Z</time>
      </trkpt>
      <trkpt lat="47.71883" lon="-3.41808">
        <ele>19</ele>
        <time>2011-08-29T10:46:58Z</time>
      </trkpt>
      <trkpt lat="47.71904" lon="-3.41679">
        <ele>20</ele>
        <time>2011-08-29T10:47:18Z</time>
      </trkpt>
      <trkpt lat="47.71914" lon="-3.41627">
        <ele>19</ele>
        <time>2011-08-29T10:47:26Z</time>
      </trkpt>
      <trkpt lat="47.71925" lon="-3.41589">
        <ele>19</ele>
        <time>2011-08-29T10:47:32Z</time>
      </trkpt>
      <trkpt lat="47.71934" lon="-3.41565">
        <ele>20</ele>
        <time>2011-08-29T10:47:36Z</time>
      </trkpt>
      <trkpt lat="47.7194" lon="-3.41555">
        <ele>21</ele>
        <time>2011-08-29T10:47:38Z</time>
      </trkpt>
      <trkpt lat="47.71947" lon="-3.41547">
        <ele>21</ele>
        <time>2011-08-29T10:47:40Z</time>
      </trkpt>
      <trkpt lat="47.71961" lon="-3.41539">
        <ele>22</ele>
        <time>2011-08-29T10:47:43Z</time>
      </trkpt>
      <trkpt lat="47.71974" lon="-3.41535">
        <ele>22</ele>
        <time>2011-08-29T10:47:46Z</time>
      </trkpt>
      <trkpt lat="47.71992" lon="-3.41534">
        <ele>22</ele>
        <time>2011-08-29T10:47:50Z</time>
      </trkpt>
      <trkpt lat="47.72015" lon="-3.41538">
        <ele>23</ele>
        <time>2011-08-29T10:47:55Z</time>
      </trkpt>
      <trkpt lat="47.72033" lon="-3.41546">
        <ele>23</ele>
        <time>2011-08-29T10:47:59Z</time>
      </trkpt>
      <trkpt lat="47.72065" lon="-3.41564">
        <ele>23</ele>
        <time>2011-08-29T10:48:06Z</time>
      </trkpt>
      <trkpt lat="47.72078" lon="-3.41568">
        <ele>23</ele>
        <time>2011-08-29T10:48:09Z</time>
      </trkpt>
      <trkpt lat="47.7209" lon="-3.41566">
        <ele>24</ele>
        <time>2011-08-29T10:48:12Z</time>
      </trkpt>
      <trkpt lat="47.72098" lon="-3.41563">
        <ele>24</ele>
        <time>2011-08-29T10:48:14Z</time>
      </trkpt>
      <trkpt lat="47.72109" lon="-3.41552">
        <ele>25</ele>
        <time>2011-08-29T10:48:17Z</time>
      </trkpt>
      <trkpt lat="47.72115" lon="-3.41543">
        <ele>25</ele>
        <time>2011-08-29T10:48:19Z</time>
      </trkpt>
      <trkpt lat="47.72122" lon="-3.41521">
        <ele>25</ele>
        <time>2011-08-29T10:48:23Z</time>
      </trkpt>
      <trkpt lat="47.7213" lon="-3.41462">
        <ele>27</ele>
        <time>2011-08-29T10:48:33Z</time>
      </trkpt>
      <trkpt lat="47.72161" lon="-3.41314">
        <ele>32</ele>
        <time>2011-08-29T10:48:59Z</time>
      </trkpt>
      <trkpt lat="47.72171" lon="-3.41287">
        <ele>32</ele>
        <time>2011-08-29T10:49:04Z</time>
      </trkpt>
      <trkpt lat="47.72187" lon="-3.4125">
        <ele>32</ele>
        <time>2011-08-29T10:49:11Z</time>
      </trkpt>
      <trkpt lat="47.72203" lon="-3.41192">
        <ele>33</ele>
        <time>2011-08-29T10:49:21Z</time>
      </trkpt>
      <trkpt lat="47.72227" lon="-3.41123">
        <ele>34</ele>
        <time>2011-08-29T10:49:33Z</time>
      </trkpt>
      <trkpt lat="47.72253" lon="-3.41062">
        <ele>35</ele>
        <time>2011-08-29T10:49:44Z</time>
      </trkpt>
      <trkpt lat="47.72273" lon="-3.40997">
        <ele>34</ele>
        <time>2011-08-29T10:49:55Z</time>
      </trkpt>
      <trkpt lat="47.72279" lon="-3.40969">
        <ele>34</ele>
        <time>2011-08-29T10:50:00Z</time>
      </trkpt>
      <trkpt lat="47.72283" lon="-3.4096">
        <ele>34</ele>
        <time>2011-08-29T10:50:11Z</time>
      </trkpt>
      <trkpt lat="47.72288" lon="-3.40957">
        <ele>34</ele>
        <time>2011-08-29T10:50:13Z</time>
      </trkpt>
      <trkpt lat="47.72292" lon="-3.40959">
        <ele>34</ele>
        <time>2011-08-29T10:50:14Z</time>
      </trkpt>
      <trkpt lat="47.72317" lon="-3.40974">
        <ele>34</ele>
        <time>2011-08-29T10:50:20Z</time>
      </trkpt>
      <trkpt lat="47.72406" lon="-3.41051">
        <ele>35</ele>
        <time>2011-08-29T10:50:42Z</time>
      </trkpt>
      <trkpt lat="47.72442" lon="-3.41086">
        <ele>36</ele>
        <time>2011-08-29T10:50:52Z</time>
      </trkpt>
      <trkpt lat="47.72455" lon="-3.41097">
        <ele>35</ele>
        <time>2011-08-29T10:50:56Z</time>
      </trkpt>
      <trkpt lat="47.7247" lon="-3.41099">
        <ele>35</ele>
        <time>2011-08-29T10:50:59Z</time>
      </trkpt>
      <trkpt lat="47.7248" lon="-3.41098">
        <ele>35</ele>
        <time>2011-08-29T10:51:01Z</time>
      </trkpt>
      <trkpt lat="47.72502" lon="-3.41093">
        <ele>35</ele>
        <time>2011-08-29T10:51:05Z</time>
      </trkpt>
      <trkpt lat="47.7252" lon="-3.41086">
        <ele>35</ele>
        <time>2011-08-29T10:51:09Z</time>
      </trkpt>
      <trkpt lat="47.72524" lon="-3.41082">
        <ele>36</ele>
        <time>2011-08-29T10:51:10Z</time>
      </trkpt>
      <trkpt lat="47.72537" lon="-3.41061">
        <ele>36</ele>
        <time>2011-08-29T10:51:14Z</time>
      </trkpt>
      <trkpt lat="47.72542" lon="-3.41058">
        <ele>36</ele>
        <time>2011-08-29T10:51:15Z</time>
      </trkpt>
      <trkpt lat="47.72557" lon="-3.41054">
        <ele>36</ele>
        <time>2011-08-29T10:51:18Z</time>
      </trkpt>
      <trkpt lat="47.7258" lon="-3.41042">
        <ele>36</ele>
        <time>2011-08-29T10:51:23Z</time>
      </trkpt>
      <trkpt lat="47.72602" lon="-3.41033">
        <ele>38</ele>
        <time>2011-08-29T10:51:28Z</time>
      </trkpt>
      <trkpt lat="47.72618" lon="-3.4102">
        <ele>38</ele>
        <time>2011-08-29T10:51:32Z</time>
      </trkpt>
      <trkpt lat="47.72629" lon="-3.41007">
        <ele>39</ele>
        <time>2011-08-29T10:51:35Z</time>
      </trkpt>
      <trkpt lat="47.72638" lon="-3.4099">
        <ele>39</ele>
        <time>2011-08-29T10:51:38Z</time>
      </trkpt>
      <trkpt lat="47.72646" lon="-3.40966">
        <ele>39</ele>
        <time>2011-08-29T10:51:42Z</time>
      </trkpt>
      <trkpt lat="47.7266" lon="-3.40884">
        <ele>37</ele>
        <time>2011-08-29T10:51:54Z</time>
      </trkpt>
      <trkpt lat="47.72668" lon="-3.40856">
        <ele>37</ele>
        <time>2011-08-29T10:51:58Z</time>
      </trkpt>
      <trkpt lat="47.72676" lon="-3.40817">
        <ele>35</ele>
        <time>2011-08-29T10:52:03Z</time>
      </trkpt>
      <trkpt lat="47.72681" lon="-3.408">
        <ele>35</ele>
        <time>2011-08-29T10:52:05Z</time>
      </trkpt>
      <trkpt lat="47.72687" lon="-3.40784">
        <ele>35</ele>
        <time>2011-08-29T10:52:07Z</time>
      </trkpt>
      <trkpt lat="47.72707" lon="-3.40759">
        <ele>34</ele>
        <time>2011-08-29T10:52:11Z</time>
      </trkpt>
      <trkpt lat="47.72726" lon="-3.40752">
        <ele>34</ele>
        <time>2011-08-29T10:52:14Z</time>
      </trkpt>
      <trkpt lat="47.7274" lon="-3.40755">
        <ele>33</ele>
        <time>2011-08-29T10:52:16Z</time>
      </trkpt>
      <trkpt lat="47.72754" lon="-3.40765">
        <ele>32</ele>
        <time>2011-08-29T10:52:18Z</time>
      </trkpt>
      <trkpt lat="47.7278" lon="-3.40791">
        <ele>32</ele>
        <time>2011-08-29T10:52:22Z</time>
      </trkpt>
      <trkpt lat="47.72795" lon="-3.40796">
        <ele>32</ele>
        <time>2011-08-29T10:52:24Z</time>
      </trkpt>
      <trkpt lat="47.72811" lon="-3.40796">
        <ele>31</ele>
        <time>2011-08-29T10:52:26Z</time>
      </trkpt>
      <trkpt lat="47.72818" lon="-3.40795">
        <ele>31</ele>
        <time>2011-08-29T10:52:27Z</time>
      </trkpt>
      <trkpt lat="47.72833" lon="-3.40787">
        <ele>31</ele>
        <time>2011-08-29T10:52:29Z</time>
      </trkpt>
      <trkpt lat="47.72857" lon="-3.40783">
        <ele>28</ele>
        <time>2011-08-29T10:52:32Z</time>
      </trkpt>
      <trkpt lat="47.72881" lon="-3.40786">
        <ele>28</ele>
        <time>2011-08-29T10:52:35Z</time>
      </trkpt>
      <trkpt lat="47.72931" lon="-3.40795">
        <ele>27</ele>
        <time>2011-08-29T10:52:44Z</time>
      </trkpt>
      <trkpt lat="47.7296" lon="-3.40797">
        <ele>27</ele>
        <time>2011-08-29T10:52:50Z</time>
      </trkpt>
      <trkpt lat="47.72979" lon="-3.40796">
        <ele>27</ele>
        <time>2011-08-29T10:52:54Z</time>
      </trkpt>
      <trkpt lat="47.72994" lon="-3.40789">
        <ele>27</ele>
        <time>2011-08-29T10:52:57Z</time>
      </trkpt>
      <trkpt lat="47.73007" lon="-3.40778">
        <ele>26</ele>
        <time>2011-08-29T10:53:00Z</time>
      </trkpt>
      <trkpt lat="47.73019" lon="-3.40762">
        <ele>26</ele>
        <time>2011-08-29T10:53:03Z</time>
      </trkpt>
      <trkpt lat="47.73028" lon="-3.40744">
        <ele>25</ele>
        <time>2011-08-29T10:53:06Z</time>
      </trkpt>
      <trkpt lat="47.73064" lon="-3.40667">
        <ele>24</ele>
        <time>2011-08-29T10:53:18Z</time>
      </trkpt>
      <trkpt lat="47.73073" lon="-3.40652">
        <ele>23</ele>
        <time>2011-08-29T10:53:21Z</time>
      </trkpt>
      <trkpt lat="47.73081" lon="-3.40646">
        <ele>23</ele>
        <time>2011-08-29T10:53:23Z</time>
      </trkpt>
      <trkpt lat="47.73093" lon="-3.40639">
        <ele>23</ele>
        <time>2011-08-29T10:53:26Z</time>
      </trkpt>
      <trkpt lat="47.73103" lon="-3.40639">
        <ele>23</ele>
        <time>2011-08-29T10:53:28Z</time>
      </trkpt>
      <trkpt lat="47.73157" lon="-3.40649">
        <ele>24</ele>
        <time>2011-08-29T10:53:39Z</time>
      </trkpt>
      <trkpt lat="47.73172" lon="-3.40648">
        <ele>24</ele>
        <time>2011-08-29T10:53:42Z</time>
      </trkpt>
      <trkpt lat="47.73178" lon="-3.40647">
        <ele>24</ele>
        <time>2011-08-29T10:53:43Z</time>
      </trkpt>
      <trkpt lat="47.73187" lon="-3.40641">
        <ele>23</ele>
        <time>2011-08-29T10:53:45Z</time>
      </trkpt>
      <trkpt lat="47.73206" lon="-3.40624">
        <ele>23</ele>
        <time>2011-08-29T10:53:49Z</time>
      </trkpt>
      <trkpt lat="47.7322" lon="-3.40591">
        <ele>22</ele>
        <time>2011-08-29T10:53:53Z</time>
      </trkpt>
      <trkpt lat="47.73225" lon="-3.4055">
        <ele>19</ele>
        <time>2011-08-29T10:53:57Z</time>
      </trkpt>
      <trkpt lat="47.73226" lon="-3.40528">
        <ele>19</ele>
        <time>2011-08-29T10:53:59Z</time>
      </trkpt>
      <trkpt lat="47.73218" lon="-3.40483">
        <ele>17</ele>
        <time>2011-08-29T10:54:03Z</time>
      </trkpt>
      <trkpt lat="47.73216" lon="-3.40459">
        <ele>17</ele>
        <time>2011-08-29T10:54:05Z</time>
      </trkpt>
      <trkpt lat="47.7322" lon="-3.40436">
        <ele>16</ele>
        <time>2011-08-29T10:54:07Z</time>
      </trkpt>
      <trkpt lat="47.73225" lon="-3.40426">
        <ele>16</ele>
        <time>2011-08-29T10:54:08Z</time>
      </trkpt>
      <trkpt lat="47.73231" lon="-3.40418">
        <ele>15</ele>
        <time>2011-08-29T10:54:09Z</time>
      </trkpt>
      <trkpt lat="47.73245" lon="-3.40407">
        <ele>14</ele>
        <time>2011-08-29T10:54:11Z</time>
      </trkpt>
      <trkpt lat="47.7326" lon="-3.404">
        <ele>12</ele>
        <time>2011-08-29T10:54:13Z</time>
      </trkpt>
      <trkpt lat="47.73291" lon="-3.40394">
        <ele>11</ele>
        <time>2011-08-29T10:54:17Z</time>
      </trkpt>
      <trkpt lat="47.73304" lon="-3.40379">
        <ele>10</ele>
        <time>2011-08-29T10:54:19Z</time>
      </trkpt>
      <trkpt lat="47.73317" lon="-3.40316">
        <ele>7</ele>
        <time>2011-08-29T10:54:24Z</time>
      </trkpt>
      <trkpt lat="47.73323" lon="-3.40291">
        <ele>8</ele>
        <time>2011-08-29T10:54:26Z</time>
      </trkpt>
      <trkpt lat="47.73344" lon="-3.40253">
        <ele>7</ele>
        <time>2011-08-29T10:54:30Z</time>
      </trkpt>
      <trkpt lat="47.7335" lon="-3.40248">
        <ele>9</ele>
        <time>2011-08-29T10:54:31Z</time>
      </trkpt>
      <trkpt lat="47.73356" lon="-3.40245">
        <ele>10</ele>
        <time>2011-08-29T10:54:32Z</time>
      </trkpt>
      <trkpt lat="47.73368" lon="-3.40247">
        <ele>11</ele>
        <time>2011-08-29T10:54:34Z</time>
      </trkpt>
      <trkpt lat="47.73381" lon="-3.40257">
        <ele>9</ele>
        <time>2011-08-29T10:54:37Z</time>
      </trkpt>
      <trkpt lat="47.73412" lon="-3.40291">
        <ele>9</ele>
        <time>2011-08-29T10:54:45Z</time>
      </trkpt>
      <trkpt lat="47.73441" lon="-3.40317">
        <ele>8</ele>
        <time>2011-08-29T10:54:52Z</time>
      </trkpt>
      <trkpt lat="47.73445" lon="-3.40319">
        <ele>8</ele>
        <time>2011-08-29T10:54:53Z</time>
      </trkpt>
      <trkpt lat="47.73461" lon="-3.40323">
        <ele>8</ele>
        <time>2011-08-29T10:54:56Z</time>
      </trkpt>
      <trkpt lat="47.73471" lon="-3.40322">
        <ele>8</ele>
        <time>2011-08-29T10:54:58Z</time>
      </trkpt>
      <trkpt lat="47.73482" lon="-3.40319">
        <ele>7</ele>
        <time>2011-08-29T10:55:00Z</time>
      </trkpt>
      <trkpt lat="47.73487" lon="-3.40317">
        <ele>7</ele>
        <time>2011-08-29T10:55:01Z</time>
      </trkpt>
      <trkpt lat="47.73506" lon="-3.40302">
        <ele>7</ele>
        <time>2011-08-29T10:55:05Z</time>
      </trkpt>
      <trkpt lat="47.73548" lon="-3.40259">
        <ele>7</ele>
        <time>2011-08-29T10:55:15Z</time>
      </trkpt>
      <trkpt lat="47.7357" lon="-3.40239">
        <ele>10</ele>
        <time>2011-08-29T10:55:20Z</time>
      </trkpt>
      <trkpt lat="47.73593" lon="-3.4022">
        <ele>11</ele>
        <time>2011-08-29T10:55:27Z</time>
      </trkpt>
      <trkpt lat="47.73648" lon="-3.4018">
        <ele>13</ele>
        <time>2011-08-29T10:55:45Z</time>
      </trkpt>
      <trkpt lat="47.7366" lon="-3.40169">
        <ele>14</ele>
        <time>2011-08-29T10:55:49Z</time>
      </trkpt>
      <trkpt lat="47.73688" lon="-3.40141">
        <ele>16</ele>
        <time>2011-08-29T10:55:59Z</time>
      </trkpt>
      <trkpt lat="47.73733" lon="-3.40084">
        <ele>17</ele>
        <time>2011-08-29T10:56:16Z</time>
      </trkpt>
      <trkpt lat="47.73746" lon="-3.40064">
        <ele>19</ele>
        <time>2011-08-29T10:56:21Z</time>
      </trkpt>
      <trkpt lat="47.73754" lon="-3.4004">
        <ele>20</ele>
        <time>2011-08-29T10:56:26Z</time>
      </trkpt>
      <trkpt lat="47.73758" lon="-3.4001">
        <ele>20</ele>
        <time>2011-08-29T10:56:31Z</time>
      </trkpt>
      <trkpt lat="47.73758" lon="-3.39985">
        <ele>20</ele>
        <time>2011-08-29T10:56:35Z</time>
      </trkpt>
      <trkpt lat="47.73755" lon="-3.39973">
        <ele>20</ele>
        <time>2011-08-29T10:56:37Z</time>
      </trkpt>
      <trkpt lat="47.73749" lon="-3.39956">
        <ele>21</ele>
        <time>2011-08-29T10:56:40Z</time>
      </trkpt>
      <trkpt lat="47.73719" lon="-3.39897">
        <ele>20</ele>
        <time>2011-08-29T10:56:50Z</time>
      </trkpt>
      <trkpt lat="47.73703" lon="-3.39858">
        <ele>20</ele>
        <time>2011-08-29T10:56:56Z</time>
      </trkpt>
      <trkpt lat="47.73697" lon="-3.39836">
        <ele>20</ele>
        <time>2011-08-29T10:56:59Z</time>
      </trkpt>
      <trkpt lat="47.73693" lon="-3.39812">
        <ele>18</ele>
        <time>2011-08-29T10:57:02Z</time>
      </trkpt>
      <trkpt lat="47.73691" lon="-3.39787">
        <ele>18</ele>
        <time>2011-08-29T10:57:05Z</time>
      </trkpt>
      <trkpt lat="47.73691" lon="-3.39762">
        <ele>18</ele>
        <time>2011-08-29T10:57:08Z</time>
      </trkpt>
      <trkpt lat="47.73694" lon="-3.39722">
        <ele>18</ele>
        <time>2011-08-29T10:57:13Z</time>
      </trkpt>
      <trkpt lat="47.73703" lon="-3.39638">
        <ele>21</ele>
        <time>2011-08-29T10:57:25Z</time>
      </trkpt>
      <trkpt lat="47.73709" lon="-3.39612">
        <ele>21</ele>
        <time>2011-08-29T10:57:29Z</time>
      </trkpt>
      <trkpt lat="47.73711" lon="-3.39575">
        <ele>23</ele>
        <time>2011-08-29T10:57:34Z</time>
      </trkpt>
      <trkpt lat="47.73728" lon="-3.39422">
        <ele>23</ele>
        <time>2011-08-29T10:57:55Z</time>
      </trkpt>
      <trkpt lat="47.73749" lon="-3.39204">
        <ele>23</ele>
        <time>2011-08-29T10:58:26Z</time>
      </trkpt>
      <trkpt lat="47.73754" lon="-3.39177">
        <ele>25</ele>
        <time>2011-08-29T10:58:30Z</time>
      </trkpt>
      <trkpt lat="47.73769" lon="-3.39125">
        <ele>25</ele>
        <time>2011-08-29T10:58:39Z</time>
      </trkpt>
      <trkpt lat="47.7377" lon="-3.39112">
        <ele>25</ele>
        <time>2011-08-29T10:58:41Z</time>
      </trkpt>
      <trkpt lat="47.73784" lon="-3.39074">
        <ele>23</ele>
        <time>2011-08-29T10:58:48Z</time>
      </trkpt>
      <trkpt lat="47.73809" lon="-3.38983">
        <ele>21</ele>
        <time>2011-08-29T10:59:02Z</time>
      </trkpt>
      <trkpt lat="47.73829" lon="-3.38885">
        <ele>19</ele>
        <time>2011-08-29T10:59:16Z</time>
      </trkpt>
      <trkpt lat="47.73861" lon="-3.38795">
        <ele>20</ele>
        <time>2011-08-29T10:59:31Z</time>
      </trkpt>
      <trkpt lat="47.73873" lon="-3.38741">
        <ele>18</ele>
        <time>2011-08-29T10:59:39Z</time>
      </trkpt>
      <trkpt lat="47.7389" lon="-3.38679">
        <ele>19</ele>
        <time>2011-08-29T10:59:48Z</time>
      </trkpt>
      <trkpt lat="47.73899" lon="-3.38655">
        <ele>19</ele>
        <time>2011-08-29T10:59:52Z</time>
      </trkpt>
      <trkpt lat="47.73908" lon="-3.38639">
        <ele>19</ele>
        <time>2011-08-29T10:59:55Z</time>
      </trkpt>
      <trkpt lat="47.73929" lon="-3.38609">
        <ele>21</ele>
        <time>2011-08-29T11:00:01Z</time>
      </trkpt>
      <trkpt lat="47.73948" lon="-3.38586">
        <ele>22</ele>
        <time>2011-08-29T11:00:06Z</time>
      </trkpt>
      <trkpt lat="47.73962" lon="-3.38566">
        <ele>22</ele>
        <time>2011-08-29T11:00:10Z</time>
      </trkpt>
      <trkpt lat="47.73973" lon="-3.38541">
        <ele>23</ele>
        <time>2011-08-29T11:00:14Z</time>
      </trkpt>
      <trkpt lat="47.73979" lon="-3.38524">
        <ele>23</ele>
        <time>2011-08-29T11:00:17Z</time>
      </trkpt>
      <trkpt lat="47.73983" lon="-3.38483">
        <ele>22</ele>
        <time>2011-08-29T11:00:23Z</time>
      </trkpt>
      <trkpt lat="47.73983" lon="-3.3841">
        <ele>20</ele>
        <time>2011-08-29T11:00:32Z</time>
      </trkpt>
      <trkpt lat="47.7399" lon="-3.38279">
        <ele>15</ele>
        <time>2011-08-29T11:00:44Z</time>
      </trkpt>
      <trkpt lat="47.73998" lon="-3.38183">
        <ele>14</ele>
        <time>2011-08-29T11:00:54Z</time>
      </trkpt>
      <trkpt lat="47.74" lon="-3.38177">
        <ele>15</ele>
        <time>2011-08-29T11:00:56Z</time>
      </trkpt>
      <trkpt lat="47.74005" lon="-3.38172">
        <ele>15</ele>
        <time>2011-08-29T11:00:58Z</time>
      </trkpt>
      <trkpt lat="47.74009" lon="-3.38174">
        <ele>15</ele>
        <time>2011-08-29T11:00:59Z</time>
      </trkpt>
      <trkpt lat="47.74021" lon="-3.38185">
        <ele>16</ele>
        <time>2011-08-29T11:01:02Z</time>
      </trkpt>
      <trkpt lat="47.74096" lon="-3.3826">
        <ele>20</ele>
        <time>2011-08-29T11:01:20Z</time>
      </trkpt>
      <trkpt lat="47.74152" lon="-3.3831">
        <ele>20</ele>
        <time>2011-08-29T11:01:34Z</time>
      </trkpt>
      <trkpt lat="47.74163" lon="-3.38328">
        <ele>20</ele>
        <time>2011-08-29T11:01:39Z</time>
      </trkpt>
      <trkpt lat="47.74173" lon="-3.38342">
        <ele>20</ele>
        <time>2011-08-29T11:01:45Z</time>
      </trkpt>
      <trkpt lat="47.74216" lon="-3.38391">
        <ele>20</ele>
        <time>2011-08-29T11:02:02Z</time>
      </trkpt>
      <trkpt lat="47.74246" lon="-3.38422">
        <ele>20</ele>
        <time>2011-08-29T11:02:40Z</time>
      </trkpt>
      <trkpt lat="47.74257" lon="-3.38429">
        <ele>19</ele>
        <time>2011-08-29T11:02:43Z</time>
      </trkpt>
      <trkpt lat="47.74263" lon="-3.38428">
        <ele>19</ele>
        <time>2011-08-29T11:02:45Z</time>
      </trkpt>
      <trkpt lat="47.74266" lon="-3.38423">
        <ele>19</ele>
        <time>2011-08-29T11:02:46Z</time>
      </trkpt>
      <trkpt lat="47.74319" lon="-3.38255">
        <ele>19</ele>
        <time>2011-08-29T11:03:09Z</time>
      </trkpt>
      <trkpt lat="47.74338" lon="-3.38205">
        <ele>18</ele>
        <time>2011-08-29T11:03:16Z</time>
      </trkpt>
      <trkpt lat="47.74355" lon="-3.38163">
        <ele>18</ele>
        <time>2011-08-29T11:03:22Z</time>
      </trkpt>
      <trkpt lat="47.74376" lon="-3.3813">
        <ele>17</ele>
        <time>2011-08-29T11:03:28Z</time>
      </trkpt>
      <trkpt lat="47.74382" lon="-3.38108">
        <ele>17</ele>
        <time>2011-08-29T11:03:31Z</time>
      </trkpt>
      <trkpt lat="47.74386" lon="-3.38076">
        <ele>17</ele>
        <time>2011-08-29T11:03:35Z</time>
      </trkpt>
      <trkpt lat="47.74391" lon="-3.38054">
        <ele>17</ele>
        <time>2011-08-29T11:03:38Z</time>
      </trkpt>
      <trkpt lat="47.74404" lon="-3.38017">
        <ele>17</ele>
        <time>2011-08-29T11:03:43Z</time>
      </trkpt>
      <trkpt lat="47.74426" lon="-3.37941">
        <ele>15</ele>
        <time>2011-08-29T11:03:54Z</time>
      </trkpt>
      <trkpt lat="47.74448" lon="-3.37878">
        <ele>15</ele>
        <time>2011-08-29T11:04:03Z</time>
      </trkpt>
      <trkpt lat="47.74458" lon="-3.37842">
        <ele>15</ele>
        <time>2011-08-29T11:04:08Z</time>
      </trkpt>
      <trkpt lat="47.74487" lon="-3.37766">
        <ele>14</ele>
        <time>2011-08-29T11:04:18Z</time>
      </trkpt>
      <trkpt lat="47.74499" lon="-3.37731">
        <ele>14</ele>
        <time>2011-08-29T11:04:23Z</time>
      </trkpt>
      <trkpt lat="47.74503" lon="-3.37716">
        <ele>12</ele>
        <time>2011-08-29T11:04:25Z</time>
      </trkpt>
      <trkpt lat="47.74506" lon="-3.37677">
        <ele>12</ele>
        <time>2011-08-29T11:04:30Z</time>
      </trkpt>
      <trkpt lat="47.74508" lon="-3.37578">
        <ele>12</ele>
        <time>2011-08-29T11:04:48Z</time>
      </trkpt>
      <trkpt lat="47.74514" lon="-3.37426">
        <ele>10</ele>
        <time>2011-08-29T11:05:08Z</time>
      </trkpt>
      <trkpt lat="47.74515" lon="-3.37332">
        <ele>8</ele>
        <time>2011-08-29T11:05:20Z</time>
      </trkpt>
      <trkpt lat="47.74532" lon="-3.36895">
        <ele>11</ele>
        <time>2011-08-29T11:06:14Z</time>
      </trkpt>
      <trkpt lat="47.74537" lon="-3.36825">
        <ele>10</ele>
        <time>2011-08-29T11:06:23Z</time>
      </trkpt>
      <trkpt lat="47.74539" lon="-3.3681">
        <ele>10</ele>
        <time>2011-08-29T11:06:25Z</time>
      </trkpt>
      <trkpt lat="47.74544" lon="-3.36797">
        <ele>10</ele>
        <time>2011-08-29T11:06:27Z</time>
      </trkpt>
      <trkpt lat="47.7456" lon="-3.3677">
        <ele>10</ele>
        <time>2011-08-29T11:06:32Z</time>
      </trkpt>
      <trkpt lat="47.74614" lon="-3.36702">
        <ele>9</ele>
        <time>2011-08-29T11:06:45Z</time>
      </trkpt>
      <trkpt lat="47.74639" lon="-3.36664">
        <ele>9</ele>
        <time>2011-08-29T11:06:52Z</time>
      </trkpt>
      <trkpt lat="47.74701" lon="-3.36589">
        <ele>7</ele>
        <time>2011-08-29T11:07:07Z</time>
      </trkpt>
      <trkpt lat="47.74759" lon="-3.36515">
        <ele>8</ele>
        <time>2011-08-29T11:07:21Z</time>
      </trkpt>
      <trkpt lat="47.74787" lon="-3.36478">
        <ele>10</ele>
        <time>2011-08-29T11:07:28Z</time>
      </trkpt>
      <trkpt lat="47.74805" lon="-3.36449">
        <ele>10</ele>
        <time>2011-08-29T11:07:33Z</time>
      </trkpt>
      <trkpt lat="47.74816" lon="-3.36435">
        <ele>11</ele>
        <time>2011-08-29T11:07:36Z</time>
      </trkpt>
      <trkpt lat="47.74821" lon="-3.36424">
        <ele>11</ele>
        <time>2011-08-29T11:07:38Z</time>
      </trkpt>
      <trkpt lat="47.74822" lon="-3.36418">
        <ele>11</ele>
        <time>2011-08-29T11:07:39Z</time>
      </trkpt>
      <trkpt lat="47.74823" lon="-3.36365">
        <ele>11</ele>
        <time>2011-08-29T11:07:46Z</time>
      </trkpt>
      <trkpt lat="47.74826" lon="-3.36349">
        <ele>11</ele>
        <time>2011-08-29T11:07:48Z</time>
      </trkpt>
      <trkpt lat="47.74832" lon="-3.36337">
        <ele>12</ele>
        <time>2011-08-29T11:07:50Z</time>
      </trkpt>
      <trkpt lat="47.74849" lon="-3.36319">
        <ele>13</ele>
        <time>2011-08-29T11:07:54Z</time>
      </trkpt>
      <trkpt lat="47.74876" lon="-3.36295">
        <ele>13</ele>
        <time>2011-08-29T11:08:00Z</time>
      </trkpt>
      <trkpt lat="47.7491" lon="-3.36271">
        <ele>14</ele>
        <time>2011-08-29T11:08:07Z</time>
      </trkpt>
      <trkpt lat="47.74943" lon="-3.36251">
        <ele>15</ele>
        <time>2011-08-29T11:08:14Z</time>
      </trkpt>
      <trkpt lat="47.7496" lon="-3.3622">
        <ele>16</ele>
        <time>2011-08-29T11:08:20Z</time>
      </trkpt>
      <trkpt lat="47.74965" lon="-3.36214">
        <ele>16</ele>
        <time>2011-08-29T11:08:22Z</time>
      </trkpt>
      <trkpt lat="47.74978" lon="-3.36204">
        <ele>16</ele>
        <time>2011-08-29T11:08:27Z</time>
      </trkpt>
      <trkpt lat="47.74995" lon="-3.3619">
        <ele>16</ele>
        <time>2011-08-29T11:08:35Z</time>
      </trkpt>
      <trkpt lat="47.75025" lon="-3.36169">
        <ele>16</ele>
        <time>2011-08-29T11:08:43Z</time>
      </trkpt>
      <trkpt lat="47.75052" lon="-3.3615">
        <ele>15</ele>
        <time>2011-08-29T11:08:51Z</time>
      </trkpt>
      <trkpt lat="47.75083" lon="-3.36133">
        <ele>14</ele>
        <time>2011-08-29T11:08:58Z</time>
      </trkpt>
      <trkpt lat="47.75102" lon="-3.36126">
        <ele>14</ele>
        <time>2011-08-29T11:09:02Z</time>
      </trkpt>
      <trkpt lat="47.75156" lon="-3.36114">
        <ele>13</ele>
        <time>2011-08-29T11:09:13Z</time>
      </trkpt>
      <trkpt lat="47.75161" lon="-3.36113">
        <ele>13</ele>
        <time>2011-08-29T11:09:14Z</time>
      </trkpt>
      <trkpt lat="47.75168" lon="-3.36105">
        <ele>13</ele>
        <time>2011-08-29T11:09:16Z</time>
      </trkpt>
      <trkpt lat="47.7517" lon="-3.36101">
        <ele>13</ele>
        <time>2011-08-29T11:09:17Z</time>
      </trkpt>
      <trkpt lat="47.75166" lon="-3.3607">
        <ele>12</ele>
        <time>2011-08-29T11:09:21Z</time>
      </trkpt>
      <trkpt lat="47.7516" lon="-3.36038">
        <ele>12</ele>
        <time>2011-08-29T11:09:25Z</time>
      </trkpt>
      <trkpt lat="47.7515" lon="-3.36008">
        <ele>12</ele>
        <time>2011-08-29T11:09:29Z</time>
      </trkpt>
      <trkpt lat="47.75149" lon="-3.36001">
        <ele>12</ele>
        <time>2011-08-29T11:09:30Z</time>
      </trkpt>
      <trkpt lat="47.75151" lon="-3.35994">
        <ele>11</ele>
        <time>2011-08-29T11:09:31Z</time>
      </trkpt>
      <trkpt lat="47.75159" lon="-3.35987">
        <ele>11</ele>
        <time>2011-08-29T11:09:33Z</time>
      </trkpt>
      <trkpt lat="47.75167" lon="-3.35987">
        <ele>11</ele>
        <time>2011-08-29T11:09:35Z</time>
      </trkpt>
      <trkpt lat="47.752" lon="-3.36003">
        <ele>11</ele>
        <time>2011-08-29T11:09:42Z</time>
      </trkpt>
      <trkpt lat="47.75204" lon="-3.36004">
        <ele>11</ele>
        <time>2011-08-29T11:09:43Z</time>
      </trkpt>
      <trkpt lat="47.75207" lon="-3.36002">
        <ele>11</ele>
        <time>2011-08-29T11:09:44Z</time>
      </trkpt>
      <trkpt lat="47.75211" lon="-3.35991">
        <ele>10</ele>
        <time>2011-08-29T11:09:46Z</time>
      </trkpt>
      <trkpt lat="47.75228" lon="-3.359">
        <ele>6</ele>
        <time>2011-08-29T11:09:58Z</time>
      </trkpt>
      <trkpt lat="47.75243" lon="-3.35845">
        <ele>5</ele>
        <time>2011-08-29T11:10:05Z</time>
      </trkpt>
      <trkpt lat="47.75246" lon="-3.35839">
        <ele>5</ele>
        <time>2011-08-29T11:10:06Z</time>
      </trkpt>
      <trkpt lat="47.75263" lon="-3.35822">
        <ele>6</ele>
        <time>2011-08-29T11:10:10Z</time>
      </trkpt>
      <trkpt lat="47.7527" lon="-3.35819">
        <ele>6</ele>
        <time>2011-08-29T11:10:12Z</time>
      </trkpt>
      <trkpt lat="47.75282" lon="-3.35822">
        <ele>7</ele>
        <time>2011-08-29T11:10:15Z</time>
      </trkpt>
      <trkpt lat="47.75304" lon="-3.35838">
        <ele>8</ele>
        <time>2011-08-29T11:10:20Z</time>
      </trkpt>
      <trkpt lat="47.75322" lon="-3.35847">
        <ele>8</ele>
        <time>2011-08-29T11:10:25Z</time>
      </trkpt>
      <trkpt lat="47.75329" lon="-3.35847">
        <ele>8</ele>
        <time>2011-08-29T11:10:29Z</time>
      </trkpt>
      <trkpt lat="47.75334" lon="-3.35843">
        <ele>10</ele>
        <time>2011-08-29T11:10:32Z</time>
      </trkpt>
      <trkpt lat="47.75338" lon="-3.35829">
        <ele>10</ele>
        <time>2011-08-29T11:10:38Z</time>
      </trkpt>
      <trkpt lat="47.75343" lon="-3.35827">
        <ele>10</ele>
        <time>2011-08-29T11:10:40Z</time>
      </trkpt>
      <trkpt lat="47.75372" lon="-3.35848">
        <ele>11</ele>
        <time>2011-08-29T11:10:48Z</time>
      </trkpt>
      <trkpt lat="47.7538" lon="-3.35848">
        <ele>12</ele>
        <time>2011-08-29T11:10:50Z</time>
      </trkpt>
      <trkpt lat="47.75413" lon="-3.35829">
        <ele>14</ele>
        <time>2011-08-29T11:10:59Z</time>
      </trkpt>
      <trkpt lat="47.75422" lon="-3.35819">
        <ele>14</ele>
        <time>2011-08-29T11:11:02Z</time>
      </trkpt>
      <trkpt lat="47.75432" lon="-3.35802">
        <ele>14</ele>
        <time>2011-08-29T11:11:05Z</time>
      </trkpt>
      <trkpt lat="47.75441" lon="-3.35781">
        <ele>14</ele>
        <time>2011-08-29T11:11:08Z</time>
      </trkpt>
      <trkpt lat="47.75455" lon="-3.35729">
        <ele>12</ele>
        <time>2011-08-29T11:11:15Z</time>
      </trkpt>
      <trkpt lat="47.75454" lon="-3.35723">
        <ele>12</ele>
        <time>2011-08-29T11:11:16Z</time>
      </trkpt>
      <trkpt lat="47.75448" lon="-3.35713">
        <ele>12</ele>
        <time>2011-08-29T11:11:18Z</time>
      </trkpt>
      <trkpt lat="47.75443" lon="-3.35701">
        <ele>12</ele>
        <time>2011-08-29T11:11:20Z</time>
      </trkpt>
      <trkpt lat="47.75444" lon="-3.35694">
        <ele>12</ele>
        <time>2011-08-29T11:11:21Z</time>
      </trkpt>
      <trkpt lat="47.75457" lon="-3.3566">
        <ele>11</ele>
        <time>2011-08-29T11:11:26Z</time>
      </trkpt>
      <trkpt lat="47.75456" lon="-3.35647">
        <ele>11</ele>
        <time>2011-08-29T11:11:28Z</time>
      </trkpt>
      <trkpt lat="47.75448" lon="-3.35632">
        <ele>11</ele>
        <time>2011-08-29T11:11:31Z</time>
      </trkpt>
      <trkpt lat="47.75447" lon="-3.3562">
        <ele>11</ele>
        <time>2011-08-29T11:11:33Z</time>
      </trkpt>
      <trkpt lat="47.75448" lon="-3.35609">
        <ele>10</ele>
        <time>2011-08-29T11:11:35Z</time>
      </trkpt>
      <trkpt lat="47.75453" lon="-3.35591">
        <ele>10</ele>
        <time>2011-08-29T11:11:38Z</time>
      </trkpt>
      <trkpt lat="47.75469" lon="-3.3555">
        <ele>7</ele>
        <time>2011-08-29T11:11:45Z</time>
      </trkpt>
      <trkpt lat="47.75489" lon="-3.35486">
        <ele>4</ele>
        <time>2011-08-29T11:11:55Z</time>
      </trkpt>
      <trkpt lat="47.75492" lon="-3.3548">
        <ele>4</ele>
        <time>2011-08-29T11:11:56Z</time>
      </trkpt>
      <trkpt lat="47.75502" lon="-3.35464">
        <ele>5</ele>
        <time>2011-08-29T11:11:59Z</time>
      </trkpt>
      <trkpt lat="47.75511" lon="-3.35458">
        <ele>5</ele>
        <time>2011-08-29T11:12:01Z</time>
      </trkpt>
      <trkpt lat="47.75515" lon="-3.35457">
        <ele>5</ele>
        <time>2011-08-29T11:12:02Z</time>
      </trkpt>
      <trkpt lat="47.75566" lon="-3.35472">
        <ele>5</ele>
        <time>2011-08-29T11:12:13Z</time>
      </trkpt>
      <trkpt lat="47.75594" lon="-3.3547">
        <ele>4.4</ele>
        <time>2011-08-29T11:12:18Z</time>
      </trkpt>
      <trkpt lat="47.75623" lon="-3.35472">
        <ele>3.6</ele>
        <time>2011-08-29T11:12:23Z</time>
      </trkpt>
      <trkpt lat="47.75656" lon="-3.35472">
        <ele>3.6</ele>
        <time>2011-08-29T11:12:29Z</time>
      </trkpt>
      <trkpt lat="47.75676" lon="-3.35477">
        <ele>4.3</ele>
        <time>2011-08-29T11:12:33Z</time>
      </trkpt>
      <trkpt lat="47.75713" lon="-3.35488">
        <ele>5.1</ele>
        <time>2011-08-29T11:12:41Z</time>
      </trkpt>
      <trkpt lat="47.75716" lon="-3.35485">
        <ele>4.9</ele>
        <time>2011-08-29T11:12:42Z</time>
      </trkpt>
      <trkpt lat="47.75721" lon="-3.35484">
        <ele>4.9</ele>
        <time>2011-08-29T11:12:43Z</time>
      </trkpt>
      <trkpt lat="47.75735" lon="-3.35486">
        <ele>3.6</ele>
        <time>2011-08-29T11:12:46Z</time>
      </trkpt>
      <trkpt lat="47.75743" lon="-3.3548">
        <ele>2.6</ele>
        <time>2011-08-29T11:12:48Z</time>
      </trkpt>
      <trkpt lat="47.75751" lon="-3.35471">
        <ele>2</ele>
        <time>2011-08-29T11:12:50Z</time>
      </trkpt>
      <trkpt lat="47.75875" lon="-3.35318">
        <ele>1</ele>
        <time>2011-08-29T11:13:24Z</time>
      </trkpt>
      <trkpt lat="47.75894" lon="-3.35298">
        <ele>1</ele>
        <time>2011-08-29T11:13:29Z</time>
      </trkpt>
      <trkpt lat="47.75916" lon="-3.35271">
        <ele>1</ele>
        <time>2011-08-29T11:13:35Z</time>
      </trkpt>
      <trkpt lat="47.75917" lon="-3.35262">
        <ele>1</ele>
        <time>2011-08-29T11:13:37Z</time>
      </trkpt>
      <trkpt lat="47.75913" lon="-3.35253">
        <ele>1</ele>
        <time>2011-08-29T11:13:39Z</time>
      </trkpt>
      <trkpt lat="47.7591" lon="-3.3525">
        <ele>1</ele>
        <time>2011-08-29T11:13:40Z</time>
      </trkpt>
      <trkpt lat="47.75881" lon="-3.35223">
        <ele>1</ele>
        <time>2011-08-29T11:13:47Z</time>
      </trkpt>
      <trkpt lat="47.75829" lon="-3.35181">
        <ele>1</ele>
        <time>2011-08-29T11:13:58Z</time>
      </trkpt>
      <trkpt lat="47.75804" lon="-3.35156">
        <ele>3</ele>
        <time>2011-08-29T11:14:04Z</time>
      </trkpt>
      <trkpt lat="47.75776" lon="-3.35142">
        <ele>3</ele>
        <time>2011-08-29T11:14:10Z</time>
      </trkpt>
      <trkpt lat="47.75748" lon="-3.35135">
        <ele>3</ele>
        <time>2011-08-29T11:14:16Z</time>
      </trkpt>
      <trkpt lat="47.7574" lon="-3.35129">
        <ele>3</ele>
        <time>2011-08-29T11:14:18Z</time>
      </trkpt>
      <trkpt lat="47.75734" lon="-3.35115">
        <ele>3</ele>
        <time>2011-08-29T11:14:21Z</time>
      </trkpt>
      <trkpt lat="47.75734" lon="-3.35102">
        <ele>3</ele>
        <time>2011-08-29T11:14:25Z</time>
      </trkpt>
      <trkpt lat="47.75757" lon="-3.35023">
        <ele>6</ele>
        <time>2011-08-29T11:14:42Z</time>
      </trkpt>
      <trkpt lat="47.75768" lon="-3.3498">
        <ele>8</ele>
        <time>2011-08-29T11:14:51Z</time>
      </trkpt>
      <trkpt lat="47.75773" lon="-3.3495">
        <ele>8</ele>
        <time>2011-08-29T11:14:57Z</time>
      </trkpt>
      <trkpt lat="47.75775" lon="-3.34934">
        <ele>8</ele>
        <time>2011-08-29T11:15:00Z</time>
      </trkpt>
      <trkpt lat="47.75773" lon="-3.3489">
        <ele>8</ele>
        <time>2011-08-29T11:15:08Z</time>
      </trkpt>
      <trkpt lat="47.75775" lon="-3.3484">
        <ele>8</ele>
        <time>2011-08-29T11:15:17Z</time>
      </trkpt>
      <trkpt lat="47.75774" lon="-3.34761">
        <ele>8</ele>
        <time>2011-08-29T11:15:30Z</time>
      </trkpt>
      <trkpt lat="47.75769" lon="-3.34739">
        <ele>8</ele>
        <time>2011-08-29T11:15:33Z</time>
      </trkpt>
      <trkpt lat="47.75765" lon="-3.34731">
        <ele>8</ele>
        <time>2011-08-29T11:15:34Z</time>
      </trkpt>
      <trkpt lat="47.75754" lon="-3.34715">
        <ele>8</ele>
        <time>2011-08-29T11:15:36Z</time>
      </trkpt>
      <trkpt lat="47.75731" lon="-3.34686">
        <ele>7</ele>
        <time>2011-08-29T11:15:40Z</time>
      </trkpt>
      <trkpt lat="47.75724" lon="-3.34673">
        <ele>7</ele>
        <time>2011-08-29T11:15:42Z</time>
      </trkpt>
      <trkpt lat="47.75721" lon="-3.34653">
        <ele>8</ele>
        <time>2011-08-29T11:15:45Z</time>
      </trkpt>
      <trkpt lat="47.7572" lon="-3.34627">
        <ele>9</ele>
        <time>2011-08-29T11:15:49Z</time>
      </trkpt>
      <trkpt lat="47.75706" lon="-3.34572">
        <ele>11</ele>
        <time>2011-08-29T11:15:59Z</time>
      </trkpt>
      <trkpt lat="47.75693" lon="-3.34494">
        <ele>13</ele>
        <time>2011-08-29T11:16:13Z</time>
      </trkpt>
      <trkpt lat="47.7569" lon="-3.34462">
        <ele>13</ele>
        <time>2011-08-29T11:16:19Z</time>
      </trkpt>
      <trkpt lat="47.757" lon="-3.34395">
        <ele>16</ele>
        <time>2011-08-29T11:16:32Z</time>
      </trkpt>
      <trkpt lat="47.7571" lon="-3.34294">
        <ele>19</ele>
        <time>2011-08-29T11:16:52Z</time>
      </trkpt>
      <trkpt lat="47.75727" lon="-3.34187">
        <ele>22</ele>
        <time>2011-08-29T11:17:13Z</time>
      </trkpt>
      <trkpt lat="47.75741" lon="-3.34132">
        <ele>23</ele>
        <time>2011-08-29T11:17:46Z</time>
      </trkpt>
      <trkpt lat="47.75752" lon="-3.34102">
        <ele>23</ele>
        <time>2011-08-29T11:17:52Z</time>
      </trkpt>
      <trkpt lat="47.75762" lon="-3.34081">
        <ele>24</ele>
        <time>2011-08-29T11:17:56Z</time>
      </trkpt>
      <trkpt lat="47.75789" lon="-3.34022">
        <ele>24</ele>
        <time>2011-08-29T11:18:07Z</time>
      </trkpt>
      <trkpt lat="47.7582" lon="-3.33968">
        <ele>25</ele>
        <time>2011-08-29T11:18:18Z</time>
      </trkpt>
      <trkpt lat="47.75836" lon="-3.33932">
        <ele>25</ele>
        <time>2011-08-29T11:18:28Z</time>
      </trkpt>
      <trkpt lat="47.7585" lon="-3.33913">
        <ele>24</ele>
        <time>2011-08-29T11:18:33Z</time>
      </trkpt>
      <trkpt lat="47.75882" lon="-3.33855">
        <ele>23</ele>
        <time>2011-08-29T11:18:45Z</time>
      </trkpt>
      <trkpt lat="47.75898" lon="-3.33832">
        <ele>21</ele>
        <time>2011-08-29T11:18:49Z</time>
      </trkpt>
      <trkpt lat="47.75913" lon="-3.33801">
        <ele>20</ele>
        <time>2011-08-29T11:18:54Z</time>
      </trkpt>
      <trkpt lat="47.75913" lon="-3.33794">
        <ele>20</ele>
        <time>2011-08-29T11:18:55Z</time>
      </trkpt>
      <trkpt lat="47.75912" lon="-3.33789">
        <ele>20</ele>
        <time>2011-08-29T11:18:56Z</time>
      </trkpt>
      <trkpt lat="47.75905" lon="-3.33775">
        <ele>19</ele>
        <time>2011-08-29T11:18:59Z</time>
      </trkpt>
      <trkpt lat="47.75903" lon="-3.33754">
        <ele>19</ele>
        <time>2011-08-29T11:19:02Z</time>
      </trkpt>
      <trkpt lat="47.75895" lon="-3.33734">
        <ele>18</ele>
        <time>2011-08-29T11:19:05Z</time>
      </trkpt>
      <trkpt lat="47.7589" lon="-3.33711">
        <ele>18</ele>
        <time>2011-08-29T11:19:08Z</time>
      </trkpt>
      <trkpt lat="47.75889" lon="-3.33695">
        <ele>18</ele>
        <time>2011-08-29T11:19:10Z</time>
      </trkpt>
      <trkpt lat="47.7589" lon="-3.33671">
        <ele>18</ele>
        <time>2011-08-29T11:19:13Z</time>
      </trkpt>
      <trkpt lat="47.75896" lon="-3.33603">
        <ele>17</ele>
        <time>2011-08-29T11:19:22Z</time>
      </trkpt>
      <trkpt lat="47.75897" lon="-3.33558">
        <ele>17</ele>
        <time>2011-08-29T11:19:28Z</time>
      </trkpt>
      <trkpt lat="47.75902" lon="-3.33502">
        <ele>17</ele>
        <time>2011-08-29T11:19:35Z</time>
      </trkpt>
      <trkpt lat="47.75908" lon="-3.33466">
        <ele>17</ele>
        <time>2011-08-29T11:19:39Z</time>
      </trkpt>
      <trkpt lat="47.75915" lon="-3.33439">
        <ele>17</ele>
        <time>2011-08-29T11:19:42Z</time>
      </trkpt>
      <trkpt lat="47.75947" lon="-3.33351">
        <ele>16</ele>
        <time>2011-08-29T11:19:52Z</time>
      </trkpt>
      <trkpt lat="47.75959" lon="-3.33311">
        <ele>15</ele>
        <time>2011-08-29T11:19:57Z</time>
      </trkpt>
      <trkpt lat="47.75974" lon="-3.33226">
        <ele>11</ele>
        <time>2011-08-29T11:20:07Z</time>
      </trkpt>
      <trkpt lat="47.75978" lon="-3.33171">
        <ele>10</ele>
        <time>2011-08-29T11:20:12Z</time>
      </trkpt>
      <trkpt lat="47.75978" lon="-3.33147">
        <ele>8</ele>
        <time>2011-08-29T11:20:14Z</time>
      </trkpt>
      <trkpt lat="47.75975" lon="-3.33124">
        <ele>8</ele>
        <time>2011-08-29T11:20:16Z</time>
      </trkpt>
      <trkpt lat="47.75974" lon="-3.33116">
        <ele>8</ele>
        <time>2011-08-29T11:20:17Z</time>
      </trkpt>
      <trkpt lat="47.75964" lon="-3.33091">
        <ele>8</ele>
        <time>2011-08-29T11:20:23Z</time>
      </trkpt>
      <trkpt lat="47.75967" lon="-3.33075">
        <ele>7</ele>
        <time>2011-08-29T11:20:26Z</time>
      </trkpt>
      <trkpt lat="47.75967" lon="-3.33062">
        <ele>6</ele>
        <time>2011-08-29T11:20:28Z</time>
      </trkpt>
      <trkpt lat="47.75956" lon="-3.33034">
        <ele>7</ele>
        <time>2011-08-29T11:20:33Z</time>
      </trkpt>
      <trkpt lat="47.75934" lon="-3.32999">
        <ele>7</ele>
        <time>2011-08-29T11:20:40Z</time>
      </trkpt>
      <trkpt lat="47.75928" lon="-3.32987">
        <ele>7</ele>
        <time>2011-08-29T11:20:42Z</time>
      </trkpt>
      <trkpt lat="47.7592" lon="-3.32962">
        <ele>7</ele>
        <time>2011-08-29T11:20:46Z</time>
      </trkpt>
      <trkpt lat="47.75916" lon="-3.32933">
        <ele>10</ele>
        <time>2011-08-29T11:20:50Z</time>
      </trkpt>
      <trkpt lat="47.75915" lon="-3.32918">
        <ele>9</ele>
        <time>2011-08-29T11:20:52Z</time>
      </trkpt>
      <trkpt lat="47.75935" lon="-3.32711">
        <ele>4</ele>
        <time>2011-08-29T11:21:20Z</time>
      </trkpt>
      <trkpt lat="47.75937" lon="-3.32638">
        <ele>4</ele>
        <time>2011-08-29T11:21:30Z</time>
      </trkpt>
      <trkpt lat="47.75949" lon="-3.32552">
        <ele>4</ele>
        <time>2011-08-29T11:21:41Z</time>
      </trkpt>
      <trkpt lat="47.75961" lon="-3.32503">
        <ele>4</ele>
        <time>2011-08-29T11:21:48Z</time>
      </trkpt>
      <trkpt lat="47.75984" lon="-3.32429">
        <ele>5</ele>
        <time>2011-08-29T11:21:59Z</time>
      </trkpt>
      <trkpt lat="47.75996" lon="-3.32406">
        <ele>5</ele>
        <time>2011-08-29T11:22:03Z</time>
      </trkpt>
      <trkpt lat="47.76061" lon="-3.32296">
        <ele>7</ele>
        <time>2011-08-29T11:22:25Z</time>
      </trkpt>
      <trkpt lat="47.76072" lon="-3.32269">
        <ele>8</ele>
        <time>2011-08-29T11:22:30Z</time>
      </trkpt>
      <trkpt lat="47.76077" lon="-3.32239">
        <ele>9</ele>
        <time>2011-08-29T11:22:35Z</time>
      </trkpt>
      <trkpt lat="47.76079" lon="-3.32135">
        <ele>11</ele>
        <time>2011-08-29T11:22:56Z</time>
      </trkpt>
      <trkpt lat="47.76089" lon="-3.3209">
        <ele>14</ele>
        <time>2011-08-29T11:23:05Z</time>
      </trkpt>
      <trkpt lat="47.76094" lon="-3.32085">
        <ele>14</ele>
        <time>2011-08-29T11:23:07Z</time>
      </trkpt>
      <trkpt lat="47.76104" lon="-3.32082">
        <ele>17</ele>
        <time>2011-08-29T11:23:10Z</time>
      </trkpt>
      <trkpt lat="47.76131" lon="-3.32075">
        <ele>19</ele>
        <time>2011-08-29T11:23:18Z</time>
      </trkpt>
      <trkpt lat="47.76152" lon="-3.32077">
        <ele>20</ele>
        <time>2011-08-29T11:23:24Z</time>
      </trkpt>
      <trkpt lat="47.76199" lon="-3.32088">
        <ele>19</ele>
        <time>2011-08-29T11:23:38Z</time>
      </trkpt>
      <trkpt lat="47.76214" lon="-3.32088">
        <ele>19</ele>
        <time>2011-08-29T11:23:43Z</time>
      </trkpt>
      <trkpt lat="47.76227" lon="-3.32087">
        <ele>20</ele>
        <time>2011-08-29T11:23:47Z</time>
      </trkpt>
      <trkpt lat="47.76237" lon="-3.32084">
        <ele>21</ele>
        <time>2011-08-29T11:23:50Z</time>
      </trkpt>
      <trkpt lat="47.76247" lon="-3.32077">
        <ele>23</ele>
        <time>2011-08-29T11:23:53Z</time>
      </trkpt>
      <trkpt lat="47.76256" lon="-3.32068">
        <ele>23</ele>
        <time>2011-08-29T11:23:56Z</time>
      </trkpt>
      <trkpt lat="47.76263" lon="-3.32056">
        <ele>23</ele>
        <time>2011-08-29T11:23:59Z</time>
      </trkpt>
      <trkpt lat="47.76311" lon="-3.3193">
        <ele>27</ele>
        <time>2011-08-29T11:24:26Z</time>
      </trkpt>
      <trkpt lat="47.76322" lon="-3.31892">
        <ele>28</ele>
        <time>2011-08-29T11:24:34Z</time>
      </trkpt>
      <trkpt lat="47.76329" lon="-3.31854">
        <ele>29</ele>
        <time>2011-08-29T11:24:42Z</time>
      </trkpt>
      <trkpt lat="47.7635" lon="-3.31654">
        <ele>33</ele>
        <time>2011-08-29T11:25:19Z</time>
      </trkpt>
      <trkpt lat="47.76356" lon="-3.31617">
        <ele>33</ele>
        <time>2011-08-29T11:25:25Z</time>
      </trkpt>
      <trkpt lat="47.76362" lon="-3.31588">
        <ele>33</ele>
        <time>2011-08-29T11:25:30Z</time>
      </trkpt>
      <trkpt lat="47.76372" lon="-3.31557">
        <ele>33</ele>
        <time>2011-08-29T11:25:36Z</time>
      </trkpt>
      <trkpt lat="47.76405" lon="-3.31467">
        <ele>32</ele>
        <time>2011-08-29T11:25:52Z</time>
      </trkpt>
      <trkpt lat="47.76424" lon="-3.31352">
        <ele>28</ele>
        <time>2011-08-29T11:26:05Z</time>
      </trkpt>
      <trkpt lat="47.76436" lon="-3.31304">
        <ele>26</ele>
        <time>2011-08-29T11:26:10Z</time>
      </trkpt>
      <trkpt lat="47.76479" lon="-3.31199">
        <ele>25</ele>
        <time>2011-08-29T11:26:22Z</time>
      </trkpt>
      <trkpt lat="47.76504" lon="-3.31148">
        <ele>27</ele>
        <time>2011-08-29T11:26:29Z</time>
      </trkpt>
      <trkpt lat="47.76519" lon="-3.31124">
        <ele>26</ele>
        <time>2011-08-29T11:26:33Z</time>
      </trkpt>
      <trkpt lat="47.76585" lon="-3.31038">
        <ele>26</ele>
        <time>2011-08-29T11:26:51Z</time>
      </trkpt>
      <trkpt lat="47.76625" lon="-3.30982">
        <ele>26</ele>
        <time>2011-08-29T11:27:03Z</time>
      </trkpt>
      <trkpt lat="47.76637" lon="-3.30961">
        <ele>26</ele>
        <time>2011-08-29T11:27:07Z</time>
      </trkpt>
      <trkpt lat="47.76642" lon="-3.3094">
        <ele>26</ele>
        <time>2011-08-29T11:27:10Z</time>
      </trkpt>
      <trkpt lat="47.76642" lon="-3.30933">
        <ele>26</ele>
        <time>2011-08-29T11:27:11Z</time>
      </trkpt>
      <trkpt lat="47.76639" lon="-3.30886">
        <ele>24</ele>
        <time>2011-08-29T11:27:17Z</time>
      </trkpt>
      <trkpt lat="47.76629" lon="-3.30825">
        <ele>24</ele>
        <time>2011-08-29T11:27:26Z</time>
      </trkpt>
      <trkpt lat="47.76624" lon="-3.30773">
        <ele>24</ele>
        <time>2011-08-29T11:27:34Z</time>
      </trkpt>
      <trkpt lat="47.76619" lon="-3.30675">
        <ele>25</ele>
        <time>2011-08-29T11:27:50Z</time>
      </trkpt>
      <trkpt lat="47.7662" lon="-3.30663">
        <ele>27</ele>
        <time>2011-08-29T11:27:52Z</time>
      </trkpt>
      <trkpt lat="47.76625" lon="-3.3064">
        <ele>28</ele>
        <time>2011-08-29T11:27:57Z</time>
      </trkpt>
      <trkpt lat="47.76625" lon="-3.30631">
        <ele>28</ele>
        <time>2011-08-29T11:27:59Z</time>
      </trkpt>
      <trkpt lat="47.766" lon="-3.30502">
        <ele>31</ele>
        <time>2011-08-29T11:28:21Z</time>
      </trkpt>
      <trkpt lat="47.76583" lon="-3.30434">
        <ele>23</ele>
        <time>2011-08-29T11:28:32Z</time>
      </trkpt>
      <trkpt lat="47.76573" lon="-3.30403">
        <ele>22</ele>
        <time>2011-08-29T11:28:37Z</time>
      </trkpt>
      <trkpt lat="47.76425" lon="-3.30013">
        <ele>19</ele>
        <time>2011-08-29T11:29:45Z</time>
      </trkpt>
      <trkpt lat="47.76354" lon="-3.29828">
        <ele>28</ele>
        <time>2011-08-29T11:30:13Z</time>
      </trkpt>
      <trkpt lat="47.76351" lon="-3.29823">
        <ele>28</ele>
        <time>2011-08-29T11:30:14Z</time>
      </trkpt>
      <trkpt lat="47.76348" lon="-3.29821">
        <ele>28</ele>
        <time>2011-08-29T11:30:15Z</time>
      </trkpt>
      <trkpt lat="47.76344" lon="-3.29821">
        <ele>27</ele>
        <time>2011-08-29T11:30:16Z</time>
      </trkpt>
      <trkpt lat="47.76341" lon="-3.29824">
        <ele>27</ele>
        <time>2011-08-29T11:30:17Z</time>
      </trkpt>
      <trkpt lat="47.76336" lon="-3.29835">
        <ele>26</ele>
        <time>2011-08-29T11:30:19Z</time>
      </trkpt>
      <trkpt lat="47.76337" lon="-3.29841">
        <ele>27</ele>
        <time>2011-08-29T11:30:20Z</time>
      </trkpt>
      <trkpt lat="47.76342" lon="-3.29861">
        <ele>28</ele>
        <time>2011-08-29T11:30:23Z</time>
      </trkpt>
      <trkpt lat="47.7636" lon="-3.29903">
        <ele>28</ele>
        <time>2011-08-29T11:30:30Z</time>
      </trkpt>
      <trkpt lat="47.76374" lon="-3.29944">
        <ele>25</ele>
        <time>2011-08-29T11:30:38Z</time>
      </trkpt>
      <trkpt lat="47.76384" lon="-3.30005">
        <ele>19</ele>
        <time>2011-08-29T11:30:47Z</time>
      </trkpt>
      <trkpt lat="47.76389" lon="-3.30018">
        <ele>19</ele>
        <time>2011-08-29T11:30:49Z</time>
      </trkpt>
      <trkpt lat="47.76393" lon="-3.30023">
        <ele>19</ele>
        <time>2011-08-29T11:30:50Z</time>
      </trkpt>
      <trkpt lat="47.76402" lon="-3.30031">
        <ele>18</ele>
        <time>2011-08-29T11:30:52Z</time>
      </trkpt>
      <trkpt lat="47.76411" lon="-3.30032">
        <ele>18</ele>
        <time>2011-08-29T11:30:54Z</time>
      </trkpt>
      <trkpt lat="47.76415" lon="-3.30032">
        <ele>18</ele>
        <time>2011-08-29T11:30:55Z</time>
      </trkpt>
      <trkpt lat="47.76438" lon="-3.30022">
        <ele>18</ele>
        <time>2011-08-29T11:31:02Z</time>
      </trkpt>
      <trkpt lat="47.76442" lon="-3.30015">
        <ele>18</ele>
        <time>2011-08-29T11:31:06Z</time>
      </trkpt>
      <trkpt lat="47.76443" lon="-3.29995">
        <ele>22</ele>
        <time>2011-08-29T11:31:09Z</time>
      </trkpt>
      <trkpt lat="47.76436" lon="-3.29981">
        <ele>23</ele>
        <time>2011-08-29T11:31:12Z</time>
      </trkpt>
      <trkpt lat="47.76413" lon="-3.29944">
        <ele>26</ele>
        <time>2011-08-29T11:32:17Z</time>
      </trkpt>
      <trkpt lat="47.76396" lon="-3.29898">
        <ele>29</ele>
        <time>2011-08-29T11:32:26Z</time>
      </trkpt>
      <trkpt lat="47.76383" lon="-3.29846">
        <ele>29</ele>
        <time>2011-08-29T11:32:35Z</time>
      </trkpt>
      <trkpt lat="47.76374" lon="-3.29786">
        <ele>29</ele>
        <time>2011-08-29T11:32:46Z</time>
      </trkpt>
      <trkpt lat="47.76384" lon="-3.29759">
        <ele>29</ele>
        <time>2011-08-29T11:32:51Z</time>
      </trkpt>
      <trkpt lat="47.76401" lon="-3.29722">
        <ele>27</ele>
        <time>2011-08-29T11:32:58Z</time>
      </trkpt>
      <trkpt lat="47.76413" lon="-3.29698">
        <ele>26</ele>
        <time>2011-08-29T11:33:02Z</time>
      </trkpt>
      <trkpt lat="47.76444" lon="-3.2965">
        <ele>25</ele>
        <time>2011-08-29T11:33:10Z</time>
      </trkpt>
      <trkpt lat="47.76472" lon="-3.29603">
        <ele>24</ele>
        <time>2011-08-29T11:33:19Z</time>
      </trkpt>
      <trkpt lat="47.76477" lon="-3.2959">
        <ele>24</ele>
        <time>2011-08-29T11:33:21Z</time>
      </trkpt>
      <trkpt lat="47.76479" lon="-3.29579">
        <ele>24</ele>
        <time>2011-08-29T11:33:23Z</time>
      </trkpt>
      <trkpt lat="47.76479" lon="-3.29568">
        <ele>24</ele>
        <time>2011-08-29T11:33:25Z</time>
      </trkpt>
      <trkpt lat="47.76477" lon="-3.29563">
        <ele>24</ele>
        <time>2011-08-29T11:33:26Z</time>
      </trkpt>
      <trkpt lat="47.76474" lon="-3.2956">
        <ele>24</ele>
        <time>2011-08-29T11:33:27Z</time>
      </trkpt>
      <trkpt lat="47.76455" lon="-3.29548">
        <ele>24</ele>
        <time>2011-08-29T11:33:31Z</time>
      </trkpt>
      <trkpt lat="47.7643" lon="-3.29536">
        <ele>24</ele>
        <time>2011-08-29T11:33:35Z</time>
      </trkpt>
      <trkpt lat="47.76404" lon="-3.29528">
        <ele>24</ele>
        <time>2011-08-29T11:33:39Z</time>
      </trkpt>
      <trkpt lat="47.76355" lon="-3.29522">
        <ele>24</ele>
        <time>2011-08-29T11:33:49Z</time>
      </trkpt>
      <trkpt lat="47.76302" lon="-3.29522">
        <ele>24</ele>
        <time>2011-08-29T11:34:00Z</time>
      </trkpt>
      <trkpt lat="47.7626" lon="-3.2952">
        <ele>24</ele>
        <time>2011-08-29T11:34:08Z</time>
      </trkpt>
      <trkpt lat="47.76215" lon="-3.29513">
        <ele>25</ele>
        <time>2011-08-29T11:34:15Z</time>
      </trkpt>
      <trkpt lat="47.76197" lon="-3.29504">
        <ele>25</ele>
        <time>2011-08-29T11:34:18Z</time>
      </trkpt>
      <trkpt lat="47.76173" lon="-3.29486">
        <ele>28</ele>
        <time>2011-08-29T11:34:24Z</time>
      </trkpt>
      <trkpt lat="47.7616" lon="-3.29479">
        <ele>29</ele>
        <time>2011-08-29T11:34:27Z</time>
      </trkpt>
      <trkpt lat="47.76134" lon="-3.29474">
        <ele>29</ele>
        <time>2011-08-29T11:34:32Z</time>
      </trkpt>
      <trkpt lat="47.76124" lon="-3.29474">
        <ele>30</ele>
        <time>2011-08-29T11:34:34Z</time>
      </trkpt>
      <trkpt lat="47.76107" lon="-3.29477">
        <ele>30</ele>
        <time>2011-08-29T11:34:37Z</time>
      </trkpt>
      <trkpt lat="47.76086" lon="-3.29483">
        <ele>29</ele>
        <time>2011-08-29T11:34:41Z</time>
      </trkpt>
      <trkpt lat="47.76058" lon="-3.29494">
        <ele>29</ele>
        <time>2011-08-29T11:34:47Z</time>
      </trkpt>
      <trkpt lat="47.76032" lon="-3.29508">
        <ele>28</ele>
        <time>2011-08-29T11:34:54Z</time>
      </trkpt>
      <trkpt lat="47.75998" lon="-3.29519">
        <ele>28</ele>
        <time>2011-08-29T11:35:03Z</time>
      </trkpt>
      <trkpt lat="47.75987" lon="-3.29524">
        <ele>28</ele>
        <time>2011-08-29T11:35:06Z</time>
      </trkpt>
      <trkpt lat="47.75981" lon="-3.2953">
        <ele>28</ele>
        <time>2011-08-29T11:35:08Z</time>
      </trkpt>
      <trkpt lat="47.75972" lon="-3.29542">
        <ele>28</ele>
        <time>2011-08-29T11:35:11Z</time>
      </trkpt>
      <trkpt lat="47.75961" lon="-3.29572">
        <ele>28</ele>
        <time>2011-08-29T11:35:17Z</time>
      </trkpt>
      <trkpt lat="47.75956" lon="-3.29579">
        <ele>29</ele>
        <time>2011-08-29T11:35:19Z</time>
      </trkpt>
      <trkpt lat="47.75945" lon="-3.29585">
        <ele>29</ele>
        <time>2011-08-29T11:35:22Z</time>
      </trkpt>
      <trkpt lat="47.75933" lon="-3.29585">
        <ele>29</ele>
        <time>2011-08-29T11:35:25Z</time>
      </trkpt>
      <trkpt lat="47.75913" lon="-3.2958">
        <ele>29</ele>
        <time>2011-08-29T11:35:30Z</time>
      </trkpt>
      <trkpt lat="47.75885" lon="-3.29575">
        <ele>29</ele>
        <time>2011-08-29T11:35:37Z</time>
      </trkpt>
      <trkpt lat="47.7586" lon="-3.29574">
        <ele>30</ele>
        <time>2011-08-29T11:35:43Z</time>
      </trkpt>
      <trkpt lat="47.75839" lon="-3.29576">
        <ele>30</ele>
        <time>2011-08-29T11:35:48Z</time>
      </trkpt>
      <trkpt lat="47.75802" lon="-3.29573">
        <ele>31</ele>
        <time>2011-08-29T11:35:57Z</time>
      </trkpt>
      <trkpt lat="47.75786" lon="-3.29574">
        <ele>31</ele>
        <time>2011-08-29T11:36:01Z</time>
      </trkpt>
      <trkpt lat="47.75763" lon="-3.29579">
        <ele>31</ele>
        <time>2011-08-29T11:36:07Z</time>
      </trkpt>
      <trkpt lat="47.7573" lon="-3.29588">
        <ele>30</ele>
        <time>2011-08-29T11:36:16Z</time>
      </trkpt>
      <trkpt lat="47.75672" lon="-3.29599">
        <ele>29</ele>
        <time>2011-08-29T11:36:28Z</time>
      </trkpt>
      <trkpt lat="47.75637" lon="-3.29608">
        <ele>27</ele>
        <time>2011-08-29T11:36:34Z</time>
      </trkpt>
      <trkpt lat="47.75596" lon="-3.2962">
        <ele>27</ele>
        <time>2011-08-29T11:36:43Z</time>
      </trkpt>
      <trkpt lat="47.75583" lon="-3.29622">
        <ele>27</ele>
        <time>2011-08-29T11:36:46Z</time>
      </trkpt>
      <trkpt lat="47.75545" lon="-3.29615">
        <ele>27</ele>
        <time>2011-08-29T11:36:55Z</time>
      </trkpt>
      <trkpt lat="47.75492" lon="-3.29601">
        <ele>27</ele>
        <time>2011-08-29T11:37:08Z</time>
      </trkpt>
      <trkpt lat="47.75445" lon="-3.29591">
        <ele>27</ele>
        <time>2011-08-29T11:37:19Z</time>
      </trkpt>
      <trkpt lat="47.75421" lon="-3.29588">
        <ele>28</ele>
        <time>2011-08-29T11:37:25Z</time>
      </trkpt>
      <trkpt lat="47.75384" lon="-3.29579">
        <ele>28</ele>
        <time>2011-08-29T11:37:34Z</time>
      </trkpt>
      <trkpt lat="47.75355" lon="-3.29583">
        <ele>27</ele>
        <time>2011-08-29T11:37:41Z</time>
      </trkpt>
      <trkpt lat="47.7533" lon="-3.2959">
        <ele>27</ele>
        <time>2011-08-29T11:37:47Z</time>
      </trkpt>
      <trkpt lat="47.75296" lon="-3.29605">
        <ele>29</ele>
        <time>2011-08-29T11:37:55Z</time>
      </trkpt>
      <trkpt lat="47.7529" lon="-3.29604">
        <ele>29</ele>
        <time>2011-08-29T11:37:57Z</time>
      </trkpt>
      <trkpt lat="47.75284" lon="-3.29599">
        <ele>29</ele>
        <time>2011-08-29T11:37:59Z</time>
      </trkpt>
      <trkpt lat="47.75278" lon="-3.29588">
        <ele>29</ele>
        <time>2011-08-29T11:38:02Z</time>
      </trkpt>
      <trkpt lat="47.75274" lon="-3.29573">
        <ele>29</ele>
        <time>2011-08-29T11:38:05Z</time>
      </trkpt>
      <trkpt lat="47.75268" lon="-3.29501">
        <ele>29</ele>
        <time>2011-08-29T11:38:17Z</time>
      </trkpt>
      <trkpt lat="47.75269" lon="-3.29466">
        <ele>30</ele>
        <time>2011-08-29T11:38:23Z</time>
      </trkpt>
      <trkpt lat="47.75265" lon="-3.29449">
        <ele>30</ele>
        <time>2011-08-29T11:38:26Z</time>
      </trkpt>
      <trkpt lat="47.75256" lon="-3.29431">
        <ele>31</ele>
        <time>2011-08-29T11:38:30Z</time>
      </trkpt>
      <trkpt lat="47.75224" lon="-3.29395">
        <ele>32</ele>
        <time>2011-08-29T11:38:41Z</time>
      </trkpt>
      <trkpt lat="47.75218" lon="-3.29381">
        <ele>33</ele>
        <time>2011-08-29T11:38:44Z</time>
      </trkpt>
      <trkpt lat="47.75219" lon="-3.29339">
        <ele>33</ele>
        <time>2011-08-29T11:38:51Z</time>
      </trkpt>
      <trkpt lat="47.75211" lon="-3.29219">
        <ele>33</ele>
        <time>2011-08-29T11:39:10Z</time>
      </trkpt>
      <trkpt lat="47.75192" lon="-3.29191">
        <ele>33</ele>
        <time>2011-08-29T11:39:18Z</time>
      </trkpt>
      <trkpt lat="47.75187" lon="-3.29166">
        <ele>34</ele>
        <time>2011-08-29T11:39:23Z</time>
      </trkpt>
      <trkpt lat="47.75176" lon="-3.29093">
        <ele>35</ele>
        <time>2011-08-29T11:39:35Z</time>
      </trkpt>
      <trkpt lat="47.7515" lon="-3.29027">
        <ele>35</ele>
        <time>2011-08-29T11:39:49Z</time>
      </trkpt>
      <trkpt lat="47.75147" lon="-3.29025">
        <ele>36</ele>
        <time>2011-08-29T11:39:50Z</time>
      </trkpt>
      <trkpt lat="47.75144" lon="-3.29025">
        <ele>36</ele>
        <time>2011-08-29T11:39:51Z</time>
      </trkpt>
      <trkpt lat="47.75113" lon="-3.29038">
        <ele>36</ele>
        <time>2011-08-29T11:40:01Z</time>
      </trkpt>
      <trkpt lat="47.75096" lon="-3.2905">
        <ele>36</ele>
        <time>2011-08-29T11:40:07Z</time>
      </trkpt>
      <trkpt lat="47.75075" lon="-3.29056">
        <ele>38</ele>
        <time>2011-08-29T11:40:12Z</time>
      </trkpt>
      <trkpt lat="47.75071" lon="-3.29059">
        <ele>39</ele>
        <time>2011-08-29T11:40:13Z</time>
      </trkpt>
      <trkpt lat="47.75063" lon="-3.29072">
        <ele>39</ele>
        <time>2011-08-29T11:40:16Z</time>
      </trkpt>
      <trkpt lat="47.75048" lon="-3.29118">
        <ele>40</ele>
        <time>2011-08-29T11:40:24Z</time>
      </trkpt>
      <trkpt lat="47.75025" lon="-3.29175">
        <ele>39</ele>
        <time>2011-08-29T11:40:34Z</time>
      </trkpt>
      <trkpt lat="47.75017" lon="-3.29191">
        <ele>39</ele>
        <time>2011-08-29T11:40:37Z</time>
      </trkpt>
      <trkpt lat="47.7501" lon="-3.29201">
        <ele>39</ele>
        <time>2011-08-29T11:40:39Z</time>
      </trkpt>
      <trkpt lat="47.7497" lon="-3.29244">
        <ele>38</ele>
        <time>2011-08-29T11:40:50Z</time>
      </trkpt>
      <trkpt lat="47.74954" lon="-3.29258">
        <ele>36</ele>
        <time>2011-08-29T11:40:54Z</time>
      </trkpt>
      <trkpt lat="47.74938" lon="-3.29267">
        <ele>36</ele>
        <time>2011-08-29T11:40:58Z</time>
      </trkpt>
      <trkpt lat="47.74894" lon="-3.29282">
        <ele>34</ele>
        <time>2011-08-29T11:41:08Z</time>
      </trkpt>
      <trkpt lat="47.74873" lon="-3.29299">
        <ele>34</ele>
        <time>2011-08-29T11:41:13Z</time>
      </trkpt>
      <trkpt lat="47.74856" lon="-3.29321">
        <ele>33</ele>
        <time>2011-08-29T11:41:18Z</time>
      </trkpt>
      <trkpt lat="47.74838" lon="-3.2935">
        <ele>33</ele>
        <time>2011-08-29T11:41:24Z</time>
      </trkpt>
      <trkpt lat="47.74817" lon="-3.29394">
        <ele>33</ele>
        <time>2011-08-29T11:41:31Z</time>
      </trkpt>
      <trkpt lat="47.74768" lon="-3.29515">
        <ele>33</ele>
        <time>2011-08-29T11:41:48Z</time>
      </trkpt>
      <trkpt lat="47.7472" lon="-3.29627">
        <ele>28</ele>
        <time>2011-08-29T11:42:04Z</time>
      </trkpt>
      <trkpt lat="47.74707" lon="-3.29652">
        <ele>28</ele>
        <time>2011-08-29T11:42:08Z</time>
      </trkpt>
      <trkpt lat="47.74699" lon="-3.29664">
        <ele>28</ele>
        <time>2011-08-29T11:42:10Z</time>
      </trkpt>
      <trkpt lat="47.74688" lon="-3.29672">
        <ele>25</ele>
        <time>2011-08-29T11:42:12Z</time>
      </trkpt>
      <trkpt lat="47.74682" lon="-3.29674">
        <ele>25</ele>
        <time>2011-08-29T11:42:13Z</time>
      </trkpt>
      <trkpt lat="47.74677" lon="-3.29674">
        <ele>25</ele>
        <time>2011-08-29T11:42:14Z</time>
      </trkpt>
      <trkpt lat="47.74671" lon="-3.29673">
        <ele>26</ele>
        <time>2011-08-29T11:42:15Z</time>
      </trkpt>
      <trkpt lat="47.74653" lon="-3.29664">
        <ele>27</ele>
        <time>2011-08-29T11:42:19Z</time>
      </trkpt>
      <trkpt lat="47.74593" lon="-3.29621">
        <ele>30</ele>
        <time>2011-08-29T11:42:34Z</time>
      </trkpt>
      <trkpt lat="47.7455" lon="-3.29593">
        <ele>32</ele>
        <time>2011-08-29T11:42:45Z</time>
      </trkpt>
      <trkpt lat="47.74522" lon="-3.29576">
        <ele>34</ele>
        <time>2011-08-29T11:42:52Z</time>
      </trkpt>
      <trkpt lat="47.74505" lon="-3.29568">
        <ele>34</ele>
        <time>2011-08-29T11:42:56Z</time>
      </trkpt>
      <trkpt lat="47.74501" lon="-3.29568">
        <ele>34</ele>
        <time>2011-08-29T11:42:57Z</time>
      </trkpt>
      <trkpt lat="47.74488" lon="-3.2957">
        <ele>35</ele>
        <time>2011-08-29T11:43:00Z</time>
      </trkpt>
      <trkpt lat="47.74442" lon="-3.29588">
        <ele>36</ele>
        <time>2011-08-29T11:43:11Z</time>
      </trkpt>
      <trkpt lat="47.74434" lon="-3.29589">
        <ele>36</ele>
        <time>2011-08-29T11:43:13Z</time>
      </trkpt>
      <trkpt lat="47.74392" lon="-3.29587">
        <ele>37</ele>
        <time>2011-08-29T11:43:23Z</time>
      </trkpt>
      <trkpt lat="47.74355" lon="-3.29578">
        <ele>38</ele>
        <time>2011-08-29T11:43:32Z</time>
      </trkpt>
      <trkpt lat="47.74301" lon="-3.29557">
        <ele>38</ele>
        <time>2011-08-29T11:43:44Z</time>
      </trkpt>
      <trkpt lat="47.74271" lon="-3.29542">
        <ele>38</ele>
        <time>2011-08-29T11:43:51Z</time>
      </trkpt>
      <trkpt lat="47.74244" lon="-3.29533">
        <ele>38</ele>
        <time>2011-08-29T11:43:57Z</time>
      </trkpt>
      <trkpt lat="47.74221" lon="-3.29524">
        <ele>38</ele>
        <time>2011-08-29T11:44:02Z</time>
      </trkpt>
      <trkpt lat="47.74207" lon="-3.2952">
        <ele>38</ele>
        <time>2011-08-29T11:44:05Z</time>
      </trkpt>
      <trkpt lat="47.74199" lon="-3.2952">
        <ele>38</ele>
        <time>2011-08-29T11:44:07Z</time>
      </trkpt>
      <trkpt lat="47.74177" lon="-3.29521">
        <ele>38</ele>
        <time>2011-08-29T11:44:12Z</time>
      </trkpt>
      <trkpt lat="47.74126" lon="-3.29531">
        <ele>37</ele>
        <time>2011-08-29T11:44:23Z</time>
      </trkpt>
      <trkpt lat="47.74089" lon="-3.29537">
        <ele>37</ele>
        <time>2011-08-29T11:44:31Z</time>
      </trkpt>
      <trkpt lat="47.74022" lon="-3.29553">
        <ele>35</ele>
        <time>2011-08-29T11:44:45Z</time>
      </trkpt>
      <trkpt lat="47.73992" lon="-3.29555">
        <ele>34</ele>
        <time>2011-08-29T11:44:51Z</time>
      </trkpt>
      <trkpt lat="47.73982" lon="-3.29553">
        <ele>34</ele>
        <time>2011-08-29T11:44:54Z</time>
      </trkpt>
      <trkpt lat="47.73958" lon="-3.29537">
        <ele>34</ele>
        <time>2011-08-29T11:45:00Z</time>
      </trkpt>
      <trkpt lat="47.73934" lon="-3.29523">
        <ele>34</ele>
        <time>2011-08-29T11:45:05Z</time>
      </trkpt>
      <trkpt lat="47.73923" lon="-3.29517">
        <ele>34</ele>
        <time>2011-08-29T11:45:07Z</time>
      </trkpt>
      <trkpt lat="47.73912" lon="-3.29513">
        <ele>34</ele>
        <time>2011-08-29T11:45:09Z</time>
      </trkpt>
      <trkpt lat="47.73888" lon="-3.29515">
        <ele>34</ele>
        <time>2011-08-29T11:45:13Z</time>
      </trkpt>
      <trkpt lat="47.73872" lon="-3.2952">
        <ele>33</ele>
        <time>2011-08-29T11:45:16Z</time>
      </trkpt>
      <trkpt lat="47.73857" lon="-3.29527">
        <ele>33</ele>
        <time>2011-08-29T11:45:19Z</time>
      </trkpt>
      <trkpt lat="47.73811" lon="-3.29553">
        <ele>32</ele>
        <time>2011-08-29T11:45:29Z</time>
      </trkpt>
      <trkpt lat="47.7378" lon="-3.29563">
        <ele>32</ele>
        <time>2011-08-29T11:45:35Z</time>
      </trkpt>
      <trkpt lat="47.73754" lon="-3.29568">
        <ele>32</ele>
        <time>2011-08-29T11:45:40Z</time>
      </trkpt>
      <trkpt lat="47.73733" lon="-3.2957">
        <ele>31</ele>
        <time>2011-08-29T11:45:44Z</time>
      </trkpt>
      <trkpt lat="47.73716" lon="-3.2957">
        <ele>31</ele>
        <time>2011-08-29T11:45:47Z</time>
      </trkpt>
      <trkpt lat="47.73685" lon="-3.29566">
        <ele>32</ele>
        <time>2011-08-29T11:45:53Z</time>
      </trkpt>
      <trkpt lat="47.7366" lon="-3.29568">
        <ele>31</ele>
        <time>2011-08-29T11:45:58Z</time>
      </trkpt>
      <trkpt lat="47.73589" lon="-3.29587">
        <ele>31</ele>
        <time>2011-08-29T11:46:12Z</time>
      </trkpt>
      <trkpt lat="47.73496" lon="-3.29609">
        <ele>31</ele>
        <time>2011-08-29T11:46:31Z</time>
      </trkpt>
      <trkpt lat="47.73465" lon="-3.29609">
        <ele>31</ele>
        <time>2011-08-29T11:46:38Z</time>
      </trkpt>
      <trkpt lat="47.73448" lon="-3.29607">
        <ele>30</ele>
        <time>2011-08-29T11:46:42Z</time>
      </trkpt>
      <trkpt lat="47.73429" lon="-3.296">
        <ele>30</ele>
        <time>2011-08-29T11:46:46Z</time>
      </trkpt>
      <trkpt lat="47.73389" lon="-3.29578">
        <ele>27</ele>
        <time>2011-08-29T11:46:54Z</time>
      </trkpt>
      <trkpt lat="47.73373" lon="-3.29573">
        <ele>27</ele>
        <time>2011-08-29T11:46:57Z</time>
      </trkpt>
      <trkpt lat="47.73357" lon="-3.2957">
        <ele>27</ele>
        <time>2011-08-29T11:47:00Z</time>
      </trkpt>
      <trkpt lat="47.7333" lon="-3.29571">
        <ele>27</ele>
        <time>2011-08-29T11:47:05Z</time>
      </trkpt>
      <trkpt lat="47.73276" lon="-3.29586">
        <ele>28</ele>
        <time>2011-08-29T11:47:15Z</time>
      </trkpt>
      <trkpt lat="47.7326" lon="-3.29588">
        <ele>28</ele>
        <time>2011-08-29T11:47:18Z</time>
      </trkpt>
      <trkpt lat="47.73243" lon="-3.29589">
        <ele>28</ele>
        <time>2011-08-29T11:47:21Z</time>
      </trkpt>
      <trkpt lat="47.73207" lon="-3.29585">
        <ele>26</ele>
        <time>2011-08-29T11:47:27Z</time>
      </trkpt>
      <trkpt lat="47.73194" lon="-3.29586">
        <ele>26</ele>
        <time>2011-08-29T11:47:29Z</time>
      </trkpt>
      <trkpt lat="47.73181" lon="-3.2959">
        <ele>25</ele>
        <time>2011-08-29T11:47:31Z</time>
      </trkpt>
      <trkpt lat="47.73169" lon="-3.29595">
        <ele>25</ele>
        <time>2011-08-29T11:47:33Z</time>
      </trkpt>
      <trkpt lat="47.73117" lon="-3.29623">
        <ele>24</ele>
        <time>2011-08-29T11:47:42Z</time>
      </trkpt>
      <trkpt lat="47.73106" lon="-3.29626">
        <ele>24</ele>
        <time>2011-08-29T11:47:44Z</time>
      </trkpt>
      <trkpt lat="47.73067" lon="-3.29631">
        <ele>23</ele>
        <time>2011-08-29T11:47:51Z</time>
      </trkpt>
      <trkpt lat="47.73056" lon="-3.29635">
        <ele>23</ele>
        <time>2011-08-29T11:47:53Z</time>
      </trkpt>
      <trkpt lat="47.73051" lon="-3.29639">
        <ele>23</ele>
        <time>2011-08-29T11:47:54Z</time>
      </trkpt>
      <trkpt lat="47.73042" lon="-3.29648">
        <ele>23</ele>
        <time>2011-08-29T11:47:56Z</time>
      </trkpt>
      <trkpt lat="47.73008" lon="-3.29685">
        <ele>22</ele>
        <time>2011-08-29T11:48:04Z</time>
      </trkpt>
      <trkpt lat="47.72985" lon="-3.29704">
        <ele>22</ele>
        <time>2011-08-29T11:48:09Z</time>
      </trkpt>
      <trkpt lat="47.72966" lon="-3.29716">
        <ele>22</ele>
        <time>2011-08-29T11:48:13Z</time>
      </trkpt>
      <trkpt lat="47.7292" lon="-3.29733">
        <ele>22</ele>
        <time>2011-08-29T11:48:22Z</time>
      </trkpt>
      <trkpt lat="47.72905" lon="-3.29732">
        <ele>22</ele>
        <time>2011-08-29T11:48:25Z</time>
      </trkpt>
      <trkpt lat="47.72865" lon="-3.29704">
        <ele>23</ele>
        <time>2011-08-29T11:48:34Z</time>
      </trkpt>
      <trkpt lat="47.72807" lon="-3.2968">
        <ele>24</ele>
        <time>2011-08-29T11:48:46Z</time>
      </trkpt>
      <trkpt lat="47.72794" lon="-3.29672">
        <ele>24</ele>
        <time>2011-08-29T11:48:49Z</time>
      </trkpt>
      <trkpt lat="47.72773" lon="-3.29656">
        <ele>25</ele>
        <time>2011-08-29T11:48:54Z</time>
      </trkpt>
      <trkpt lat="47.72755" lon="-3.29645">
        <ele>25</ele>
        <time>2011-08-29T11:48:58Z</time>
      </trkpt>
      <trkpt lat="47.72741" lon="-3.2964">
        <ele>25</ele>
        <time>2011-08-29T11:49:01Z</time>
      </trkpt>
      <trkpt lat="47.72721" lon="-3.29635">
        <ele>25</ele>
        <time>2011-08-29T11:49:05Z</time>
      </trkpt>
      <trkpt lat="47.72659" lon="-3.2963">
        <ele>24</ele>
        <time>2011-08-29T11:49:16Z</time>
      </trkpt>
      <trkpt lat="47.72644" lon="-3.29631">
        <ele>24</ele>
        <time>2011-08-29T11:49:18Z</time>
      </trkpt>
      <trkpt lat="47.7261" lon="-3.29638">
        <ele>23</ele>
        <time>2011-08-29T11:49:23Z</time>
      </trkpt>
      <trkpt lat="47.72591" lon="-3.29638">
        <ele>22</ele>
        <time>2011-08-29T11:49:26Z</time>
      </trkpt>
      <trkpt lat="47.72578" lon="-3.29636">
        <ele>21</ele>
        <time>2011-08-29T11:49:28Z</time>
      </trkpt>
      <trkpt lat="47.72537" lon="-3.29621">
        <ele>20</ele>
        <time>2011-08-29T11:49:35Z</time>
      </trkpt>
      <trkpt lat="47.72514" lon="-3.29619">
        <ele>20</ele>
        <time>2011-08-29T11:49:39Z</time>
      </trkpt>
      <trkpt lat="47.72475" lon="-3.29621">
        <ele>20</ele>
        <time>2011-08-29T11:49:46Z</time>
      </trkpt>
      <trkpt lat="47.72437" lon="-3.29627">
        <ele>20</ele>
        <time>2011-08-29T11:49:53Z</time>
      </trkpt>
      <trkpt lat="47.72372" lon="-3.29632">
        <ele>20</ele>
        <time>2011-08-29T11:50:05Z</time>
      </trkpt>
      <trkpt lat="47.72334" lon="-3.29633">
        <ele>20</ele>
        <time>2011-08-29T11:50:12Z</time>
      </trkpt>
      <trkpt lat="47.72312" lon="-3.29629">
        <ele>19</ele>
        <time>2011-08-29T11:50:16Z</time>
      </trkpt>
      <trkpt lat="47.72276" lon="-3.29617">
        <ele>19</ele>
        <time>2011-08-29T11:50:23Z</time>
      </trkpt>
      <trkpt lat="47.7225" lon="-3.29607">
        <ele>19</ele>
        <time>2011-08-29T11:50:28Z</time>
      </trkpt>
      <trkpt lat="47.72223" lon="-3.29601">
        <ele>19</ele>
        <time>2011-08-29T11:50:33Z</time>
      </trkpt>
      <trkpt lat="47.72212" lon="-3.29602">
        <ele>19</ele>
        <time>2011-08-29T11:50:35Z</time>
      </trkpt>
      <trkpt lat="47.72201" lon="-3.29604">
        <ele>18</ele>
        <time>2011-08-29T11:50:37Z</time>
      </trkpt>
      <trkpt lat="47.72165" lon="-3.29618">
        <ele>18</ele>
        <time>2011-08-29T11:50:44Z</time>
      </trkpt>
      <trkpt lat="47.7215" lon="-3.29622">
        <ele>18</ele>
        <time>2011-08-29T11:50:47Z</time>
      </trkpt>
      <trkpt lat="47.72092" lon="-3.29629">
        <ele>18</ele>
        <time>2011-08-29T11:50:57Z</time>
      </trkpt>
      <trkpt lat="47.72058" lon="-3.29639">
        <ele>17</ele>
        <time>2011-08-29T11:51:02Z</time>
      </trkpt>
      <trkpt lat="47.72039" lon="-3.29647">
        <ele>16</ele>
        <time>2011-08-29T11:51:05Z</time>
      </trkpt>
      <trkpt lat="47.72021" lon="-3.29657">
        <ele>16</ele>
        <time>2011-08-29T11:51:08Z</time>
      </trkpt>
      <trkpt lat="47.72004" lon="-3.2967">
        <ele>15</ele>
        <time>2011-08-29T11:51:11Z</time>
      </trkpt>
      <trkpt lat="47.71994" lon="-3.29681">
        <ele>14</ele>
        <time>2011-08-29T11:51:13Z</time>
      </trkpt>
      <trkpt lat="47.71981" lon="-3.29701">
        <ele>14</ele>
        <time>2011-08-29T11:51:16Z</time>
      </trkpt>
      <trkpt lat="47.71967" lon="-3.2973">
        <ele>14</ele>
        <time>2011-08-29T11:51:20Z</time>
      </trkpt>
      <trkpt lat="47.71936" lon="-3.29812">
        <ele>14</ele>
        <time>2011-08-29T11:51:32Z</time>
      </trkpt>
      <trkpt lat="47.71918" lon="-3.29851">
        <ele>14</ele>
        <time>2011-08-29T11:51:38Z</time>
      </trkpt>
      <trkpt lat="47.71904" lon="-3.29873">
        <ele>16</ele>
        <time>2011-08-29T11:51:42Z</time>
      </trkpt>
      <trkpt lat="47.71888" lon="-3.29892">
        <ele>16</ele>
        <time>2011-08-29T11:51:46Z</time>
      </trkpt>
      <trkpt lat="47.71873" lon="-3.29913">
        <ele>16</ele>
        <time>2011-08-29T11:51:50Z</time>
      </trkpt>
      <trkpt lat="47.71846" lon="-3.2996">
        <ele>18</ele>
        <time>2011-08-29T11:51:58Z</time>
      </trkpt>
      <trkpt lat="47.71834" lon="-3.29974">
        <ele>18</ele>
        <time>2011-08-29T11:52:01Z</time>
      </trkpt>
      <trkpt lat="47.71806" lon="-3.29995">
        <ele>19</ele>
        <time>2011-08-29T11:52:07Z</time>
      </trkpt>
      <trkpt lat="47.7177" lon="-3.30028">
        <ele>18</ele>
        <time>2011-08-29T11:52:16Z</time>
      </trkpt>
      <trkpt lat="47.71722" lon="-3.30077">
        <ele>17</ele>
        <time>2011-08-29T11:52:28Z</time>
      </trkpt>
      <trkpt lat="47.71696" lon="-3.30107">
        <ele>17</ele>
        <time>2011-08-29T11:52:34Z</time>
      </trkpt>
      <trkpt lat="47.71679" lon="-3.30132">
        <ele>16</ele>
        <time>2011-08-29T11:52:38Z</time>
      </trkpt>
      <trkpt lat="47.71613" lon="-3.30238">
        <ele>13</ele>
        <time>2011-08-29T11:52:52Z</time>
      </trkpt>
      <trkpt lat="47.71599" lon="-3.30258">
        <ele>12</ele>
        <time>2011-08-29T11:52:57Z</time>
      </trkpt>
      <trkpt lat="47.7159" lon="-3.30286">
        <ele>12</ele>
        <time>2011-08-29T11:53:01Z</time>
      </trkpt>
      <trkpt lat="47.71581" lon="-3.30297">
        <ele>10</ele>
        <time>2011-08-29T11:53:03Z</time>
      </trkpt>
      <trkpt lat="47.71562" lon="-3.30318">
        <ele>10</ele>
        <time>2011-08-29T11:53:07Z</time>
      </trkpt>
      <trkpt lat="47.71538" lon="-3.30347">
        <ele>9</ele>
        <time>2011-08-29T11:53:12Z</time>
      </trkpt>
      <trkpt lat="47.71451" lon="-3.30468">
        <ele>6</ele>
        <time>2011-08-29T11:53:33Z</time>
      </trkpt>
      <trkpt lat="47.71432" lon="-3.30498">
        <ele>6</ele>
        <time>2011-08-29T11:53:38Z</time>
      </trkpt>
      <trkpt lat="47.71423" lon="-3.30517">
        <ele>6</ele>
        <time>2011-08-29T11:53:41Z</time>
      </trkpt>
      <trkpt lat="47.71398" lon="-3.30575">
        <ele>5</ele>
        <time>2011-08-29T11:53:50Z</time>
      </trkpt>
      <trkpt lat="47.71386" lon="-3.306">
        <ele>5</ele>
        <time>2011-08-29T11:53:54Z</time>
      </trkpt>
      <trkpt lat="47.71348" lon="-3.3066">
        <ele>5</ele>
        <time>2011-08-29T11:54:05Z</time>
      </trkpt>
      <trkpt lat="47.71338" lon="-3.30683">
        <ele>4</ele>
        <time>2011-08-29T11:54:10Z</time>
      </trkpt>
      <trkpt lat="47.7131" lon="-3.30733">
        <ele>4</ele>
        <time>2011-08-29T11:54:19Z</time>
      </trkpt>
      <trkpt lat="47.713" lon="-3.30761">
        <ele>4</ele>
        <time>2011-08-29T11:54:23Z</time>
      </trkpt>
      <trkpt lat="47.71292" lon="-3.30806">
        <ele>4</ele>
        <time>2011-08-29T11:54:29Z</time>
      </trkpt>
      <trkpt lat="47.71286" lon="-3.30827">
        <ele>4</ele>
        <time>2011-08-29T11:54:32Z</time>
      </trkpt>
      <trkpt lat="47.71273" lon="-3.30859">
        <ele>4</ele>
        <time>2011-08-29T11:54:37Z</time>
      </trkpt>
      <trkpt lat="47.71259" lon="-3.30883">
        <ele>4</ele>
        <time>2011-08-29T11:54:41Z</time>
      </trkpt>
      <trkpt lat="47.71224" lon="-3.30928">
        <ele>4</ele>
        <time>2011-08-29T11:54:50Z</time>
      </trkpt>
      <trkpt lat="47.71201" lon="-3.30957">
        <ele>4</ele>
        <time>2011-08-29T11:54:56Z</time>
      </trkpt>
      <trkpt lat="47.71187" lon="-3.30979">
        <ele>4</ele>
        <time>2011-08-29T11:55:02Z</time>
      </trkpt>
      <trkpt lat="47.71184" lon="-3.30982">
        <ele>4</ele>
        <time>2011-08-29T11:55:03Z</time>
      </trkpt>
      <trkpt lat="47.71153" lon="-3.30985">
        <ele>4</ele>
        <time>2011-08-29T11:55:10Z</time>
      </trkpt>
      <trkpt lat="47.71119" lon="-3.30995">
        <ele>5</ele>
        <time>2011-08-29T11:55:17Z</time>
      </trkpt>
      <trkpt lat="47.71105" lon="-3.30998">
        <ele>5</ele>
        <time>2011-08-29T11:55:20Z</time>
      </trkpt>
      <trkpt lat="47.71091" lon="-3.31003">
        <ele>6</ele>
        <time>2011-08-29T11:55:23Z</time>
      </trkpt>
      <trkpt lat="47.71065" lon="-3.31016">
        <ele>6</ele>
        <time>2011-08-29T11:55:29Z</time>
      </trkpt>
      <trkpt lat="47.71037" lon="-3.31025">
        <ele>5</ele>
        <time>2011-08-29T11:55:36Z</time>
      </trkpt>
      <trkpt lat="47.71035" lon="-3.31028">
        <ele>5</ele>
        <time>2011-08-29T11:55:37Z</time>
      </trkpt>
      <trkpt lat="47.71032" lon="-3.31057">
        <ele>5</ele>
        <time>2011-08-29T11:55:42Z</time>
      </trkpt>
      <trkpt lat="47.7103" lon="-3.31119">
        <ele>6</ele>
        <time>2011-08-29T11:55:51Z</time>
      </trkpt>
      <trkpt lat="47.71023" lon="-3.31177">
        <ele>6</ele>
        <time>2011-08-29T11:55:59Z</time>
      </trkpt>
      <trkpt lat="47.71021" lon="-3.31234">
        <ele>6</ele>
        <time>2011-08-29T11:56:07Z</time>
      </trkpt>
      <trkpt lat="47.71021" lon="-3.31271">
        <ele>5</ele>
        <time>2011-08-29T11:56:12Z</time>
      </trkpt>
      <trkpt lat="47.71027" lon="-3.31329">
        <ele>5</ele>
        <time>2011-08-29T11:56:20Z</time>
      </trkpt>
      <trkpt lat="47.71027" lon="-3.31357">
        <ele>6</ele>
        <time>2011-08-29T11:56:24Z</time>
      </trkpt>
      <trkpt lat="47.71018" lon="-3.31416">
        <ele>6</ele>
        <time>2011-08-29T11:56:32Z</time>
      </trkpt>
      <trkpt lat="47.71" lon="-3.31514">
        <ele>7</ele>
        <time>2011-08-29T11:56:46Z</time>
      </trkpt>
      <trkpt lat="47.70993" lon="-3.31629">
        <ele>8</ele>
        <time>2011-08-29T11:57:02Z</time>
      </trkpt>
      <trkpt lat="47.70991" lon="-3.31643">
        <ele>8</ele>
        <time>2011-08-29T11:57:04Z</time>
      </trkpt>
      <trkpt lat="47.70986" lon="-3.31663">
        <ele>8</ele>
        <time>2011-08-29T11:57:07Z</time>
      </trkpt>
      <trkpt lat="47.70981" lon="-3.31675">
        <ele>8</ele>
        <time>2011-08-29T11:57:09Z</time>
      </trkpt>
      <trkpt lat="47.70913" lon="-3.31804">
        <ele>10</ele>
        <time>2011-08-29T11:57:32Z</time>
      </trkpt>
      <trkpt lat="47.70899" lon="-3.31841">
        <ele>9</ele>
        <time>2011-08-29T11:57:38Z</time>
      </trkpt>
      <trkpt lat="47.70887" lon="-3.31882">
        <ele>9</ele>
        <time>2011-08-29T11:57:44Z</time>
      </trkpt>
      <trkpt lat="47.70867" lon="-3.31974">
        <ele>9</ele>
        <time>2011-08-29T11:57:57Z</time>
      </trkpt>
      <trkpt lat="47.70835" lon="-3.32104">
        <ele>10</ele>
        <time>2011-08-29T11:58:16Z</time>
      </trkpt>
      <trkpt lat="47.70828" lon="-3.32139">
        <ele>10</ele>
        <time>2011-08-29T11:58:21Z</time>
      </trkpt>
      <trkpt lat="47.70826" lon="-3.32161">
        <ele>10</ele>
        <time>2011-08-29T11:58:24Z</time>
      </trkpt>
      <trkpt lat="47.70828" lon="-3.32199">
        <ele>10</ele>
        <time>2011-08-29T11:58:29Z</time>
      </trkpt>
      <trkpt lat="47.70867" lon="-3.32429">
        <ele>8</ele>
        <time>2011-08-29T11:59:01Z</time>
      </trkpt>
      <trkpt lat="47.70876" lon="-3.32575">
        <ele>3</ele>
        <time>2011-08-29T11:59:20Z</time>
      </trkpt>
      <trkpt lat="47.70879" lon="-3.32607">
        <ele>2</ele>
        <time>2011-08-29T11:59:27Z</time>
      </trkpt>
      <trkpt lat="47.7089" lon="-3.32673">
        <ele>3</ele>
        <time>2011-08-29T11:59:37Z</time>
      </trkpt>
      <trkpt lat="47.70898" lon="-3.32708">
        <ele>4</ele>
        <time>2011-08-29T11:59:43Z</time>
      </trkpt>
      <trkpt lat="47.70911" lon="-3.32733">
        <ele>5</ele>
        <time>2011-08-29T11:59:48Z</time>
      </trkpt>
      <trkpt lat="47.70919" lon="-3.32758">
        <ele>6</ele>
        <time>2011-08-29T11:59:52Z</time>
      </trkpt>
      <trkpt lat="47.70939" lon="-3.3281">
        <ele>7</ele>
        <time>2011-08-29T12:00:00Z</time>
      </trkpt>
      <trkpt lat="47.70944" lon="-3.3283">
        <ele>7</ele>
        <time>2011-08-29T12:00:03Z</time>
      </trkpt>
      <trkpt lat="47.70958" lon="-3.32937">
        <ele>8</ele>
        <time>2011-08-29T12:00:18Z</time>
      </trkpt>
      <trkpt lat="47.70965" lon="-3.32977">
        <ele>8</ele>
        <time>2011-08-29T12:00:24Z</time>
      </trkpt>
      <trkpt lat="47.7097" lon="-3.32986">
        <ele>8</ele>
        <time>2011-08-29T12:00:27Z</time>
      </trkpt>
      <trkpt lat="47.70977" lon="-3.32988">
        <ele>7</ele>
        <time>2011-08-29T12:00:30Z</time>
      </trkpt>
      <trkpt lat="47.70979" lon="-3.32992">
        <ele>7</ele>
        <time>2011-08-29T12:00:31Z</time>
      </trkpt>
      <trkpt lat="47.70981" lon="-3.33001">
        <ele>7</ele>
        <time>2011-08-29T12:00:33Z</time>
      </trkpt>
      <trkpt lat="47.70977" lon="-3.33052">
        <ele>7</ele>
        <time>2011-08-29T12:00:41Z</time>
      </trkpt>
      <trkpt lat="47.70975" lon="-3.33138">
        <ele>6</ele>
        <time>2011-08-29T12:00:53Z</time>
      </trkpt>
      <trkpt lat="47.70977" lon="-3.33151">
        <ele>6</ele>
        <time>2011-08-29T12:00:55Z</time>
      </trkpt>
      <trkpt lat="47.70983" lon="-3.33169">
        <ele>5</ele>
        <time>2011-08-29T12:00:58Z</time>
      </trkpt>
      <trkpt lat="47.70983" lon="-3.33175">
        <ele>5</ele>
        <time>2011-08-29T12:00:59Z</time>
      </trkpt>
      <trkpt lat="47.70975" lon="-3.33195">
        <ele>5</ele>
        <time>2011-08-29T12:01:03Z</time>
      </trkpt>
      <trkpt lat="47.70975" lon="-3.33207">
        <ele>5</ele>
        <time>2011-08-29T12:01:06Z</time>
      </trkpt>
      <trkpt lat="47.70969" lon="-3.33239">
        <ele>6</ele>
        <time>2011-08-29T12:01:54Z</time>
      </trkpt>
      <trkpt lat="47.70964" lon="-3.33369">
        <ele>7</ele>
        <time>2011-08-29T12:02:12Z</time>
      </trkpt>
      <trkpt lat="47.70957" lon="-3.33488">
        <ele>7</ele>
        <time>2011-08-29T12:02:29Z</time>
      </trkpt>
      <trkpt lat="47.70948" lon="-3.3356">
        <ele>9</ele>
        <time>2011-08-29T12:02:39Z</time>
      </trkpt>
      <trkpt lat="47.70897" lon="-3.33881">
        <ele>7</ele>
        <time>2011-08-29T12:03:27Z</time>
      </trkpt>
      <trkpt lat="47.70893" lon="-3.33917">
        <ele>6</ele>
        <time>2011-08-29T12:03:32Z</time>
      </trkpt>
      <trkpt lat="47.70898" lon="-3.3411">
        <ele>6</ele>
        <time>2011-08-29T12:03:59Z</time>
      </trkpt>
      <trkpt lat="47.70896" lon="-3.34139">
        <ele>7</ele>
        <time>2011-08-29T12:04:03Z</time>
      </trkpt>
      <trkpt lat="47.70887" lon="-3.34208">
        <ele>7</ele>
        <time>2011-08-29T12:04:13Z</time>
      </trkpt>
      <trkpt lat="47.70886" lon="-3.34229">
        <ele>7</ele>
        <time>2011-08-29T12:04:16Z</time>
      </trkpt>
      <trkpt lat="47.70888" lon="-3.34249">
        <ele>7</ele>
        <time>2011-08-29T12:04:19Z</time>
      </trkpt>
      <trkpt lat="47.70892" lon="-3.34262">
        <ele>6</ele>
        <time>2011-08-29T12:04:21Z</time>
      </trkpt>
      <trkpt lat="47.70892" lon="-3.34276">
        <ele>6</ele>
        <time>2011-08-29T12:04:23Z</time>
      </trkpt>
      <trkpt lat="47.70888" lon="-3.34288">
        <ele>6</ele>
        <time>2011-08-29T12:04:25Z</time>
      </trkpt>
      <trkpt lat="47.7087" lon="-3.34324">
        <ele>5</ele>
        <time>2011-08-29T12:04:31Z</time>
      </trkpt>
      <trkpt lat="47.70867" lon="-3.34337">
        <ele>5</ele>
        <time>2011-08-29T12:04:33Z</time>
      </trkpt>
      <trkpt lat="47.70861" lon="-3.34365">
        <ele>5</ele>
        <time>2011-08-29T12:04:37Z</time>
      </trkpt>
      <trkpt lat="47.70852" lon="-3.34509">
        <ele>6</ele>
        <time>2011-08-29T12:04:57Z</time>
      </trkpt>
      <trkpt lat="47.70848" lon="-3.34595">
        <ele>7</ele>
        <time>2011-08-29T12:05:09Z</time>
      </trkpt>
      <trkpt lat="47.70848" lon="-3.34602">
        <ele>7</ele>
        <time>2011-08-29T12:05:10Z</time>
      </trkpt>
      <trkpt lat="47.70844" lon="-3.34611">
        <ele>6</ele>
        <time>2011-08-29T12:05:12Z</time>
      </trkpt>
      <trkpt lat="47.70838" lon="-3.34619">
        <ele>6</ele>
        <time>2011-08-29T12:05:15Z</time>
      </trkpt>
      <trkpt lat="47.70825" lon="-3.34632">
        <ele>7</ele>
        <time>2011-08-29T12:05:24Z</time>
      </trkpt>
      <trkpt lat="47.70803" lon="-3.34651">
        <ele>7</ele>
        <time>2011-08-29T12:05:30Z</time>
      </trkpt>
      <trkpt lat="47.70795" lon="-3.34657">
        <ele>7</ele>
        <time>2011-08-29T12:05:32Z</time>
      </trkpt>
      <trkpt lat="47.70791" lon="-3.34656">
        <ele>7</ele>
        <time>2011-08-29T12:05:33Z</time>
      </trkpt>
      <trkpt lat="47.70782" lon="-3.34652">
        <ele>7</ele>
        <time>2011-08-29T12:05:35Z</time>
      </trkpt>
      <trkpt lat="47.7077" lon="-3.34641">
        <ele>7</ele>
        <time>2011-08-29T12:05:38Z</time>
      </trkpt>
      <trkpt lat="47.70755" lon="-3.34623">
        <ele>7</ele>
        <time>2011-08-29T12:05:42Z</time>
      </trkpt>
      <trkpt lat="47.70741" lon="-3.34602">
        <ele>7</ele>
        <time>2011-08-29T12:05:46Z</time>
      </trkpt>
      <trkpt lat="47.70737" lon="-3.34598">
        <ele>7</ele>
        <time>2011-08-29T12:05:47Z</time>
      </trkpt>
      <trkpt lat="47.70732" lon="-3.34597">
        <ele>7</ele>
        <time>2011-08-29T12:05:48Z</time>
      </trkpt>
      <trkpt lat="47.70728" lon="-3.34598">
        <ele>7</ele>
        <time>2011-08-29T12:05:49Z</time>
      </trkpt>
      <trkpt lat="47.70712" lon="-3.3461">
        <ele>7</ele>
        <time>2011-08-29T12:05:53Z</time>
      </trkpt>
      <trkpt lat="47.70694" lon="-3.34632">
        <ele>8</ele>
        <time>2011-08-29T12:05:59Z</time>
      </trkpt>
      <trkpt lat="47.70668" lon="-3.3468">
        <ele>8</ele>
        <time>2011-08-29T12:06:09Z</time>
      </trkpt>
      <trkpt lat="47.70633" lon="-3.3472">
        <ele>6</ele>
        <time>2011-08-29T12:06:18Z</time>
      </trkpt>
      <trkpt lat="47.70612" lon="-3.34748">
        <ele>6</ele>
        <time>2011-08-29T12:06:24Z</time>
      </trkpt>
      <trkpt lat="47.70595" lon="-3.34786">
        <ele>6</ele>
        <time>2011-08-29T12:06:31Z</time>
      </trkpt>
      <trkpt lat="47.70577" lon="-3.34833">
        <ele>6</ele>
        <time>2011-08-29T12:06:40Z</time>
      </trkpt>
      <trkpt lat="47.70551" lon="-3.34894">
        <ele>6</ele>
        <time>2011-08-29T12:06:51Z</time>
      </trkpt>
      <trkpt lat="47.7055" lon="-3.34899">
        <ele>6</ele>
        <time>2011-08-29T12:06:52Z</time>
      </trkpt>
      <trkpt lat="47.70564" lon="-3.34959">
        <ele>8</ele>
        <time>2011-08-29T12:07:02Z</time>
      </trkpt>
      <trkpt lat="47.70622" lon="-3.35232">
        <ele>14</ele>
        <time>2011-08-29T12:07:48Z</time>
      </trkpt>
      <trkpt lat="47.70638" lon="-3.35314">
        <ele>15</ele>
        <time>2011-08-29T12:08:02Z</time>
      </trkpt>
      <trkpt lat="47.70678" lon="-3.35539">
        <ele>14</ele>
        <time>2011-08-29T12:08:38Z</time>
      </trkpt>
      <trkpt lat="47.70693" lon="-3.3561">
        <ele>12</ele>
        <time>2011-08-29T12:08:49Z</time>
      </trkpt>
      <trkpt lat="47.70703" lon="-3.3565">
        <ele>12</ele>
        <time>2011-08-29T12:08:56Z</time>
      </trkpt>
      <trkpt lat="47.70748" lon="-3.35774">
        <ele>8</ele>
        <time>2011-08-29T12:09:17Z</time>
      </trkpt>
      <trkpt lat="47.7076" lon="-3.35819">
        <ele>8</ele>
        <time>2011-08-29T12:09:23Z</time>
      </trkpt>
      <trkpt lat="47.70787" lon="-3.35896">
        <ele>4</ele>
        <time>2011-08-29T12:09:34Z</time>
      </trkpt>
      <trkpt lat="47.70802" lon="-3.35947">
        <ele>2</ele>
        <time>2011-08-29T12:09:41Z</time>
      </trkpt>
      <trkpt lat="47.70818" lon="-3.35984">
        <ele>2</ele>
        <time>2011-08-29T12:09:47Z</time>
      </trkpt>
      <trkpt lat="47.70838" lon="-3.36039">
        <ele>2</ele>
        <time>2011-08-29T12:09:56Z</time>
      </trkpt>
      <trkpt lat="47.70853" lon="-3.36094">
        <ele>3</ele>
        <time>2011-08-29T12:10:04Z</time>
      </trkpt>
      <trkpt lat="47.70883" lon="-3.36184">
        <ele>3</ele>
        <time>2011-08-29T12:10:18Z</time>
      </trkpt>
      <trkpt lat="47.70888" lon="-3.36196">
        <ele>3</ele>
        <time>2011-08-29T12:10:20Z</time>
      </trkpt>
      <trkpt lat="47.70895" lon="-3.36205">
        <ele>3</ele>
        <time>2011-08-29T12:10:22Z</time>
      </trkpt>
      <trkpt lat="47.70899" lon="-3.36207">
        <ele>3</ele>
        <time>2011-08-29T12:10:23Z</time>
      </trkpt>
      <trkpt lat="47.70905" lon="-3.36205">
        <ele>3</ele>
        <time>2011-08-29T12:10:25Z</time>
      </trkpt>
      <trkpt lat="47.70907" lon="-3.36203">
        <ele>3</ele>
        <time>2011-08-29T12:10:26Z</time>
      </trkpt>
      <trkpt lat="47.70904" lon="-3.36156">
        <ele>3</ele>
        <time>2011-08-29T12:10:36Z</time>
      </trkpt>
      <trkpt lat="47.70907" lon="-3.36149">
        <ele>3</ele>
        <time>2011-08-29T12:10:38Z</time>
      </trkpt>
      <trkpt lat="47.70909" lon="-3.36148">
        <ele>3</ele>
        <time>2011-08-29T12:10:39Z</time>
      </trkpt>
      <trkpt lat="47.70918" lon="-3.36151">
        <ele>3</ele>
        <time>2011-08-29T12:10:42Z</time>
      </trkpt>
      <trkpt lat="47.70968" lon="-3.36181">
        <ele>4</ele>
        <time>2011-08-29T12:20:12Z</time>
      </trkpt>
      <trkpt lat="47.70962" lon="-3.3618">
        <ele>4</ele>
        <time>2011-08-29T12:20:14Z</time>
      </trkpt>
      <trkpt lat="47.70931" lon="-3.36163">
        <ele>3</ele>
        <time>2011-08-29T12:20:24Z</time>
      </trkpt>
      <trkpt lat="47.70913" lon="-3.36149">
        <ele>3</ele>
        <time>2011-08-29T12:20:30Z</time>
      </trkpt>
      <trkpt lat="47.70904" lon="-3.36147">
        <ele>2</ele>
        <time>2011-08-29T12:20:33Z</time>
      </trkpt>
      <trkpt lat="47.709" lon="-3.36151">
        <ele>2</ele>
        <time>2011-08-29T12:20:35Z</time>
      </trkpt>
      <trkpt lat="47.70897" lon="-3.36163">
        <ele>3</ele>
        <time>2011-08-29T12:20:38Z</time>
      </trkpt>
      <trkpt lat="47.70898" lon="-3.36208">
        <ele>3</ele>
        <time>2011-08-29T12:20:47Z</time>
      </trkpt>
      <trkpt lat="47.70896" lon="-3.36211">
        <ele>3</ele>
        <time>2011-08-29T12:20:48Z</time>
      </trkpt>
      <trkpt lat="47.70892" lon="-3.36212">
        <ele>3</ele>
        <time>2011-08-29T12:20:49Z</time>
      </trkpt>
      <trkpt lat="47.70881" lon="-3.36198">
        <ele>3</ele>
        <time>2011-08-29T12:20:51Z</time>
      </trkpt>
      <trkpt lat="47.70877" lon="-3.36178">
        <ele>3</ele>
        <time>2011-08-29T12:20:53Z</time>
      </trkpt>
      <trkpt lat="47.70845" lon="-3.36083">
        <ele>3</ele>
        <time>2011-08-29T12:21:07Z</time>
      </trkpt>
      <trkpt lat="47.70842" lon="-3.36079">
        <ele>3</ele>
        <time>2011-08-29T12:21:08Z</time>
      </trkpt>
      <trkpt lat="47.70827" lon="-3.36068">
        <ele>3</ele>
        <time>2011-08-29T12:21:12Z</time>
      </trkpt>
      <trkpt lat="47.70822" lon="-3.36058">
        <ele>3</ele>
        <time>2011-08-29T12:21:14Z</time>
      </trkpt>
      <trkpt lat="47.70818" lon="-3.36037">
        <ele>2</ele>
        <time>2011-08-29T12:21:17Z</time>
      </trkpt>
      <trkpt lat="47.70811" lon="-3.35989">
        <ele>2</ele>
        <time>2011-08-29T12:21:24Z</time>
      </trkpt>
      <trkpt lat="47.70806" lon="-3.3597">
        <ele>2</ele>
        <time>2011-08-29T12:21:27Z</time>
      </trkpt>
      <trkpt lat="47.70748" lon="-3.3581">
        <ele>7</ele>
        <time>2011-08-29T12:21:55Z</time>
      </trkpt>
      <trkpt lat="47.7069" lon="-3.35632">
        <ele>12</ele>
        <time>2011-08-29T12:22:27Z</time>
      </trkpt>
      <trkpt lat="47.7068" lon="-3.35576">
        <ele>13</ele>
        <time>2011-08-29T12:22:36Z</time>
      </trkpt>
      <trkpt lat="47.7067" lon="-3.35536">
        <ele>13</ele>
        <time>2011-08-29T12:22:43Z</time>
      </trkpt>
      <trkpt lat="47.70662" lon="-3.35494">
        <ele>13</ele>
        <time>2011-08-29T12:22:50Z</time>
      </trkpt>
      <trkpt lat="47.70645" lon="-3.35383">
        <ele>15</ele>
        <time>2011-08-29T12:23:08Z</time>
      </trkpt>
      <trkpt lat="47.70602" lon="-3.35172">
        <ele>13</ele>
        <time>2011-08-29T12:23:41Z</time>
      </trkpt>
      <trkpt lat="47.706" lon="-3.35166">
        <ele>12</ele>
        <time>2011-08-29T12:23:42Z</time>
      </trkpt>
      <trkpt lat="47.70589" lon="-3.35153">
        <ele>12</ele>
        <time>2011-08-29T12:23:45Z</time>
      </trkpt>
      <trkpt lat="47.70502" lon="-3.35079">
        <ele>11</ele>
        <time>2011-08-29T12:24:09Z</time>
      </trkpt>
      <trkpt lat="47.70498" lon="-3.35072">
        <ele>10</ele>
        <time>2011-08-29T12:24:11Z</time>
      </trkpt>
      <trkpt lat="47.70495" lon="-3.35062">
        <ele>10</ele>
        <time>2011-08-29T12:24:13Z</time>
      </trkpt>
      <trkpt lat="47.70493" lon="-3.35048">
        <ele>9</ele>
        <time>2011-08-29T12:24:15Z</time>
      </trkpt>
      <trkpt lat="47.70497" lon="-3.35024">
        <ele>8</ele>
        <time>2011-08-29T12:24:18Z</time>
      </trkpt>
      <trkpt lat="47.70507" lon="-3.34991">
        <ele>8</ele>
        <time>2011-08-29T12:24:22Z</time>
      </trkpt>
      <trkpt lat="47.70547" lon="-3.34891">
        <ele>6</ele>
        <time>2011-08-29T12:24:34Z</time>
      </trkpt>
      <trkpt lat="47.70611" lon="-3.34739">
        <ele>6</ele>
        <time>2011-08-29T12:24:57Z</time>
      </trkpt>
      <trkpt lat="47.70617" lon="-3.34727">
        <ele>6</ele>
        <time>2011-08-29T12:24:59Z</time>
      </trkpt>
      <trkpt lat="47.70629" lon="-3.34711">
        <ele>6</ele>
        <time>2011-08-29T12:25:02Z</time>
      </trkpt>
      <trkpt lat="47.70669" lon="-3.3467">
        <ele>8</ele>
        <time>2011-08-29T12:25:11Z</time>
      </trkpt>
      <trkpt lat="47.70677" lon="-3.34661">
        <ele>8</ele>
        <time>2011-08-29T12:25:13Z</time>
      </trkpt>
      <trkpt lat="47.70704" lon="-3.34611">
        <ele>8</ele>
        <time>2011-08-29T12:25:22Z</time>
      </trkpt>
      <trkpt lat="47.70711" lon="-3.346">
        <ele>7</ele>
        <time>2011-08-29T12:25:24Z</time>
      </trkpt>
      <trkpt lat="47.70714" lon="-3.34596">
        <ele>7</ele>
        <time>2011-08-29T12:25:25Z</time>
      </trkpt>
      <trkpt lat="47.70724" lon="-3.34589">
        <ele>7</ele>
        <time>2011-08-29T12:25:27Z</time>
      </trkpt>
      <trkpt lat="47.70728" lon="-3.34587">
        <ele>7</ele>
        <time>2011-08-29T12:25:28Z</time>
      </trkpt>
      <trkpt lat="47.70744" lon="-3.34583">
        <ele>7</ele>
        <time>2011-08-29T12:25:32Z</time>
      </trkpt>
      <trkpt lat="47.70764" lon="-3.34567">
        <ele>7</ele>
        <time>2011-08-29T12:25:37Z</time>
      </trkpt>
      <trkpt lat="47.70773" lon="-3.34564">
        <ele>7</ele>
        <time>2011-08-29T12:25:39Z</time>
      </trkpt>
      <trkpt lat="47.70778" lon="-3.34564">
        <ele>7</ele>
        <time>2011-08-29T12:25:40Z</time>
      </trkpt>
      <trkpt lat="47.70804" lon="-3.3458">
        <ele>7</ele>
        <time>2011-08-29T12:25:46Z</time>
      </trkpt>
      <trkpt lat="47.70835" lon="-3.34607">
        <ele>7</ele>
        <time>2011-08-29T12:25:56Z</time>
      </trkpt>
      <trkpt lat="47.70839" lon="-3.34604">
        <ele>7</ele>
        <time>2011-08-29T12:26:01Z</time>
      </trkpt>
      <trkpt lat="47.70843" lon="-3.34589">
        <ele>7</ele>
        <time>2011-08-29T12:26:04Z</time>
      </trkpt>
      <trkpt lat="47.70847" lon="-3.34553">
        <ele>6</ele>
        <time>2011-08-29T12:26:09Z</time>
      </trkpt>
      <trkpt lat="47.70851" lon="-3.34443">
        <ele>5</ele>
        <time>2011-08-29T12:26:24Z</time>
      </trkpt>
      <trkpt lat="47.70857" lon="-3.34371">
        <ele>5</ele>
        <time>2011-08-29T12:26:34Z</time>
      </trkpt>
      <trkpt lat="47.70865" lon="-3.3432">
        <ele>5</ele>
        <time>2011-08-29T12:26:41Z</time>
      </trkpt>
      <trkpt lat="47.70877" lon="-3.34286">
        <ele>6</ele>
        <time>2011-08-29T12:26:46Z</time>
      </trkpt>
      <trkpt lat="47.70879" lon="-3.34272">
        <ele>6</ele>
        <time>2011-08-29T12:26:48Z</time>
      </trkpt>
      <trkpt lat="47.70883" lon="-3.34242">
        <ele>7</ele>
        <time>2011-08-29T12:26:52Z</time>
      </trkpt>
      <trkpt lat="47.70884" lon="-3.34188">
        <ele>7</ele>
        <time>2011-08-29T12:26:59Z</time>
      </trkpt>
      <trkpt lat="47.70893" lon="-3.3412">
        <ele>6</ele>
        <time>2011-08-29T12:27:08Z</time>
      </trkpt>
      <trkpt lat="47.70893" lon="-3.34096">
        <ele>6</ele>
        <time>2011-08-29T12:27:11Z</time>
      </trkpt>
      <trkpt lat="47.70886" lon="-3.33928">
        <ele>5</ele>
        <time>2011-08-29T12:27:33Z</time>
      </trkpt>
      <trkpt lat="47.70887" lon="-3.33891">
        <ele>7</ele>
        <time>2011-08-29T12:27:38Z</time>
      </trkpt>
      <trkpt lat="47.70909" lon="-3.33732">
        <ele>10</ele>
        <time>2011-08-29T12:28:00Z</time>
      </trkpt>
      <trkpt lat="47.70946" lon="-3.33513">
        <ele>8</ele>
        <time>2011-08-29T12:28:29Z</time>
      </trkpt>
      <trkpt lat="47.70952" lon="-3.3345">
        <ele>7</ele>
        <time>2011-08-29T12:28:37Z</time>
      </trkpt>
      <trkpt lat="47.70961" lon="-3.33318">
        <ele>7</ele>
        <time>2011-08-29T12:28:54Z</time>
      </trkpt>
      <trkpt lat="47.70967" lon="-3.33177">
        <ele>5</ele>
        <time>2011-08-29T12:29:12Z</time>
      </trkpt>
      <trkpt lat="47.70968" lon="-3.33074">
        <ele>6</ele>
        <time>2011-08-29T12:29:26Z</time>
      </trkpt>
      <trkpt lat="47.70972" lon="-3.32997">
        <ele>8</ele>
        <time>2011-08-29T12:29:37Z</time>
      </trkpt>
      <trkpt lat="47.70969" lon="-3.32985">
        <ele>8</ele>
        <time>2011-08-29T12:29:39Z</time>
      </trkpt>
      <trkpt lat="47.70961" lon="-3.32969">
        <ele>8</ele>
        <time>2011-08-29T12:29:42Z</time>
      </trkpt>
      <trkpt lat="47.70954" lon="-3.32944">
        <ele>8</ele>
        <time>2011-08-29T12:29:46Z</time>
      </trkpt>
      <trkpt lat="47.7094" lon="-3.32837">
        <ele>7</ele>
        <time>2011-08-29T12:30:01Z</time>
      </trkpt>
      <trkpt lat="47.70935" lon="-3.32805">
        <ele>7</ele>
        <time>2011-08-29T12:30:05Z</time>
      </trkpt>
      <trkpt lat="47.70926" lon="-3.3278">
        <ele>6</ele>
        <time>2011-08-29T12:30:08Z</time>
      </trkpt>
      <trkpt lat="47.70892" lon="-3.327">
        <ele>4</ele>
        <time>2011-08-29T12:30:18Z</time>
      </trkpt>
      <trkpt lat="47.70888" lon="-3.32684">
        <ele>3</ele>
        <time>2011-08-29T12:30:20Z</time>
      </trkpt>
      <trkpt lat="47.70876" lon="-3.32624">
        <ele>2</ele>
        <time>2011-08-29T12:30:28Z</time>
      </trkpt>
      <trkpt lat="47.70867" lon="-3.32556">
        <ele>3</ele>
        <time>2011-08-29T12:30:37Z</time>
      </trkpt>
      <trkpt lat="47.70862" lon="-3.32438">
        <ele>7</ele>
        <time>2011-08-29T12:30:53Z</time>
      </trkpt>
      <trkpt lat="47.70859" lon="-3.32408">
        <ele>9</ele>
        <time>2011-08-29T12:30:57Z</time>
      </trkpt>
      <trkpt lat="47.70827" lon="-3.32228">
        <ele>11</ele>
        <time>2011-08-29T12:31:22Z</time>
      </trkpt>
      <trkpt lat="47.70822" lon="-3.3219">
        <ele>10</ele>
        <time>2011-08-29T12:31:27Z</time>
      </trkpt>
      <trkpt lat="47.7082" lon="-3.3216">
        <ele>10</ele>
        <time>2011-08-29T12:31:31Z</time>
      </trkpt>
      <trkpt lat="47.70836" lon="-3.3207">
        <ele>10</ele>
        <time>2011-08-29T12:31:43Z</time>
      </trkpt>
      <trkpt lat="47.70869" lon="-3.31932">
        <ele>9</ele>
        <time>2011-08-29T12:32:02Z</time>
      </trkpt>
      <trkpt lat="47.70897" lon="-3.31823">
        <ele>10</ele>
        <time>2011-08-29T12:32:18Z</time>
      </trkpt>
      <trkpt lat="47.7091" lon="-3.3179">
        <ele>10</ele>
        <time>2011-08-29T12:32:23Z</time>
      </trkpt>
      <trkpt lat="47.70918" lon="-3.31771">
        <ele>9</ele>
        <time>2011-08-29T12:32:26Z</time>
      </trkpt>
      <trkpt lat="47.70978" lon="-3.31661">
        <ele>8</ele>
        <time>2011-08-29T12:32:45Z</time>
      </trkpt>
      <trkpt lat="47.70985" lon="-3.31641">
        <ele>8</ele>
        <time>2011-08-29T12:32:48Z</time>
      </trkpt>
      <trkpt lat="47.70989" lon="-3.3161">
        <ele>8</ele>
        <time>2011-08-29T12:32:52Z</time>
      </trkpt>
      <trkpt lat="47.70997" lon="-3.31499">
        <ele>7</ele>
        <time>2011-08-29T12:33:07Z</time>
      </trkpt>
      <trkpt lat="47.71002" lon="-3.31468">
        <ele>6</ele>
        <time>2011-08-29T12:33:11Z</time>
      </trkpt>
      <trkpt lat="47.71014" lon="-3.31409">
        <ele>6</ele>
        <time>2011-08-29T12:33:19Z</time>
      </trkpt>
      <trkpt lat="47.71023" lon="-3.31344">
        <ele>6</ele>
        <time>2011-08-29T12:33:28Z</time>
      </trkpt>
      <trkpt lat="47.71024" lon="-3.3132">
        <ele>6</ele>
        <time>2011-08-29T12:33:31Z</time>
      </trkpt>
      <trkpt lat="47.71019" lon="-3.31261">
        <ele>6</ele>
        <time>2011-08-29T12:33:39Z</time>
      </trkpt>
      <trkpt lat="47.71018" lon="-3.3123">
        <ele>6</ele>
        <time>2011-08-29T12:33:43Z</time>
      </trkpt>
      <trkpt lat="47.71022" lon="-3.31162">
        <ele>6</ele>
        <time>2011-08-29T12:33:53Z</time>
      </trkpt>
      <trkpt lat="47.7103" lon="-3.31105">
        <ele>6</ele>
        <time>2011-08-29T12:34:01Z</time>
      </trkpt>
      <trkpt lat="47.71033" lon="-3.31023">
        <ele>5</ele>
        <time>2011-08-29T12:34:14Z</time>
      </trkpt>
      <trkpt lat="47.71035" lon="-3.3102">
        <ele>5</ele>
        <time>2011-08-29T12:34:15Z</time>
      </trkpt>
      <trkpt lat="47.71072" lon="-3.3101">
        <ele>6</ele>
        <time>2011-08-29T12:34:22Z</time>
      </trkpt>
      <trkpt lat="47.71111" lon="-3.30994">
        <ele>5</ele>
        <time>2011-08-29T12:34:31Z</time>
      </trkpt>
      <trkpt lat="47.71161" lon="-3.30975">
        <ele>4</ele>
        <time>2011-08-29T12:34:41Z</time>
      </trkpt>
      <trkpt lat="47.71188" lon="-3.3096">
        <ele>4</ele>
        <time>2011-08-29T12:34:47Z</time>
      </trkpt>
      <trkpt lat="47.712" lon="-3.30949">
        <ele>4</ele>
        <time>2011-08-29T12:34:50Z</time>
      </trkpt>
      <trkpt lat="47.71266" lon="-3.30855">
        <ele>4</ele>
        <time>2011-08-29T12:35:08Z</time>
      </trkpt>
      <trkpt lat="47.71276" lon="-3.30836">
        <ele>4</ele>
        <time>2011-08-29T12:35:11Z</time>
      </trkpt>
      <trkpt lat="47.71285" lon="-3.30809">
        <ele>4</ele>
        <time>2011-08-29T12:35:15Z</time>
      </trkpt>
      <trkpt lat="47.71299" lon="-3.30744">
        <ele>4</ele>
        <time>2011-08-29T12:35:24Z</time>
      </trkpt>
      <trkpt lat="47.71307" lon="-3.30723">
        <ele>4</ele>
        <time>2011-08-29T12:35:27Z</time>
      </trkpt>
      <trkpt lat="47.71332" lon="-3.30677">
        <ele>4</ele>
        <time>2011-08-29T12:35:35Z</time>
      </trkpt>
      <trkpt lat="47.71347" lon="-3.30644">
        <ele>5</ele>
        <time>2011-08-29T12:35:43Z</time>
      </trkpt>
      <trkpt lat="47.71373" lon="-3.30607">
        <ele>5</ele>
        <time>2011-08-29T12:35:50Z</time>
      </trkpt>
      <trkpt lat="47.71387" lon="-3.30583">
        <ele>5</ele>
        <time>2011-08-29T12:35:54Z</time>
      </trkpt>
      <trkpt lat="47.71423" lon="-3.30499">
        <ele>6</ele>
        <time>2011-08-29T12:36:07Z</time>
      </trkpt>
      <trkpt lat="47.71439" lon="-3.3047">
        <ele>6</ele>
        <time>2011-08-29T12:36:12Z</time>
      </trkpt>
      <trkpt lat="47.71551" lon="-3.30317">
        <ele>10</ele>
        <time>2011-08-29T12:36:42Z</time>
      </trkpt>
      <trkpt lat="47.71568" lon="-3.30299">
        <ele>10</ele>
        <time>2011-08-29T12:36:46Z</time>
      </trkpt>
      <trkpt lat="47.71583" lon="-3.30287">
        <ele>10</ele>
        <time>2011-08-29T12:36:50Z</time>
      </trkpt>
      <trkpt lat="47.71593" lon="-3.30268">
        <ele>12</ele>
        <time>2011-08-29T12:36:54Z</time>
      </trkpt>
      <trkpt lat="47.7161" lon="-3.3023">
        <ele>13</ele>
        <time>2011-08-29T12:37:01Z</time>
      </trkpt>
      <trkpt lat="47.71671" lon="-3.30137">
        <ele>16</ele>
        <time>2011-08-29T12:37:22Z</time>
      </trkpt>
      <trkpt lat="47.71685" lon="-3.3011">
        <ele>17</ele>
        <time>2011-08-29T12:37:28Z</time>
      </trkpt>
      <trkpt lat="47.71697" lon="-3.30093">
        <ele>17</ele>
        <time>2011-08-29T12:37:32Z</time>
      </trkpt>
      <trkpt lat="47.7172" lon="-3.30067">
        <ele>17</ele>
        <time>2011-08-29T12:37:39Z</time>
      </trkpt>
      <trkpt lat="47.7176" lon="-3.30029">
        <ele>18</ele>
        <time>2011-08-29T12:37:50Z</time>
      </trkpt>
      <trkpt lat="47.71789" lon="-3.29999">
        <ele>19</ele>
        <time>2011-08-29T12:37:58Z</time>
      </trkpt>
      <trkpt lat="47.71833" lon="-3.29961">
        <ele>19</ele>
        <time>2011-08-29T12:38:10Z</time>
      </trkpt>
      <trkpt lat="47.71846" lon="-3.29945">
        <ele>18</ele>
        <time>2011-08-29T12:38:14Z</time>
      </trkpt>
      <trkpt lat="47.71874" lon="-3.299">
        <ele>16</ele>
        <time>2011-08-29T12:38:23Z</time>
      </trkpt>
      <trkpt lat="47.71908" lon="-3.29855">
        <ele>15</ele>
        <time>2011-08-29T12:38:32Z</time>
      </trkpt>
      <trkpt lat="47.71919" lon="-3.29837">
        <ele>14</ele>
        <time>2011-08-29T12:38:35Z</time>
      </trkpt>
      <trkpt lat="47.71936" lon="-3.29798">
        <ele>14</ele>
        <time>2011-08-29T12:38:41Z</time>
      </trkpt>
      <trkpt lat="47.71975" lon="-3.29704">
        <ele>14</ele>
        <time>2011-08-29T12:38:57Z</time>
      </trkpt>
      <trkpt lat="47.71983" lon="-3.29687">
        <ele>14</ele>
        <time>2011-08-29T12:39:00Z</time>
      </trkpt>
      <trkpt lat="47.71993" lon="-3.29672">
        <ele>15</ele>
        <time>2011-08-29T12:39:03Z</time>
      </trkpt>
      <trkpt lat="47.72008" lon="-3.29656">
        <ele>16</ele>
        <time>2011-08-29T12:39:07Z</time>
      </trkpt>
      <trkpt lat="47.72026" lon="-3.29644">
        <ele>16</ele>
        <time>2011-08-29T12:39:11Z</time>
      </trkpt>
      <trkpt lat="47.72043" lon="-3.29635">
        <ele>16</ele>
        <time>2011-08-29T12:39:15Z</time>
      </trkpt>
      <trkpt lat="47.72084" lon="-3.29622">
        <ele>18</ele>
        <time>2011-08-29T12:39:24Z</time>
      </trkpt>
      <trkpt lat="47.72106" lon="-3.29617">
        <ele>18</ele>
        <time>2011-08-29T12:39:29Z</time>
      </trkpt>
      <trkpt lat="47.72156" lon="-3.29612">
        <ele>18</ele>
        <time>2011-08-29T12:39:40Z</time>
      </trkpt>
      <trkpt lat="47.72206" lon="-3.29596">
        <ele>18</ele>
        <time>2011-08-29T12:39:51Z</time>
      </trkpt>
      <trkpt lat="47.72224" lon="-3.29593">
        <ele>19</ele>
        <time>2011-08-29T12:39:55Z</time>
      </trkpt>
      <trkpt lat="47.72246" lon="-3.29597">
        <ele>19</ele>
        <time>2011-08-29T12:40:00Z</time>
      </trkpt>
      <trkpt lat="47.72311" lon="-3.29621">
        <ele>19</ele>
        <time>2011-08-29T12:40:14Z</time>
      </trkpt>
      <trkpt lat="47.72335" lon="-3.29626">
        <ele>20</ele>
        <time>2011-08-29T12:40:19Z</time>
      </trkpt>
      <trkpt lat="47.72359" lon="-3.29626">
        <ele>20</ele>
        <time>2011-08-29T12:40:24Z</time>
      </trkpt>
      <trkpt lat="47.72442" lon="-3.29619">
        <ele>20</ele>
        <time>2011-08-29T12:40:42Z</time>
      </trkpt>
      <trkpt lat="47.72497" lon="-3.29612">
        <ele>20</ele>
        <time>2011-08-29T12:40:54Z</time>
      </trkpt>
      <trkpt lat="47.72523" lon="-3.29612">
        <ele>20</ele>
        <time>2011-08-29T12:41:00Z</time>
      </trkpt>
      <trkpt lat="47.72536" lon="-3.29612">
        <ele>20</ele>
        <time>2011-08-29T12:41:03Z</time>
      </trkpt>
      <trkpt lat="47.7255" lon="-3.29615">
        <ele>21</ele>
        <time>2011-08-29T12:41:06Z</time>
      </trkpt>
      <trkpt lat="47.7258" lon="-3.29628">
        <ele>21</ele>
        <time>2011-08-29T12:41:13Z</time>
      </trkpt>
      <trkpt lat="47.72597" lon="-3.29633">
        <ele>22</ele>
        <time>2011-08-29T12:41:17Z</time>
      </trkpt>
      <trkpt lat="47.72608" lon="-3.29633">
        <ele>23</ele>
        <time>2011-08-29T12:41:20Z</time>
      </trkpt>
      <trkpt lat="47.72672" lon="-3.29625">
        <ele>25</ele>
        <time>2011-08-29T12:41:36Z</time>
      </trkpt>
      <trkpt lat="47.7269" lon="-3.29625">
        <ele>25</ele>
        <time>2011-08-29T12:41:41Z</time>
      </trkpt>
      <trkpt lat="47.72729" lon="-3.29633">
        <ele>25</ele>
        <time>2011-08-29T12:41:50Z</time>
      </trkpt>
      <trkpt lat="47.72755" lon="-3.29641">
        <ele>25</ele>
        <time>2011-08-29T12:41:56Z</time>
      </trkpt>
      <trkpt lat="47.72772" lon="-3.29651">
        <ele>25</ele>
        <time>2011-08-29T12:42:00Z</time>
      </trkpt>
      <trkpt lat="47.72817" lon="-3.29681">
        <ele>24</ele>
        <time>2011-08-29T12:42:10Z</time>
      </trkpt>
      <trkpt lat="47.72827" lon="-3.29685">
        <ele>24</ele>
        <time>2011-08-29T12:42:12Z</time>
      </trkpt>
      <trkpt lat="47.72869" lon="-3.29698">
        <ele>23</ele>
        <time>2011-08-29T12:42:20Z</time>
      </trkpt>
      <trkpt lat="47.72887" lon="-3.29708">
        <ele>22</ele>
        <time>2011-08-29T12:42:24Z</time>
      </trkpt>
      <trkpt lat="47.72906" lon="-3.29721">
        <ele>22</ele>
        <time>2011-08-29T12:42:28Z</time>
      </trkpt>
      <trkpt lat="47.72921" lon="-3.29723">
        <ele>22</ele>
        <time>2011-08-29T12:42:31Z</time>
      </trkpt>
      <trkpt lat="47.7293" lon="-3.29721">
        <ele>22</ele>
        <time>2011-08-29T12:42:33Z</time>
      </trkpt>
      <trkpt lat="47.72944" lon="-3.29716">
        <ele>22</ele>
        <time>2011-08-29T12:42:36Z</time>
      </trkpt>
      <trkpt lat="47.72979" lon="-3.297">
        <ele>22</ele>
        <time>2011-08-29T12:42:44Z</time>
      </trkpt>
      <trkpt lat="47.72991" lon="-3.29692">
        <ele>22</ele>
        <time>2011-08-29T12:42:47Z</time>
      </trkpt>
      <trkpt lat="47.73015" lon="-3.2967">
        <ele>22</ele>
        <time>2011-08-29T12:42:53Z</time>
      </trkpt>
      <trkpt lat="47.73048" lon="-3.29631">
        <ele>23</ele>
        <time>2011-08-29T12:43:02Z</time>
      </trkpt>
      <trkpt lat="47.7306" lon="-3.29621">
        <ele>23</ele>
        <time>2011-08-29T12:43:05Z</time>
      </trkpt>
      <trkpt lat="47.73074" lon="-3.29618">
        <ele>23</ele>
        <time>2011-08-29T12:43:08Z</time>
      </trkpt>
      <trkpt lat="47.73102" lon="-3.29615">
        <ele>24</ele>
        <time>2011-08-29T12:43:14Z</time>
      </trkpt>
      <trkpt lat="47.7312" lon="-3.29611">
        <ele>24</ele>
        <time>2011-08-29T12:43:18Z</time>
      </trkpt>
      <trkpt lat="47.73133" lon="-3.29605">
        <ele>24</ele>
        <time>2011-08-29T12:43:21Z</time>
      </trkpt>
      <trkpt lat="47.73175" lon="-3.29582">
        <ele>24</ele>
        <time>2011-08-29T12:43:31Z</time>
      </trkpt>
      <trkpt lat="47.73192" lon="-3.29576">
        <ele>25</ele>
        <time>2011-08-29T12:43:35Z</time>
      </trkpt>
      <trkpt lat="47.73214" lon="-3.29574">
        <ele>26</ele>
        <time>2011-08-29T12:43:40Z</time>
      </trkpt>
      <trkpt lat="47.73244" lon="-3.29578">
        <ele>27</ele>
        <time>2011-08-29T12:43:47Z</time>
      </trkpt>
      <trkpt lat="47.73261" lon="-3.29578">
        <ele>27</ele>
        <time>2011-08-29T12:43:51Z</time>
      </trkpt>
      <trkpt lat="47.73281" lon="-3.29574">
        <ele>27</ele>
        <time>2011-08-29T12:43:56Z</time>
      </trkpt>
      <trkpt lat="47.7331" lon="-3.29565">
        <ele>26</ele>
        <time>2011-08-29T12:44:03Z</time>
      </trkpt>
      <trkpt lat="47.73331" lon="-3.29559">
        <ele>26</ele>
        <time>2011-08-29T12:44:08Z</time>
      </trkpt>
      <trkpt lat="47.73345" lon="-3.29558">
        <ele>26</ele>
        <time>2011-08-29T12:44:11Z</time>
      </trkpt>
      <trkpt lat="47.73357" lon="-3.29558">
        <ele>26</ele>
        <time>2011-08-29T12:44:14Z</time>
      </trkpt>
      <trkpt lat="47.73369" lon="-3.29561">
        <ele>27</ele>
        <time>2011-08-29T12:44:17Z</time>
      </trkpt>
      <trkpt lat="47.73393" lon="-3.29569">
        <ele>27</ele>
        <time>2011-08-29T12:44:23Z</time>
      </trkpt>
      <trkpt lat="47.73425" lon="-3.29591">
        <ele>30</ele>
        <time>2011-08-29T12:44:31Z</time>
      </trkpt>
      <trkpt lat="47.73441" lon="-3.29599">
        <ele>30</ele>
        <time>2011-08-29T12:44:35Z</time>
      </trkpt>
      <trkpt lat="47.73465" lon="-3.29605">
        <ele>31</ele>
        <time>2011-08-29T12:44:41Z</time>
      </trkpt>
      <trkpt lat="47.73479" lon="-3.29606">
        <ele>31</ele>
        <time>2011-08-29T12:44:46Z</time>
      </trkpt>
      <trkpt lat="47.73518" lon="-3.29598">
        <ele>32</ele>
        <time>2011-08-29T12:44:56Z</time>
      </trkpt>
      <trkpt lat="47.73592" lon="-3.29578">
        <ele>30</ele>
        <time>2011-08-29T12:45:12Z</time>
      </trkpt>
      <trkpt lat="47.73658" lon="-3.29562">
        <ele>31</ele>
        <time>2011-08-29T12:45:27Z</time>
      </trkpt>
      <trkpt lat="47.73684" lon="-3.29561">
        <ele>31</ele>
        <time>2011-08-29T12:45:33Z</time>
      </trkpt>
      <trkpt lat="47.73717" lon="-3.29563">
        <ele>31</ele>
        <time>2011-08-29T12:45:40Z</time>
      </trkpt>
      <trkpt lat="47.73735" lon="-3.29563">
        <ele>31</ele>
        <time>2011-08-29T12:45:44Z</time>
      </trkpt>
      <trkpt lat="47.73779" lon="-3.29556">
        <ele>32</ele>
        <time>2011-08-29T12:45:54Z</time>
      </trkpt>
      <trkpt lat="47.73808" lon="-3.29547">
        <ele>32</ele>
        <time>2011-08-29T12:46:01Z</time>
      </trkpt>
      <trkpt lat="47.73883" lon="-3.29509">
        <ele>33</ele>
        <time>2011-08-29T12:46:19Z</time>
      </trkpt>
      <trkpt lat="47.73892" lon="-3.29506">
        <ele>34</ele>
        <time>2011-08-29T12:46:21Z</time>
      </trkpt>
      <trkpt lat="47.73901" lon="-3.29505">
        <ele>34</ele>
        <time>2011-08-29T12:46:23Z</time>
      </trkpt>
      <trkpt lat="47.73914" lon="-3.29507">
        <ele>34</ele>
        <time>2011-08-29T12:46:26Z</time>
      </trkpt>
      <trkpt lat="47.73927" lon="-3.29512">
        <ele>34</ele>
        <time>2011-08-29T12:46:29Z</time>
      </trkpt>
      <trkpt lat="47.7398" lon="-3.29542">
        <ele>34</ele>
        <time>2011-08-29T12:46:43Z</time>
      </trkpt>
      <trkpt lat="47.73998" lon="-3.29548">
        <ele>34</ele>
        <time>2011-08-29T12:46:48Z</time>
      </trkpt>
      <trkpt lat="47.74017" lon="-3.29547">
        <ele>35</ele>
        <time>2011-08-29T12:46:53Z</time>
      </trkpt>
      <trkpt lat="47.74049" lon="-3.29538">
        <ele>36</ele>
        <time>2011-08-29T12:47:02Z</time>
      </trkpt>
      <trkpt lat="47.74122" lon="-3.29526">
        <ele>37</ele>
        <time>2011-08-29T12:47:21Z</time>
      </trkpt>
      <trkpt lat="47.74162" lon="-3.29517">
        <ele>38</ele>
        <time>2011-08-29T12:47:31Z</time>
      </trkpt>
      <trkpt lat="47.74195" lon="-3.29512">
        <ele>38</ele>
        <time>2011-08-29T12:47:39Z</time>
      </trkpt>
      <trkpt lat="47.74207" lon="-3.29513">
        <ele>38</ele>
        <time>2011-08-29T12:47:42Z</time>
      </trkpt>
      <trkpt lat="47.74224" lon="-3.29517">
        <ele>38</ele>
        <time>2011-08-29T12:47:46Z</time>
      </trkpt>
      <trkpt lat="47.7424" lon="-3.29525">
        <ele>38</ele>
        <time>2011-08-29T12:47:50Z</time>
      </trkpt>
      <trkpt lat="47.74269" lon="-3.29535">
        <ele>38</ele>
        <time>2011-08-29T12:47:57Z</time>
      </trkpt>
      <trkpt lat="47.74298" lon="-3.2955">
        <ele>38</ele>
        <time>2011-08-29T12:48:05Z</time>
      </trkpt>
      <trkpt lat="47.7436" lon="-3.29572">
        <ele>38</ele>
        <time>2011-08-29T12:48:20Z</time>
      </trkpt>
      <trkpt lat="47.74392" lon="-3.29579">
        <ele>38</ele>
        <time>2011-08-29T12:48:29Z</time>
      </trkpt>
      <trkpt lat="47.74405" lon="-3.29579">
        <ele>38</ele>
        <time>2011-08-29T12:48:32Z</time>
      </trkpt>
      <trkpt lat="47.74442" lon="-3.29577">
        <ele>37</ele>
        <time>2011-08-29T12:48:40Z</time>
      </trkpt>
      <trkpt lat="47.74457" lon="-3.29573">
        <ele>37</ele>
        <time>2011-08-29T12:48:43Z</time>
      </trkpt>
      <trkpt lat="47.74488" lon="-3.29561">
        <ele>36</ele>
        <time>2011-08-29T12:48:49Z</time>
      </trkpt>
      <trkpt lat="47.745" lon="-3.29558">
        <ele>36</ele>
        <time>2011-08-29T12:48:51Z</time>
      </trkpt>
      <trkpt lat="47.74506" lon="-3.29559">
        <ele>34</ele>
        <time>2011-08-29T12:48:52Z</time>
      </trkpt>
      <trkpt lat="47.74518" lon="-3.29563">
        <ele>34</ele>
        <time>2011-08-29T12:48:54Z</time>
      </trkpt>
      <trkpt lat="47.74539" lon="-3.29573">
        <ele>34</ele>
        <time>2011-08-29T12:48:57Z</time>
      </trkpt>
      <trkpt lat="47.74593" lon="-3.2961">
        <ele>30</ele>
        <time>2011-08-29T12:49:04Z</time>
      </trkpt>
      <trkpt lat="47.74673" lon="-3.2966">
        <ele>27</ele>
        <time>2011-08-29T12:49:13Z</time>
      </trkpt>
      <trkpt lat="47.74682" lon="-3.29664">
        <ele>27</ele>
        <time>2011-08-29T12:49:14Z</time>
      </trkpt>
      <trkpt lat="47.74691" lon="-3.29663">
        <ele>27</ele>
        <time>2011-08-29T12:49:15Z</time>
      </trkpt>
      <trkpt lat="47.74699" lon="-3.2966">
        <ele>28</ele>
        <time>2011-08-29T12:49:16Z</time>
      </trkpt>
      <trkpt lat="47.74705" lon="-3.29654">
        <ele>28</ele>
        <time>2011-08-29T12:49:17Z</time>
      </trkpt>
      <trkpt lat="47.74715" lon="-3.29641">
        <ele>28</ele>
        <time>2011-08-29T12:49:19Z</time>
      </trkpt>
      <trkpt lat="47.74723" lon="-3.29628">
        <ele>28</ele>
        <time>2011-08-29T12:49:21Z</time>
      </trkpt>
      <trkpt lat="47.7475" lon="-3.29547">
        <ele>32</ele>
        <time>2011-08-29T12:49:35Z</time>
      </trkpt>
      <trkpt lat="47.74808" lon="-3.29404">
        <ele>33</ele>
        <time>2011-08-29T12:50:01Z</time>
      </trkpt>
      <trkpt lat="47.74833" lon="-3.29351">
        <ele>33</ele>
        <time>2011-08-29T12:50:11Z</time>
      </trkpt>
      <trkpt lat="47.74856" lon="-3.29313">
        <ele>33</ele>
        <time>2011-08-29T12:50:19Z</time>
      </trkpt>
      <trkpt lat="47.74872" lon="-3.29292">
        <ele>34</ele>
        <time>2011-08-29T12:50:24Z</time>
      </trkpt>
      <trkpt lat="47.74883" lon="-3.29281">
        <ele>34</ele>
        <time>2011-08-29T12:50:27Z</time>
      </trkpt>
      <trkpt lat="47.74894" lon="-3.29273">
        <ele>34</ele>
        <time>2011-08-29T12:50:30Z</time>
      </trkpt>
      <trkpt lat="47.74906" lon="-3.29267">
        <ele>35</ele>
        <time>2011-08-29T12:50:33Z</time>
      </trkpt>
      <trkpt lat="47.74944" lon="-3.29254">
        <ele>36</ele>
        <time>2011-08-29T12:50:42Z</time>
      </trkpt>
      <trkpt lat="47.7496" lon="-3.29244">
        <ele>38</ele>
        <time>2011-08-29T12:50:46Z</time>
      </trkpt>
      <trkpt lat="47.74979" lon="-3.29226">
        <ele>38</ele>
        <time>2011-08-29T12:50:51Z</time>
      </trkpt>
      <trkpt lat="47.75008" lon="-3.29191">
        <ele>39</ele>
        <time>2011-08-29T12:51:00Z</time>
      </trkpt>
      <trkpt lat="47.75019" lon="-3.29173">
        <ele>40</ele>
        <time>2011-08-29T12:51:04Z</time>
      </trkpt>
      <trkpt lat="47.75045" lon="-3.29113">
        <ele>40</ele>
        <time>2011-08-29T12:51:15Z</time>
      </trkpt>
      <trkpt lat="47.75064" lon="-3.29055">
        <ele>39</ele>
        <time>2011-08-29T12:51:25Z</time>
      </trkpt>
      <trkpt lat="47.75085" lon="-3.29031">
        <ele>36</ele>
        <time>2011-08-29T12:51:31Z</time>
      </trkpt>
      <trkpt lat="47.75095" lon="-3.29008">
        <ele>36</ele>
        <time>2011-08-29T12:51:35Z</time>
      </trkpt>
      <trkpt lat="47.75104" lon="-3.28994">
        <ele>35</ele>
        <time>2011-08-29T12:51:38Z</time>
      </trkpt>
      <trkpt lat="47.75131" lon="-3.28967">
        <ele>35</ele>
        <time>2011-08-29T12:51:45Z</time>
      </trkpt>
      <trkpt lat="47.75139" lon="-3.2896">
        <ele>35</ele>
        <time>2011-08-29T12:51:47Z</time>
      </trkpt>
      <trkpt lat="47.75143" lon="-3.28959">
        <ele>35</ele>
        <time>2011-08-29T12:51:48Z</time>
      </trkpt>
      <trkpt lat="47.75146" lon="-3.28961">
        <ele>35</ele>
        <time>2011-08-29T12:51:49Z</time>
      </trkpt>
      <trkpt lat="47.75149" lon="-3.28964">
        <ele>35</ele>
        <time>2011-08-29T12:51:50Z</time>
      </trkpt>
      <trkpt lat="47.75151" lon="-3.28975">
        <ele>35</ele>
        <time>2011-08-29T12:51:52Z</time>
      </trkpt>
      <trkpt lat="47.75152" lon="-3.28987">
        <ele>35</ele>
        <time>2011-08-29T12:51:54Z</time>
      </trkpt>
      <trkpt lat="47.75151" lon="-3.2902">
        <ele>35</ele>
        <time>2011-08-29T12:51:59Z</time>
      </trkpt>
      <trkpt lat="47.75154" lon="-3.29034">
        <ele>36</ele>
        <time>2011-08-29T12:52:01Z</time>
      </trkpt>
      <trkpt lat="47.75163" lon="-3.29061">
        <ele>35</ele>
        <time>2011-08-29T12:52:05Z</time>
      </trkpt>
      <trkpt lat="47.7517" lon="-3.29073">
        <ele>35</ele>
        <time>2011-08-29T12:52:07Z</time>
      </trkpt>
      <trkpt lat="47.75179" lon="-3.29095">
        <ele>35</ele>
        <time>2011-08-29T12:52:11Z</time>
      </trkpt>
      <trkpt lat="47.75188" lon="-3.29155">
        <ele>34</ele>
        <time>2011-08-29T12:52:19Z</time>
      </trkpt>
      <trkpt lat="47.75191" lon="-3.2919">
        <ele>33</ele>
        <time>2011-08-29T12:52:24Z</time>
      </trkpt>
      <trkpt lat="47.75196" lon="-3.292">
        <ele>33</ele>
        <time>2011-08-29T12:52:26Z</time>
      </trkpt>
      <trkpt lat="47.75211" lon="-3.29216">
        <ele>33</ele>
        <time>2011-08-29T12:52:30Z</time>
      </trkpt>
      <trkpt lat="47.75215" lon="-3.29228">
        <ele>33</ele>
        <time>2011-08-29T12:52:32Z</time>
      </trkpt>
      <trkpt lat="47.75218" lon="-3.29264">
        <ele>33</ele>
        <time>2011-08-29T12:52:37Z</time>
      </trkpt>
      <trkpt lat="47.75219" lon="-3.29305">
        <ele>33</ele>
        <time>2011-08-29T12:52:43Z</time>
      </trkpt>
      <trkpt lat="47.75222" lon="-3.29345">
        <ele>33</ele>
        <time>2011-08-29T12:52:50Z</time>
      </trkpt>
      <trkpt lat="47.75221" lon="-3.29388">
        <ele>32</ele>
        <time>2011-08-29T12:52:57Z</time>
      </trkpt>
      <trkpt lat="47.75223" lon="-3.29394">
        <ele>32</ele>
        <time>2011-08-29T12:52:58Z</time>
      </trkpt>
      <trkpt lat="47.75259" lon="-3.2943">
        <ele>31</ele>
        <time>2011-08-29T12:53:05Z</time>
      </trkpt>
      <trkpt lat="47.75273" lon="-3.29451">
        <ele>30</ele>
        <time>2011-08-29T12:53:08Z</time>
      </trkpt>
      <trkpt lat="47.75277" lon="-3.29488">
        <ele>30</ele>
        <time>2011-08-29T12:53:12Z</time>
      </trkpt>
      <trkpt lat="47.75277" lon="-3.29557">
        <ele>29</ele>
        <time>2011-08-29T12:53:19Z</time>
      </trkpt>
      <trkpt lat="47.75287" lon="-3.29599">
        <ele>29</ele>
        <time>2011-08-29T12:53:24Z</time>
      </trkpt>
      <trkpt lat="47.75294" lon="-3.29604">
        <ele>29</ele>
        <time>2011-08-29T12:53:26Z</time>
      </trkpt>
      <trkpt lat="47.75302" lon="-3.29604">
        <ele>28</ele>
        <time>2011-08-29T12:53:28Z</time>
      </trkpt>
      <trkpt lat="47.75306" lon="-3.29603">
        <ele>28</ele>
        <time>2011-08-29T12:53:29Z</time>
      </trkpt>
      <trkpt lat="47.75339" lon="-3.29584">
        <ele>26</ele>
        <time>2011-08-29T12:53:43Z</time>
      </trkpt>
      <trkpt lat="47.75357" lon="-3.29578">
        <ele>28</ele>
        <time>2011-08-29T12:53:50Z</time>
      </trkpt>
      <trkpt lat="47.75368" lon="-3.29577">
        <ele>28</ele>
        <time>2011-08-29T12:53:53Z</time>
      </trkpt>
      <trkpt lat="47.755" lon="-3.29601">
        <ele>27</ele>
        <time>2011-08-29T12:54:24Z</time>
      </trkpt>
      <trkpt lat="47.75565" lon="-3.29617">
        <ele>27</ele>
        <time>2011-08-29T12:54:41Z</time>
      </trkpt>
      <trkpt lat="47.75591" lon="-3.2962">
        <ele>27</ele>
        <time>2011-08-29T12:54:48Z</time>
      </trkpt>
      <trkpt lat="47.75636" lon="-3.29606">
        <ele>27</ele>
        <time>2011-08-29T12:55:00Z</time>
      </trkpt>
      <trkpt lat="47.75734" lon="-3.29584">
        <ele>30</ele>
        <time>2011-08-29T12:55:27Z</time>
      </trkpt>
      <trkpt lat="47.75763" lon="-3.29575">
        <ele>31</ele>
        <time>2011-08-29T12:55:35Z</time>
      </trkpt>
      <trkpt lat="47.75794" lon="-3.2957">
        <ele>31</ele>
        <time>2011-08-29T12:55:43Z</time>
      </trkpt>
      <trkpt lat="47.75883" lon="-3.29569">
        <ele>29</ele>
        <time>2011-08-29T12:56:06Z</time>
      </trkpt>
      <trkpt lat="47.75915" lon="-3.29575">
        <ele>29</ele>
        <time>2011-08-29T12:56:14Z</time>
      </trkpt>
      <trkpt lat="47.75931" lon="-3.2958">
        <ele>29</ele>
        <time>2011-08-29T12:56:18Z</time>
      </trkpt>
      <trkpt lat="47.7594" lon="-3.29581">
        <ele>29</ele>
        <time>2011-08-29T12:56:20Z</time>
      </trkpt>
      <trkpt lat="47.75949" lon="-3.29576">
        <ele>29</ele>
        <time>2011-08-29T12:56:22Z</time>
      </trkpt>
      <trkpt lat="47.75957" lon="-3.29567">
        <ele>28</ele>
        <time>2011-08-29T12:56:24Z</time>
      </trkpt>
      <trkpt lat="47.75976" lon="-3.2953">
        <ele>28</ele>
        <time>2011-08-29T12:56:30Z</time>
      </trkpt>
      <trkpt lat="47.75985" lon="-3.2952">
        <ele>28</ele>
        <time>2011-08-29T12:56:32Z</time>
      </trkpt>
      <trkpt lat="47.76007" lon="-3.29508">
        <ele>28</ele>
        <time>2011-08-29T12:56:36Z</time>
      </trkpt>
      <trkpt lat="47.76041" lon="-3.29496">
        <ele>29</ele>
        <time>2011-08-29T12:56:42Z</time>
      </trkpt>
      <trkpt lat="47.76093" lon="-3.29472">
        <ele>30</ele>
        <time>2011-08-29T12:56:51Z</time>
      </trkpt>
      <trkpt lat="47.76111" lon="-3.29466">
        <ele>30</ele>
        <time>2011-08-29T12:56:54Z</time>
      </trkpt>
      <trkpt lat="47.76123" lon="-3.29464">
        <ele>30</ele>
        <time>2011-08-29T12:56:56Z</time>
      </trkpt>
      <trkpt lat="47.76148" lon="-3.2947">
        <ele>29</ele>
        <time>2011-08-29T12:57:00Z</time>
      </trkpt>
      <trkpt lat="47.76161" lon="-3.29476">
        <ele>29</ele>
        <time>2011-08-29T12:57:02Z</time>
      </trkpt>
      <trkpt lat="47.76206" lon="-3.2951">
        <ele>25</ele>
        <time>2011-08-29T12:57:10Z</time>
      </trkpt>
      <trkpt lat="47.76216" lon="-3.29515">
        <ele>25</ele>
        <time>2011-08-29T12:57:12Z</time>
      </trkpt>
      <trkpt lat="47.76236" lon="-3.29521">
        <ele>25</ele>
        <time>2011-08-29T12:57:17Z</time>
      </trkpt>
      <trkpt lat="47.76249" lon="-3.29527">
        <ele>25</ele>
        <time>2011-08-29T12:57:23Z</time>
      </trkpt>
      <trkpt lat="47.76317" lon="-3.29523">
        <ele>24</ele>
        <time>2011-08-29T12:57:34Z</time>
      </trkpt>
      <trkpt lat="47.76352" lon="-3.29523">
        <ele>24</ele>
        <time>2011-08-29T12:57:39Z</time>
      </trkpt>
      <trkpt lat="47.7639" lon="-3.29526">
        <ele>24</ele>
        <time>2011-08-29T12:57:45Z</time>
      </trkpt>
      <trkpt lat="47.76414" lon="-3.29532">
        <ele>24</ele>
        <time>2011-08-29T12:57:49Z</time>
      </trkpt>
      <trkpt lat="47.76469" lon="-3.29552">
        <ele>24</ele>
        <time>2011-08-29T12:58:00Z</time>
      </trkpt>
      <trkpt lat="47.76476" lon="-3.29558">
        <ele>24</ele>
        <time>2011-08-29T12:58:02Z</time>
      </trkpt>
      <trkpt lat="47.76478" lon="-3.29562">
        <ele>24</ele>
        <time>2011-08-29T12:58:03Z</time>
      </trkpt>
      <trkpt lat="47.76479" lon="-3.29568">
        <ele>24</ele>
        <time>2011-08-29T12:58:04Z</time>
      </trkpt>
      <trkpt lat="47.76479" lon="-3.29587">
        <ele>24</ele>
        <time>2011-08-29T12:58:07Z</time>
      </trkpt>
      <trkpt lat="47.76476" lon="-3.29601">
        <ele>24</ele>
        <time>2011-08-29T12:58:09Z</time>
      </trkpt>
      <trkpt lat="47.7647" lon="-3.2962">
        <ele>25</ele>
        <time>2011-08-29T12:58:12Z</time>
      </trkpt>
      <trkpt lat="47.76461" lon="-3.29636">
        <ele>25</ele>
        <time>2011-08-29T12:58:15Z</time>
      </trkpt>
      <trkpt lat="47.76387" lon="-3.29758">
        <ele>30</ele>
        <time>2011-08-29T12:58:38Z</time>
      </trkpt>
      <trkpt lat="47.76381" lon="-3.29769">
        <ele>29</ele>
        <time>2011-08-29T12:58:40Z</time>
      </trkpt>
      <trkpt lat="47.76378" lon="-3.29782">
        <ele>29</ele>
        <time>2011-08-29T12:58:42Z</time>
      </trkpt>
      <trkpt lat="47.76381" lon="-3.29831">
        <ele>30</ele>
        <time>2011-08-29T12:58:49Z</time>
      </trkpt>
      <trkpt lat="47.76388" lon="-3.29872">
        <ele>29</ele>
        <time>2011-08-29T12:58:55Z</time>
      </trkpt>
      <trkpt lat="47.76394" lon="-3.2989">
        <ele>29</ele>
        <time>2011-08-29T12:58:58Z</time>
      </trkpt>
      <trkpt lat="47.76403" lon="-3.29914">
        <ele>29</ele>
        <time>2011-08-29T12:59:02Z</time>
      </trkpt>
      <trkpt lat="47.76416" lon="-3.29941">
        <ele>26</ele>
        <time>2011-08-29T12:59:07Z</time>
      </trkpt>
      <trkpt lat="47.76425" lon="-3.29955">
        <ele>25</ele>
        <time>2011-08-29T12:59:10Z</time>
      </trkpt>
      <trkpt lat="47.76443" lon="-3.29977">
        <ele>23</ele>
        <time>2011-08-29T12:59:15Z</time>
      </trkpt>
      <trkpt lat="47.76449" lon="-3.29989">
        <ele>23</ele>
        <time>2011-08-29T12:59:17Z</time>
      </trkpt>
      <trkpt lat="47.76449" lon="-3.29995">
        <ele>22</ele>
        <time>2011-08-29T12:59:18Z</time>
      </trkpt>
      <trkpt lat="47.76447" lon="-3.30005">
        <ele>18</ele>
        <time>2011-08-29T12:59:20Z</time>
      </trkpt>
      <trkpt lat="47.7644" lon="-3.30014">
        <ele>18</ele>
        <time>2011-08-29T12:59:23Z</time>
      </trkpt>
      <trkpt lat="47.76427" lon="-3.30023">
        <ele>18</ele>
        <time>2011-08-29T12:59:28Z</time>
      </trkpt>
      <trkpt lat="47.76412" lon="-3.30026">
        <ele>19</ele>
        <time>2011-08-29T12:59:31Z</time>
      </trkpt>
      <trkpt lat="47.76407" lon="-3.30025">
        <ele>19</ele>
        <time>2011-08-29T12:59:32Z</time>
      </trkpt>
      <trkpt lat="47.76399" lon="-3.30021">
        <ele>19</ele>
        <time>2011-08-29T12:59:34Z</time>
      </trkpt>
      <trkpt lat="47.7639" lon="-3.30011">
        <ele>19</ele>
        <time>2011-08-29T12:59:37Z</time>
      </trkpt>
      <trkpt lat="47.76383" lon="-3.29991">
        <ele>23</ele>
        <time>2011-08-29T12:59:42Z</time>
      </trkpt>
      <trkpt lat="47.76372" lon="-3.29942">
        <ele>25</ele>
        <time>2011-08-29T12:59:52Z</time>
      </trkpt>
      <trkpt lat="47.7636" lon="-3.29909">
        <ele>28</ele>
        <time>2011-08-29T12:59:59Z</time>
      </trkpt>
      <trkpt lat="47.76347" lon="-3.29878">
        <ele>28</ele>
        <time>2011-08-29T13:00:06Z</time>
      </trkpt>
      <trkpt lat="47.76339" lon="-3.29852">
        <ele>27</ele>
        <time>2011-08-29T13:00:10Z</time>
      </trkpt>
      <trkpt lat="47.76339" lon="-3.29844">
        <ele>27</ele>
        <time>2011-08-29T13:00:11Z</time>
      </trkpt>
      <trkpt lat="47.76341" lon="-3.29831">
        <ele>27</ele>
        <time>2011-08-29T13:00:13Z</time>
      </trkpt>
      <trkpt lat="47.76344" lon="-3.29826">
        <ele>27</ele>
        <time>2011-08-29T13:00:14Z</time>
      </trkpt>
      <trkpt lat="47.76349" lon="-3.29823">
        <ele>28</ele>
        <time>2011-08-29T13:00:16Z</time>
      </trkpt>
      <trkpt lat="47.76354" lon="-3.29829">
        <ele>28</ele>
        <time>2011-08-29T13:00:18Z</time>
      </trkpt>
      <trkpt lat="47.76374" lon="-3.29894">
        <ele>29</ele>
        <time>2011-08-29T13:00:29Z</time>
      </trkpt>
      <trkpt lat="47.76391" lon="-3.2994">
        <ele>26</ele>
        <time>2011-08-29T13:00:37Z</time>
      </trkpt>
      <trkpt lat="47.76411" lon="-3.2999">
        <ele>22</ele>
        <time>2011-08-29T13:00:52Z</time>
      </trkpt>
      <trkpt lat="47.76452" lon="-3.30086">
        <ele>12</ele>
        <time>2011-08-29T13:01:38Z</time>
      </trkpt>
      <trkpt lat="47.76514" lon="-3.30256">
        <ele>19</ele>
        <time>2011-08-29T13:02:59Z</time>
      </trkpt>
      <trkpt lat="47.76543" lon="-3.30326">
        <ele>19</ele>
        <time>2011-08-29T13:03:34Z</time>
      </trkpt>
      <trkpt lat="47.76559" lon="-3.30358">
        <ele>19</ele>
        <time>2011-08-29T13:03:50Z</time>
      </trkpt>
      <trkpt lat="47.76575" lon="-3.30413">
        <ele>24</ele>
        <time>2011-08-29T13:04:10Z</time>
      </trkpt>
      <trkpt lat="47.76585" lon="-3.30459">
        <ele>29</ele>
        <time>2011-08-29T13:04:18Z</time>
      </trkpt>
      <trkpt lat="47.76588" lon="-3.30494">
        <ele>30</ele>
        <time>2011-08-29T13:04:23Z</time>
      </trkpt>
      <trkpt lat="47.76592" lon="-3.30515">
        <ele>31</ele>
        <time>2011-08-29T13:04:27Z</time>
      </trkpt>
      <trkpt lat="47.76593" lon="-3.30578">
        <ele>28</ele>
        <time>2011-08-29T13:04:38Z</time>
      </trkpt>
      <trkpt lat="47.76595" lon="-3.30591">
        <ele>27</ele>
        <time>2011-08-29T13:04:40Z</time>
      </trkpt>
      <trkpt lat="47.76605" lon="-3.30638">
        <ele>26</ele>
        <time>2011-08-29T13:04:54Z</time>
      </trkpt>
      <trkpt lat="47.76599" lon="-3.30654">
        <ele>25</ele>
        <time>2011-08-29T13:04:59Z</time>
      </trkpt>
      <trkpt lat="47.766" lon="-3.30666">
        <ele>24</ele>
        <time>2011-08-29T13:05:01Z</time>
      </trkpt>
      <trkpt lat="47.76619" lon="-3.30744">
        <ele>24</ele>
        <time>2011-08-29T13:05:10Z</time>
      </trkpt>
      <trkpt lat="47.76625" lon="-3.30777">
        <ele>24</ele>
        <time>2011-08-29T13:05:14Z</time>
      </trkpt>
      <trkpt lat="47.76636" lon="-3.30915">
        <ele>25</ele>
        <time>2011-08-29T13:05:32Z</time>
      </trkpt>
      <trkpt lat="47.76637" lon="-3.3093">
        <ele>25</ele>
        <time>2011-08-29T13:05:34Z</time>
      </trkpt>
      <trkpt lat="47.76635" lon="-3.30951">
        <ele>26</ele>
        <time>2011-08-29T13:05:37Z</time>
      </trkpt>
      <trkpt lat="47.76627" lon="-3.30976">
        <ele>26</ele>
        <time>2011-08-29T13:05:41Z</time>
      </trkpt>
      <trkpt lat="47.76617" lon="-3.30998">
        <ele>26</ele>
        <time>2011-08-29T13:05:45Z</time>
      </trkpt>
      <trkpt lat="47.76574" lon="-3.3106">
        <ele>25</ele>
        <time>2011-08-29T13:05:57Z</time>
      </trkpt>
      <trkpt lat="47.76521" lon="-3.31132">
        <ele>26</ele>
        <time>2011-08-29T13:06:12Z</time>
      </trkpt>
      <trkpt lat="47.76499" lon="-3.31168">
        <ele>27</ele>
        <time>2011-08-29T13:06:20Z</time>
      </trkpt>
      <trkpt lat="47.76476" lon="-3.31221">
        <ele>25</ele>
        <time>2011-08-29T13:06:29Z</time>
      </trkpt>
      <trkpt lat="47.76438" lon="-3.31321">
        <ele>27</ele>
        <time>2011-08-29T13:06:46Z</time>
      </trkpt>
      <trkpt lat="47.76431" lon="-3.31344">
        <ele>28</ele>
        <time>2011-08-29T13:06:50Z</time>
      </trkpt>
      <trkpt lat="47.76426" lon="-3.31368">
        <ele>29</ele>
        <time>2011-08-29T13:06:54Z</time>
      </trkpt>
      <trkpt lat="47.7641" lon="-3.31465">
        <ele>32</ele>
        <time>2011-08-29T13:07:10Z</time>
      </trkpt>
      <trkpt lat="47.76408" lon="-3.31495">
        <ele>32</ele>
        <time>2011-08-29T13:07:15Z</time>
      </trkpt>
      <trkpt lat="47.76405" lon="-3.31506">
        <ele>32</ele>
        <time>2011-08-29T13:07:17Z</time>
      </trkpt>
      <trkpt lat="47.76396" lon="-3.31517">
        <ele>33</ele>
        <time>2011-08-29T13:07:20Z</time>
      </trkpt>
      <trkpt lat="47.76389" lon="-3.31532">
        <ele>33</ele>
        <time>2011-08-29T13:07:23Z</time>
      </trkpt>
      <trkpt lat="47.7637" lon="-3.31585">
        <ele>33</ele>
        <time>2011-08-29T13:07:33Z</time>
      </trkpt>
      <trkpt lat="47.76358" lon="-3.31631">
        <ele>33</ele>
        <time>2011-08-29T13:07:41Z</time>
      </trkpt>
      <trkpt lat="47.76348" lon="-3.31706">
        <ele>33</ele>
        <time>2011-08-29T13:07:54Z</time>
      </trkpt>
      <trkpt lat="47.76343" lon="-3.31761">
        <ele>32</ele>
        <time>2011-08-29T13:08:03Z</time>
      </trkpt>
      <trkpt lat="47.76333" lon="-3.31817">
        <ele>31</ele>
        <time>2011-08-29T13:08:11Z</time>
      </trkpt>
      <trkpt lat="47.76321" lon="-3.31904">
        <ele>28</ele>
        <time>2011-08-29T13:08:21Z</time>
      </trkpt>
      <trkpt lat="47.76299" lon="-3.31976">
        <ele>27</ele>
        <time>2011-08-29T13:08:29Z</time>
      </trkpt>
      <trkpt lat="47.76269" lon="-3.3206">
        <ele>23</ele>
        <time>2011-08-29T13:08:38Z</time>
      </trkpt>
      <trkpt lat="47.76252" lon="-3.32082">
        <ele>23</ele>
        <time>2011-08-29T13:08:41Z</time>
      </trkpt>
      <trkpt lat="47.7623" lon="-3.32095">
        <ele>20</ele>
        <time>2011-08-29T13:08:44Z</time>
      </trkpt>
      <trkpt lat="47.76214" lon="-3.32097">
        <ele>19</ele>
        <time>2011-08-29T13:08:46Z</time>
      </trkpt>
      <trkpt lat="47.76198" lon="-3.32096">
        <ele>19</ele>
        <time>2011-08-29T13:08:48Z</time>
      </trkpt>
      <trkpt lat="47.7614" lon="-3.32082">
        <ele>20</ele>
        <time>2011-08-29T13:08:55Z</time>
      </trkpt>
      <trkpt lat="47.76115" lon="-3.32079">
        <ele>18</ele>
        <time>2011-08-29T13:08:58Z</time>
      </trkpt>
      <trkpt lat="47.76108" lon="-3.32081">
        <ele>18</ele>
        <time>2011-08-29T13:08:59Z</time>
      </trkpt>
      <trkpt lat="47.76101" lon="-3.32085">
        <ele>14</ele>
        <time>2011-08-29T13:09:00Z</time>
      </trkpt>
      <trkpt lat="47.76095" lon="-3.3209">
        <ele>14</ele>
        <time>2011-08-29T13:09:01Z</time>
      </trkpt>
      <trkpt lat="47.76083" lon="-3.32102">
        <ele>12</ele>
        <time>2011-08-29T13:09:03Z</time>
      </trkpt>
      <trkpt lat="47.76074" lon="-3.32122">
        <ele>12</ele>
        <time>2011-08-29T13:09:05Z</time>
      </trkpt>
      <trkpt lat="47.76071" lon="-3.32143">
        <ele>11</ele>
        <time>2011-08-29T13:09:07Z</time>
      </trkpt>
      <trkpt lat="47.76069" lon="-3.32175">
        <ele>10</ele>
        <time>2011-08-29T13:09:10Z</time>
      </trkpt>
      <trkpt lat="47.76069" lon="-3.32243">
        <ele>9</ele>
        <time>2011-08-29T13:09:16Z</time>
      </trkpt>
      <trkpt lat="47.76067" lon="-3.32267">
        <ele>8</ele>
        <time>2011-08-29T13:09:18Z</time>
      </trkpt>
      <trkpt lat="47.76064" lon="-3.32278">
        <ele>8</ele>
        <time>2011-08-29T13:09:19Z</time>
      </trkpt>
      <trkpt lat="47.76056" lon="-3.32299">
        <ele>7</ele>
        <time>2011-08-29T13:09:21Z</time>
      </trkpt>
      <trkpt lat="47.76047" lon="-3.32317">
        <ele>7</ele>
        <time>2011-08-29T13:09:23Z</time>
      </trkpt>
      <trkpt lat="47.75983" lon="-3.32429">
        <ele>5</ele>
        <time>2011-08-29T13:09:36Z</time>
      </trkpt>
      <trkpt lat="47.75975" lon="-3.32446">
        <ele>4</ele>
        <time>2011-08-29T13:09:38Z</time>
      </trkpt>
      <trkpt lat="47.75967" lon="-3.32473">
        <ele>4</ele>
        <time>2011-08-29T13:09:41Z</time>
      </trkpt>
      <trkpt lat="47.75949" lon="-3.32544">
        <ele>4</ele>
        <time>2011-08-29T13:09:50Z</time>
      </trkpt>
      <trkpt lat="47.75946" lon="-3.32558">
        <ele>4</ele>
        <time>2011-08-29T13:09:52Z</time>
      </trkpt>
      <trkpt lat="47.75942" lon="-3.32632">
        <ele>4</ele>
        <time>2011-08-29T13:10:03Z</time>
      </trkpt>
      <trkpt lat="47.75945" lon="-3.32653">
        <ele>4</ele>
        <time>2011-08-29T13:10:06Z</time>
      </trkpt>
      <trkpt lat="47.75933" lon="-3.32731">
        <ele>4</ele>
        <time>2011-08-29T13:10:19Z</time>
      </trkpt>
      <trkpt lat="47.75925" lon="-3.32842">
        <ele>5</ele>
        <time>2011-08-29T13:10:37Z</time>
      </trkpt>
      <trkpt lat="47.7592" lon="-3.32896">
        <ele>7</ele>
        <time>2011-08-29T13:10:46Z</time>
      </trkpt>
      <trkpt lat="47.75917" lon="-3.32938">
        <ele>8</ele>
        <time>2011-08-29T13:10:53Z</time>
      </trkpt>
      <trkpt lat="47.75924" lon="-3.32979">
        <ele>7</ele>
        <time>2011-08-29T13:11:00Z</time>
      </trkpt>
      <trkpt lat="47.75931" lon="-3.33">
        <ele>7</ele>
        <time>2011-08-29T13:11:04Z</time>
      </trkpt>
      <trkpt lat="47.75938" lon="-3.3301">
        <ele>7</ele>
        <time>2011-08-29T13:11:06Z</time>
      </trkpt>
      <trkpt lat="47.75958" lon="-3.33034">
        <ele>6</ele>
        <time>2011-08-29T13:11:11Z</time>
      </trkpt>
      <trkpt lat="47.75967" lon="-3.33055">
        <ele>6</ele>
        <time>2011-08-29T13:11:14Z</time>
      </trkpt>
      <trkpt lat="47.75974" lon="-3.3308">
        <ele>6</ele>
        <time>2011-08-29T13:11:17Z</time>
      </trkpt>
      <trkpt lat="47.75982" lon="-3.3318">
        <ele>10</ele>
        <time>2011-08-29T13:11:33Z</time>
      </trkpt>
      <trkpt lat="47.75982" lon="-3.33205">
        <ele>11</ele>
        <time>2011-08-29T13:11:37Z</time>
      </trkpt>
      <trkpt lat="47.75977" lon="-3.33258">
        <ele>14</ele>
        <time>2011-08-29T13:11:46Z</time>
      </trkpt>
      <trkpt lat="47.75969" lon="-3.33308">
        <ele>15</ele>
        <time>2011-08-29T13:11:56Z</time>
      </trkpt>
      <trkpt lat="47.75963" lon="-3.33338">
        <ele>16</ele>
        <time>2011-08-29T13:12:02Z</time>
      </trkpt>
      <trkpt lat="47.7595" lon="-3.33382">
        <ele>16</ele>
        <time>2011-08-29T13:12:10Z</time>
      </trkpt>
      <trkpt lat="47.75929" lon="-3.33429">
        <ele>16</ele>
        <time>2011-08-29T13:12:18Z</time>
      </trkpt>
      <trkpt lat="47.75921" lon="-3.33452">
        <ele>16</ele>
        <time>2011-08-29T13:12:22Z</time>
      </trkpt>
      <trkpt lat="47.75912" lon="-3.33484">
        <ele>17</ele>
        <time>2011-08-29T13:12:27Z</time>
      </trkpt>
      <trkpt lat="47.75906" lon="-3.33523">
        <ele>17</ele>
        <time>2011-08-29T13:12:33Z</time>
      </trkpt>
      <trkpt lat="47.75893" lon="-3.33655">
        <ele>17</ele>
        <time>2011-08-29T13:12:58Z</time>
      </trkpt>
      <trkpt lat="47.75893" lon="-3.33704">
        <ele>18</ele>
        <time>2011-08-29T13:13:06Z</time>
      </trkpt>
      <trkpt lat="47.75895" lon="-3.33728">
        <ele>18</ele>
        <time>2011-08-29T13:13:10Z</time>
      </trkpt>
      <trkpt lat="47.75901" lon="-3.33749">
        <ele>18</ele>
        <time>2011-08-29T13:13:14Z</time>
      </trkpt>
      <trkpt lat="47.75914" lon="-3.33771">
        <ele>19</ele>
        <time>2011-08-29T13:13:20Z</time>
      </trkpt>
      <trkpt lat="47.75916" lon="-3.33787">
        <ele>20</ele>
        <time>2011-08-29T13:13:23Z</time>
      </trkpt>
      <trkpt lat="47.7591" lon="-3.33815">
        <ele>20</ele>
        <time>2011-08-29T13:13:28Z</time>
      </trkpt>
      <trkpt lat="47.75897" lon="-3.33846">
        <ele>22</ele>
        <time>2011-08-29T13:13:34Z</time>
      </trkpt>
      <trkpt lat="47.75882" lon="-3.33872">
        <ele>23</ele>
        <time>2011-08-29T13:13:40Z</time>
      </trkpt>
      <trkpt lat="47.7584" lon="-3.33957">
        <ele>25</ele>
        <time>2011-08-29T13:13:58Z</time>
      </trkpt>
      <trkpt lat="47.75823" lon="-3.33987">
        <ele>25</ele>
        <time>2011-08-29T13:14:05Z</time>
      </trkpt>
      <trkpt lat="47.75801" lon="-3.34018">
        <ele>24</ele>
        <time>2011-08-29T13:14:13Z</time>
      </trkpt>
      <trkpt lat="47.7578" lon="-3.34056">
        <ele>24</ele>
        <time>2011-08-29T13:14:22Z</time>
      </trkpt>
      <trkpt lat="47.75755" lon="-3.34106">
        <ele>23</ele>
        <time>2011-08-29T13:14:32Z</time>
      </trkpt>
      <trkpt lat="47.75744" lon="-3.34134">
        <ele>23</ele>
        <time>2011-08-29T13:15:02Z</time>
      </trkpt>
      <trkpt lat="47.75731" lon="-3.34178">
        <ele>22</ele>
        <time>2011-08-29T13:15:11Z</time>
      </trkpt>
      <trkpt lat="47.75723" lon="-3.34217">
        <ele>22</ele>
        <time>2011-08-29T13:15:18Z</time>
      </trkpt>
      <trkpt lat="47.75708" lon="-3.34316">
        <ele>19</ele>
        <time>2011-08-29T13:15:33Z</time>
      </trkpt>
      <trkpt lat="47.757" lon="-3.34395">
        <ele>16</ele>
        <time>2011-08-29T13:15:41Z</time>
      </trkpt>
      <trkpt lat="47.75691" lon="-3.34462">
        <ele>13</ele>
        <time>2011-08-29T13:15:47Z</time>
      </trkpt>
      <trkpt lat="47.7569" lon="-3.34485">
        <ele>13</ele>
        <time>2011-08-29T13:15:49Z</time>
      </trkpt>
      <trkpt lat="47.75709" lon="-3.34603">
        <ele>9</ele>
        <time>2011-08-29T13:16:05Z</time>
      </trkpt>
      <trkpt lat="47.75712" lon="-3.34614">
        <ele>9</ele>
        <time>2011-08-29T13:16:07Z</time>
      </trkpt>
      <trkpt lat="47.75718" lon="-3.34622">
        <ele>9</ele>
        <time>2011-08-29T13:16:09Z</time>
      </trkpt>
      <trkpt lat="47.75724" lon="-3.34635">
        <ele>9</ele>
        <time>2011-08-29T13:16:12Z</time>
      </trkpt>
      <trkpt lat="47.75725" lon="-3.34663">
        <ele>8</ele>
        <time>2011-08-29T13:16:16Z</time>
      </trkpt>
      <trkpt lat="47.75727" lon="-3.34671">
        <ele>7</ele>
        <time>2011-08-29T13:16:17Z</time>
      </trkpt>
      <trkpt lat="47.75729" lon="-3.34679">
        <ele>7</ele>
        <time>2011-08-29T13:16:18Z</time>
      </trkpt>
      <trkpt lat="47.75737" lon="-3.34694">
        <ele>7</ele>
        <time>2011-08-29T13:16:20Z</time>
      </trkpt>
      <trkpt lat="47.75765" lon="-3.34731">
        <ele>8</ele>
        <time>2011-08-29T13:16:27Z</time>
      </trkpt>
      <trkpt lat="47.75774" lon="-3.34755">
        <ele>8</ele>
        <time>2011-08-29T13:16:31Z</time>
      </trkpt>
      <trkpt lat="47.75777" lon="-3.34774">
        <ele>8</ele>
        <time>2011-08-29T13:16:34Z</time>
      </trkpt>
      <trkpt lat="47.75769" lon="-3.34954">
        <ele>8</ele>
        <time>2011-08-29T13:17:00Z</time>
      </trkpt>
      <trkpt lat="47.75762" lon="-3.34996">
        <ele>7</ele>
        <time>2011-08-29T13:17:06Z</time>
      </trkpt>
      <trkpt lat="47.75733" lon="-3.35103">
        <ele>3</ele>
        <time>2011-08-29T13:17:19Z</time>
      </trkpt>
      <trkpt lat="47.75732" lon="-3.35118">
        <ele>3</ele>
        <time>2011-08-29T13:17:21Z</time>
      </trkpt>
      <trkpt lat="47.75734" lon="-3.35125">
        <ele>3</ele>
        <time>2011-08-29T13:17:22Z</time>
      </trkpt>
      <trkpt lat="47.75738" lon="-3.3513">
        <ele>3</ele>
        <time>2011-08-29T13:17:23Z</time>
      </trkpt>
      <trkpt lat="47.75748" lon="-3.35136">
        <ele>3</ele>
        <time>2011-08-29T13:17:25Z</time>
      </trkpt>
      <trkpt lat="47.75758" lon="-3.3514">
        <ele>4</ele>
        <time>2011-08-29T13:17:27Z</time>
      </trkpt>
      <trkpt lat="47.75767" lon="-3.35139">
        <ele>4</ele>
        <time>2011-08-29T13:17:29Z</time>
      </trkpt>
      <trkpt lat="47.75777" lon="-3.35142">
        <ele>3</ele>
        <time>2011-08-29T13:17:31Z</time>
      </trkpt>
      <trkpt lat="47.75793" lon="-3.3515">
        <ele>3</ele>
        <time>2011-08-29T13:17:35Z</time>
      </trkpt>
      <trkpt lat="47.758" lon="-3.35155">
        <ele>3</ele>
        <time>2011-08-29T13:17:43Z</time>
      </trkpt>
      <trkpt lat="47.75803" lon="-3.35168">
        <ele>1</ele>
        <time>2011-08-29T13:17:46Z</time>
      </trkpt>
      <trkpt lat="47.75806" lon="-3.35172">
        <ele>1</ele>
        <time>2011-08-29T13:17:47Z</time>
      </trkpt>
      <trkpt lat="47.75859" lon="-3.35213">
        <ele>1</ele>
        <time>2011-08-29T13:17:59Z</time>
      </trkpt>
      <trkpt lat="47.7591" lon="-3.35258">
        <ele>1</ele>
        <time>2011-08-29T13:18:14Z</time>
      </trkpt>
      <trkpt lat="47.75911" lon="-3.35261">
        <ele>1</ele>
        <time>2011-08-29T13:18:15Z</time>
      </trkpt>
      <trkpt lat="47.75911" lon="-3.3527">
        <ele>1</ele>
        <time>2011-08-29T13:18:17Z</time>
      </trkpt>
      <trkpt lat="47.75875" lon="-3.35319">
        <ele>1</ele>
        <time>2011-08-29T13:18:28Z</time>
      </trkpt>
      <trkpt lat="47.75816" lon="-3.35393">
        <ele>2</ele>
        <time>2011-08-29T13:18:46Z</time>
      </trkpt>
      <trkpt lat="47.75742" lon="-3.35483">
        <ele>2.8</ele>
        <time>2011-08-29T13:19:05Z</time>
      </trkpt>
      <trkpt lat="47.75736" lon="-3.35488">
        <ele>3.5</ele>
        <time>2011-08-29T13:19:07Z</time>
      </trkpt>
      <trkpt lat="47.75721" lon="-3.35486">
        <ele>5</ele>
        <time>2011-08-29T13:19:11Z</time>
      </trkpt>
      <trkpt lat="47.75718" lon="-3.35488">
        <ele>5.1</ele>
        <time>2011-08-29T13:19:12Z</time>
      </trkpt>
      <trkpt lat="47.75714" lon="-3.35493">
        <ele>5.3</ele>
        <time>2011-08-29T13:19:14Z</time>
      </trkpt>
      <trkpt lat="47.75706" lon="-3.35495">
        <ele>5.3</ele>
        <time>2011-08-29T13:19:16Z</time>
      </trkpt>
      <trkpt lat="47.75662" lon="-3.35484">
        <ele>3.9</ele>
        <time>2011-08-29T13:19:24Z</time>
      </trkpt>
      <trkpt lat="47.75638" lon="-3.3548">
        <ele>3.3</ele>
        <time>2011-08-29T13:19:28Z</time>
      </trkpt>
      <trkpt lat="47.75606" lon="-3.35479">
        <ele>4.1</ele>
        <time>2011-08-29T13:19:34Z</time>
      </trkpt>
      <trkpt lat="47.75585" lon="-3.35476">
        <ele>4.8</ele>
        <time>2011-08-29T13:19:38Z</time>
      </trkpt>
      <trkpt lat="47.75572" lon="-3.35481">
        <ele>5</ele>
        <time>2011-08-29T13:19:41Z</time>
      </trkpt>
      <trkpt lat="47.75562" lon="-3.35481">
        <ele>5</ele>
        <time>2011-08-29T13:19:43Z</time>
      </trkpt>
      <trkpt lat="47.75542" lon="-3.35477">
        <ele>5</ele>
        <time>2011-08-29T13:19:47Z</time>
      </trkpt>
      <trkpt lat="47.75514" lon="-3.35467">
        <ele>5</ele>
        <time>2011-08-29T13:19:53Z</time>
      </trkpt>
      <trkpt lat="47.75505" lon="-3.3547">
        <ele>5</ele>
        <time>2011-08-29T13:19:55Z</time>
      </trkpt>
      <trkpt lat="47.75496" lon="-3.35477">
        <ele>4</ele>
        <time>2011-08-29T13:19:57Z</time>
      </trkpt>
      <trkpt lat="47.75485" lon="-3.35499">
        <ele>5</ele>
        <time>2011-08-29T13:20:01Z</time>
      </trkpt>
      <trkpt lat="47.75439" lon="-3.35631">
        <ele>11</ele>
        <time>2011-08-29T13:20:22Z</time>
      </trkpt>
      <trkpt lat="47.75441" lon="-3.35636">
        <ele>11</ele>
        <time>2011-08-29T13:20:23Z</time>
      </trkpt>
      <trkpt lat="47.7545" lon="-3.3565">
        <ele>11</ele>
        <time>2011-08-29T13:20:26Z</time>
      </trkpt>
      <trkpt lat="47.75449" lon="-3.35662">
        <ele>11</ele>
        <time>2011-08-29T13:20:28Z</time>
      </trkpt>
      <trkpt lat="47.75434" lon="-3.35711">
        <ele>13</ele>
        <time>2011-08-29T13:20:36Z</time>
      </trkpt>
      <trkpt lat="47.75435" lon="-3.35716">
        <ele>13</ele>
        <time>2011-08-29T13:20:37Z</time>
      </trkpt>
      <trkpt lat="47.75442" lon="-3.35724">
        <ele>13</ele>
        <time>2011-08-29T13:20:39Z</time>
      </trkpt>
      <trkpt lat="47.75444" lon="-3.35729">
        <ele>13</ele>
        <time>2011-08-29T13:20:40Z</time>
      </trkpt>
      <trkpt lat="47.75443" lon="-3.35742">
        <ele>13</ele>
        <time>2011-08-29T13:20:42Z</time>
      </trkpt>
      <trkpt lat="47.75439" lon="-3.35762">
        <ele>14</ele>
        <time>2011-08-29T13:20:45Z</time>
      </trkpt>
      <trkpt lat="47.75424" lon="-3.35807">
        <ele>14</ele>
        <time>2011-08-29T13:20:52Z</time>
      </trkpt>
      <trkpt lat="47.75419" lon="-3.35819">
        <ele>14</ele>
        <time>2011-08-29T13:20:54Z</time>
      </trkpt>
      <trkpt lat="47.75412" lon="-3.35828">
        <ele>14</ele>
        <time>2011-08-29T13:20:56Z</time>
      </trkpt>
      <trkpt lat="47.75398" lon="-3.35844">
        <ele>13</ele>
        <time>2011-08-29T13:21:00Z</time>
      </trkpt>
      <trkpt lat="47.75386" lon="-3.35853">
        <ele>12</ele>
        <time>2011-08-29T13:21:03Z</time>
      </trkpt>
      <trkpt lat="47.75381" lon="-3.35855">
        <ele>12</ele>
        <time>2011-08-29T13:21:04Z</time>
      </trkpt>
      <trkpt lat="47.75371" lon="-3.35854">
        <ele>11</ele>
        <time>2011-08-29T13:21:06Z</time>
      </trkpt>
      <trkpt lat="47.75363" lon="-3.35849">
        <ele>11</ele>
        <time>2011-08-29T13:21:08Z</time>
      </trkpt>
      <trkpt lat="47.75343" lon="-3.35834">
        <ele>10</ele>
        <time>2011-08-29T13:21:14Z</time>
      </trkpt>
      <trkpt lat="47.75337" lon="-3.35832">
        <ele>9</ele>
        <time>2011-08-29T13:21:16Z</time>
      </trkpt>
      <trkpt lat="47.75328" lon="-3.35851">
        <ele>8</ele>
        <time>2011-08-29T13:21:23Z</time>
      </trkpt>
      <trkpt lat="47.75307" lon="-3.35859">
        <ele>8</ele>
        <time>2011-08-29T13:21:30Z</time>
      </trkpt>
      <trkpt lat="47.75296" lon="-3.35876">
        <ele>7</ele>
        <time>2011-08-29T13:21:34Z</time>
      </trkpt>
      <trkpt lat="47.75292" lon="-3.35874">
        <ele>7</ele>
        <time>2011-08-29T13:21:35Z</time>
      </trkpt>
      <trkpt lat="47.75257" lon="-3.35846">
        <ele>6</ele>
        <time>2011-08-29T13:21:44Z</time>
      </trkpt>
      <trkpt lat="47.75252" lon="-3.35844">
        <ele>6</ele>
        <time>2011-08-29T13:21:45Z</time>
      </trkpt>
      <trkpt lat="47.75243" lon="-3.35849">
        <ele>6</ele>
        <time>2011-08-29T13:21:47Z</time>
      </trkpt>
      <trkpt lat="47.75241" lon="-3.35854">
        <ele>6</ele>
        <time>2011-08-29T13:21:48Z</time>
      </trkpt>
      <trkpt lat="47.75216" lon="-3.35954">
        <ele>9</ele>
        <time>2011-08-29T13:22:04Z</time>
      </trkpt>
      <trkpt lat="47.75204" lon="-3.3601">
        <ele>11</ele>
        <time>2011-08-29T13:22:13Z</time>
      </trkpt>
      <trkpt lat="47.75201" lon="-3.36012">
        <ele>11</ele>
        <time>2011-08-29T13:22:14Z</time>
      </trkpt>
      <trkpt lat="47.75197" lon="-3.36012">
        <ele>11</ele>
        <time>2011-08-29T13:22:15Z</time>
      </trkpt>
      <trkpt lat="47.75173" lon="-3.36002">
        <ele>12</ele>
        <time>2011-08-29T13:22:21Z</time>
      </trkpt>
      <trkpt lat="47.75168" lon="-3.36002">
        <ele>12</ele>
        <time>2011-08-29T13:22:22Z</time>
      </trkpt>
      <trkpt lat="47.75155" lon="-3.36007">
        <ele>12</ele>
        <time>2011-08-29T13:22:25Z</time>
      </trkpt>
      <trkpt lat="47.75152" lon="-3.36011">
        <ele>12</ele>
        <time>2011-08-29T13:22:26Z</time>
      </trkpt>
      <trkpt lat="47.75151" lon="-3.36017">
        <ele>12</ele>
        <time>2011-08-29T13:22:27Z</time>
      </trkpt>
      <trkpt lat="47.75152" lon="-3.36024">
        <ele>12</ele>
        <time>2011-08-29T13:22:28Z</time>
      </trkpt>
      <trkpt lat="47.75165" lon="-3.36076">
        <ele>12</ele>
        <time>2011-08-29T13:22:37Z</time>
      </trkpt>
      <trkpt lat="47.7517" lon="-3.36084">
        <ele>12</ele>
        <time>2011-08-29T13:22:40Z</time>
      </trkpt>
      <trkpt lat="47.75177" lon="-3.36091">
        <ele>12</ele>
        <time>2011-08-29T13:22:43Z</time>
      </trkpt>
      <trkpt lat="47.75182" lon="-3.36098">
        <ele>13</ele>
        <time>2011-08-29T13:22:46Z</time>
      </trkpt>
      <trkpt lat="47.75182" lon="-3.36103">
        <ele>13</ele>
        <time>2011-08-29T13:22:47Z</time>
      </trkpt>
      <trkpt lat="47.75176" lon="-3.3612">
        <ele>13</ele>
        <time>2011-08-29T13:22:52Z</time>
      </trkpt>
      <trkpt lat="47.75173" lon="-3.36122">
        <ele>13</ele>
        <time>2011-08-29T13:22:53Z</time>
      </trkpt>
      <trkpt lat="47.75163" lon="-3.36122">
        <ele>13</ele>
        <time>2011-08-29T13:22:56Z</time>
      </trkpt>
      <trkpt lat="47.75142" lon="-3.36131">
        <ele>14</ele>
        <time>2011-08-29T13:23:02Z</time>
      </trkpt>
      <trkpt lat="47.75101" lon="-3.36138">
        <ele>14</ele>
        <time>2011-08-29T13:23:11Z</time>
      </trkpt>
      <trkpt lat="47.75087" lon="-3.36144">
        <ele>14</ele>
        <time>2011-08-29T13:23:14Z</time>
      </trkpt>
      <trkpt lat="47.7507" lon="-3.36153">
        <ele>15</ele>
        <time>2011-08-29T13:23:18Z</time>
      </trkpt>
      <trkpt lat="47.75006" lon="-3.36196">
        <ele>16</ele>
        <time>2011-08-29T13:23:34Z</time>
      </trkpt>
      <trkpt lat="47.74965" lon="-3.36227">
        <ele>16</ele>
        <time>2011-08-29T13:23:44Z</time>
      </trkpt>
      <trkpt lat="47.74953" lon="-3.3624">
        <ele>15</ele>
        <time>2011-08-29T13:23:47Z</time>
      </trkpt>
      <trkpt lat="47.74935" lon="-3.36266">
        <ele>15</ele>
        <time>2011-08-29T13:23:52Z</time>
      </trkpt>
      <trkpt lat="47.74879" lon="-3.36301">
        <ele>13</ele>
        <time>2011-08-29T13:24:03Z</time>
      </trkpt>
      <trkpt lat="47.74863" lon="-3.36313">
        <ele>13</ele>
        <time>2011-08-29T13:24:06Z</time>
      </trkpt>
      <trkpt lat="47.74833" lon="-3.36341">
        <ele>12</ele>
        <time>2011-08-29T13:24:12Z</time>
      </trkpt>
      <trkpt lat="47.74825" lon="-3.36353">
        <ele>11</ele>
        <time>2011-08-29T13:24:14Z</time>
      </trkpt>
      <trkpt lat="47.74823" lon="-3.36369">
        <ele>11</ele>
        <time>2011-08-29T13:24:16Z</time>
      </trkpt>
      <trkpt lat="47.74823" lon="-3.36377">
        <ele>11</ele>
        <time>2011-08-29T13:24:17Z</time>
      </trkpt>
      <trkpt lat="47.74829" lon="-3.36423">
        <ele>12</ele>
        <time>2011-08-29T13:24:23Z</time>
      </trkpt>
      <trkpt lat="47.74824" lon="-3.36442">
        <ele>11</ele>
        <time>2011-08-29T13:24:26Z</time>
      </trkpt>
      <trkpt lat="47.74818" lon="-3.36454">
        <ele>10</ele>
        <time>2011-08-29T13:24:28Z</time>
      </trkpt>
      <trkpt lat="47.74752" lon="-3.36536">
        <ele>7</ele>
        <time>2011-08-29T13:24:44Z</time>
      </trkpt>
      <trkpt lat="47.74651" lon="-3.36668">
        <ele>9</ele>
        <time>2011-08-29T13:25:08Z</time>
      </trkpt>
      <trkpt lat="47.74624" lon="-3.36696">
        <ele>9</ele>
        <time>2011-08-29T13:25:14Z</time>
      </trkpt>
      <trkpt lat="47.7456" lon="-3.36781">
        <ele>10</ele>
        <time>2011-08-29T13:25:30Z</time>
      </trkpt>
      <trkpt lat="47.74545" lon="-3.36804">
        <ele>10</ele>
        <time>2011-08-29T13:25:34Z</time>
      </trkpt>
      <trkpt lat="47.74541" lon="-3.36819">
        <ele>10</ele>
        <time>2011-08-29T13:25:36Z</time>
      </trkpt>
      <trkpt lat="47.74537" lon="-3.36868">
        <ele>11</ele>
        <time>2011-08-29T13:25:42Z</time>
      </trkpt>
      <trkpt lat="47.7453" lon="-3.37016">
        <ele>11</ele>
        <time>2011-08-29T13:26:02Z</time>
      </trkpt>
      <trkpt lat="47.74527" lon="-3.37116">
        <ele>8</ele>
        <time>2011-08-29T13:26:15Z</time>
      </trkpt>
      <trkpt lat="47.74522" lon="-3.37162">
        <ele>8</ele>
        <time>2011-08-29T13:26:22Z</time>
      </trkpt>
      <trkpt lat="47.74515" lon="-3.37188">
        <ele>7</ele>
        <time>2011-08-29T13:26:26Z</time>
      </trkpt>
      <trkpt lat="47.74517" lon="-3.37254">
        <ele>7</ele>
        <time>2011-08-29T13:26:34Z</time>
      </trkpt>
      <trkpt lat="47.74514" lon="-3.37294">
        <ele>7</ele>
        <time>2011-08-29T13:26:39Z</time>
      </trkpt>
      <trkpt lat="47.74512" lon="-3.3741">
        <ele>9</ele>
        <time>2011-08-29T13:26:53Z</time>
      </trkpt>
      <trkpt lat="47.74509" lon="-3.37458">
        <ele>10</ele>
        <time>2011-08-29T13:26:59Z</time>
      </trkpt>
      <trkpt lat="47.74501" lon="-3.37677">
        <ele>12</ele>
        <time>2011-08-29T13:27:26Z</time>
      </trkpt>
      <trkpt lat="47.74499" lon="-3.37707">
        <ele>14</ele>
        <time>2011-08-29T13:27:30Z</time>
      </trkpt>
      <trkpt lat="47.74468" lon="-3.37821">
        <ele>15</ele>
        <time>2011-08-29T13:27:45Z</time>
      </trkpt>
      <trkpt lat="47.74438" lon="-3.37896">
        <ele>15</ele>
        <time>2011-08-29T13:27:56Z</time>
      </trkpt>
      <trkpt lat="47.74423" lon="-3.37953">
        <ele>15</ele>
        <time>2011-08-29T13:28:05Z</time>
      </trkpt>
      <trkpt lat="47.74405" lon="-3.38001">
        <ele>17</ele>
        <time>2011-08-29T13:28:12Z</time>
      </trkpt>
      <trkpt lat="47.74387" lon="-3.3809">
        <ele>16</ele>
        <time>2011-08-29T13:29:42Z</time>
      </trkpt>
      <trkpt lat="47.74382" lon="-3.38144">
        <ele>17</ele>
        <time>2011-08-29T13:29:49Z</time>
      </trkpt>
      <trkpt lat="47.74371" lon="-3.38165">
        <ele>17</ele>
        <time>2011-08-29T13:29:52Z</time>
      </trkpt>
      <trkpt lat="47.74351" lon="-3.38198">
        <ele>18</ele>
        <time>2011-08-29T13:29:57Z</time>
      </trkpt>
      <trkpt lat="47.74342" lon="-3.38218">
        <ele>18</ele>
        <time>2011-08-29T13:30:00Z</time>
      </trkpt>
      <trkpt lat="47.74296" lon="-3.38347">
        <ele>17</ele>
        <time>2011-08-29T13:30:20Z</time>
      </trkpt>
      <trkpt lat="47.74272" lon="-3.38432">
        <ele>19</ele>
        <time>2011-08-29T13:30:35Z</time>
      </trkpt>
      <trkpt lat="47.74265" lon="-3.38435">
        <ele>19</ele>
        <time>2011-08-29T13:30:52Z</time>
      </trkpt>
      <trkpt lat="47.74255" lon="-3.38428">
        <ele>19</ele>
        <time>2011-08-29T13:30:56Z</time>
      </trkpt>
      <trkpt lat="47.74242" lon="-3.38408">
        <ele>19</ele>
        <time>2011-08-29T13:31:02Z</time>
      </trkpt>
      <trkpt lat="47.74232" lon="-3.38396">
        <ele>20</ele>
        <time>2011-08-29T13:31:05Z</time>
      </trkpt>
      <trkpt lat="47.74227" lon="-3.38387">
        <ele>20</ele>
        <time>2011-08-29T13:31:07Z</time>
      </trkpt>
      <trkpt lat="47.7422" lon="-3.38379">
        <ele>20</ele>
        <time>2011-08-29T13:31:09Z</time>
      </trkpt>
      <trkpt lat="47.74167" lon="-3.38333">
        <ele>20</ele>
        <time>2011-08-29T13:31:23Z</time>
      </trkpt>
      <trkpt lat="47.74144" lon="-3.3831">
        <ele>20</ele>
        <time>2011-08-29T13:31:31Z</time>
      </trkpt>
      <trkpt lat="47.74116" lon="-3.38287">
        <ele>20</ele>
        <time>2011-08-29T13:31:38Z</time>
      </trkpt>
      <trkpt lat="47.7406" lon="-3.38234">
        <ele>18</ele>
        <time>2011-08-29T13:31:52Z</time>
      </trkpt>
      <trkpt lat="47.74041" lon="-3.38214">
        <ele>17</ele>
        <time>2011-08-29T13:31:57Z</time>
      </trkpt>
      <trkpt lat="47.74013" lon="-3.38188">
        <ele>16</ele>
        <time>2011-08-29T13:32:04Z</time>
      </trkpt>
      <trkpt lat="47.74008" lon="-3.38188">
        <ele>16</ele>
        <time>2011-08-29T13:32:05Z</time>
      </trkpt>
      <trkpt lat="47.74" lon="-3.38193">
        <ele>14</ele>
        <time>2011-08-29T13:32:07Z</time>
      </trkpt>
      <trkpt lat="47.73991" lon="-3.38278">
        <ele>15</ele>
        <time>2011-08-29T13:32:18Z</time>
      </trkpt>
      <trkpt lat="47.73983" lon="-3.38434">
        <ele>22</ele>
        <time>2011-08-29T13:32:40Z</time>
      </trkpt>
      <trkpt lat="47.73982" lon="-3.38514">
        <ele>23</ele>
        <time>2011-08-29T13:32:54Z</time>
      </trkpt>
      <trkpt lat="47.73978" lon="-3.38536">
        <ele>23</ele>
        <time>2011-08-29T13:32:58Z</time>
      </trkpt>
      <trkpt lat="47.73969" lon="-3.38565">
        <ele>23</ele>
        <time>2011-08-29T13:33:03Z</time>
      </trkpt>
      <trkpt lat="47.7396" lon="-3.38581">
        <ele>22</ele>
        <time>2011-08-29T13:33:06Z</time>
      </trkpt>
      <trkpt lat="47.7395" lon="-3.38597">
        <ele>22</ele>
        <time>2011-08-29T13:33:09Z</time>
      </trkpt>
      <trkpt lat="47.73903" lon="-3.38656">
        <ele>19</ele>
        <time>2011-08-29T13:33:19Z</time>
      </trkpt>
      <trkpt lat="47.73894" lon="-3.38671">
        <ele>19</ele>
        <time>2011-08-29T13:33:21Z</time>
      </trkpt>
      <trkpt lat="47.73884" lon="-3.38695">
        <ele>18</ele>
        <time>2011-08-29T13:33:24Z</time>
      </trkpt>
      <trkpt lat="47.73873" lon="-3.38738">
        <ele>18</ele>
        <time>2011-08-29T13:33:30Z</time>
      </trkpt>
      <trkpt lat="47.73867" lon="-3.38774">
        <ele>19</ele>
        <time>2011-08-29T13:33:35Z</time>
      </trkpt>
      <trkpt lat="47.7386" lon="-3.38804">
        <ele>20</ele>
        <time>2011-08-29T13:33:39Z</time>
      </trkpt>
      <trkpt lat="47.73833" lon="-3.38887">
        <ele>19</ele>
        <time>2011-08-29T13:33:51Z</time>
      </trkpt>
      <trkpt lat="47.7381" lon="-3.38997">
        <ele>21</ele>
        <time>2011-08-29T13:34:07Z</time>
      </trkpt>
      <trkpt lat="47.73789" lon="-3.39065">
        <ele>23</ele>
        <time>2011-08-29T13:34:17Z</time>
      </trkpt>
      <trkpt lat="47.7378" lon="-3.39097">
        <ele>25</ele>
        <time>2011-08-29T13:34:22Z</time>
      </trkpt>
      <trkpt lat="47.73777" lon="-3.39116">
        <ele>25</ele>
        <time>2011-08-29T13:34:25Z</time>
      </trkpt>
      <trkpt lat="47.73763" lon="-3.39153">
        <ele>25</ele>
        <time>2011-08-29T13:34:31Z</time>
      </trkpt>
      <trkpt lat="47.73753" lon="-3.3919">
        <ele>25</ele>
        <time>2011-08-29T13:34:37Z</time>
      </trkpt>
      <trkpt lat="47.73748" lon="-3.3922">
        <ele>23</ele>
        <time>2011-08-29T13:34:42Z</time>
      </trkpt>
      <trkpt lat="47.73742" lon="-3.39301">
        <ele>22</ele>
        <time>2011-08-29T13:34:53Z</time>
      </trkpt>
      <trkpt lat="47.7372" lon="-3.39528">
        <ele>24</ele>
        <time>2011-08-29T13:35:25Z</time>
      </trkpt>
      <trkpt lat="47.73716" lon="-3.39583">
        <ele>23</ele>
        <time>2011-08-29T13:35:33Z</time>
      </trkpt>
      <trkpt lat="47.73717" lon="-3.3963">
        <ele>21</ele>
        <time>2011-08-29T13:35:40Z</time>
      </trkpt>
      <trkpt lat="47.73716" lon="-3.39651">
        <ele>20</ele>
        <time>2011-08-29T13:35:43Z</time>
      </trkpt>
      <trkpt lat="47.73704" lon="-3.3976">
        <ele>18</ele>
        <time>2011-08-29T13:35:58Z</time>
      </trkpt>
      <trkpt lat="47.73707" lon="-3.39811">
        <ele>18</ele>
        <time>2011-08-29T13:36:05Z</time>
      </trkpt>
      <trkpt lat="47.7371" lon="-3.39831">
        <ele>18</ele>
        <time>2011-08-29T13:36:08Z</time>
      </trkpt>
      <trkpt lat="47.73717" lon="-3.39857">
        <ele>19</ele>
        <time>2011-08-29T13:36:12Z</time>
      </trkpt>
      <trkpt lat="47.73726" lon="-3.39883">
        <ele>20</ele>
        <time>2011-08-29T13:36:16Z</time>
      </trkpt>
      <trkpt lat="47.7376" lon="-3.39969">
        <ele>20</ele>
        <time>2011-08-29T13:36:31Z</time>
      </trkpt>
      <trkpt lat="47.73765" lon="-3.39987">
        <ele>20</ele>
        <time>2011-08-29T13:36:34Z</time>
      </trkpt>
      <trkpt lat="47.73766" lon="-3.40005">
        <ele>20</ele>
        <time>2011-08-29T13:36:37Z</time>
      </trkpt>
      <trkpt lat="47.73764" lon="-3.40027">
        <ele>20</ele>
        <time>2011-08-29T13:36:41Z</time>
      </trkpt>
      <trkpt lat="47.73758" lon="-3.40054">
        <ele>19</ele>
        <time>2011-08-29T13:36:46Z</time>
      </trkpt>
      <trkpt lat="47.73752" lon="-3.4007">
        <ele>18</ele>
        <time>2011-08-29T13:36:49Z</time>
      </trkpt>
      <trkpt lat="47.73743" lon="-3.40086">
        <ele>17</ele>
        <time>2011-08-29T13:36:52Z</time>
      </trkpt>
      <trkpt lat="47.73726" lon="-3.40108">
        <ele>17</ele>
        <time>2011-08-29T13:36:56Z</time>
      </trkpt>
      <trkpt lat="47.7368" lon="-3.40163">
        <ele>16</ele>
        <time>2011-08-29T13:37:05Z</time>
      </trkpt>
      <trkpt lat="47.73662" lon="-3.40181">
        <ele>13</ele>
        <time>2011-08-29T13:37:08Z</time>
      </trkpt>
      <trkpt lat="47.73636" lon="-3.40204">
        <ele>12</ele>
        <time>2011-08-29T13:37:12Z</time>
      </trkpt>
      <trkpt lat="47.73592" lon="-3.40234">
        <ele>9</ele>
        <time>2011-08-29T13:37:18Z</time>
      </trkpt>
      <trkpt lat="47.73554" lon="-3.40263">
        <ele>7</ele>
        <time>2011-08-29T13:37:23Z</time>
      </trkpt>
      <trkpt lat="47.73532" lon="-3.40282">
        <ele>7</ele>
        <time>2011-08-29T13:37:26Z</time>
      </trkpt>
      <trkpt lat="47.735" lon="-3.40314">
        <ele>7</ele>
        <time>2011-08-29T13:37:31Z</time>
      </trkpt>
      <trkpt lat="47.73487" lon="-3.40324">
        <ele>7</ele>
        <time>2011-08-29T13:37:33Z</time>
      </trkpt>
      <trkpt lat="47.73475" lon="-3.40331">
        <ele>7</ele>
        <time>2011-08-29T13:37:35Z</time>
      </trkpt>
      <trkpt lat="47.73462" lon="-3.40333">
        <ele>8</ele>
        <time>2011-08-29T13:37:37Z</time>
      </trkpt>
      <trkpt lat="47.7345" lon="-3.40333">
        <ele>8</ele>
        <time>2011-08-29T13:37:39Z</time>
      </trkpt>
      <trkpt lat="47.73432" lon="-3.40326">
        <ele>8</ele>
        <time>2011-08-29T13:37:42Z</time>
      </trkpt>
      <trkpt lat="47.73422" lon="-3.40319">
        <ele>8</ele>
        <time>2011-08-29T13:37:44Z</time>
      </trkpt>
      <trkpt lat="47.73409" lon="-3.40307">
        <ele>8</ele>
        <time>2011-08-29T13:37:47Z</time>
      </trkpt>
      <trkpt lat="47.73375" lon="-3.4027">
        <ele>8</ele>
        <time>2011-08-29T13:37:56Z</time>
      </trkpt>
      <trkpt lat="47.73364" lon="-3.4026">
        <ele>8</ele>
        <time>2011-08-29T13:37:59Z</time>
      </trkpt>
      <trkpt lat="47.73354" lon="-3.40257">
        <ele>7</ele>
        <time>2011-08-29T13:38:01Z</time>
      </trkpt>
      <trkpt lat="47.73349" lon="-3.40259">
        <ele>7</ele>
        <time>2011-08-29T13:38:02Z</time>
      </trkpt>
      <trkpt lat="47.73345" lon="-3.40262">
        <ele>7</ele>
        <time>2011-08-29T13:38:03Z</time>
      </trkpt>
      <trkpt lat="47.73332" lon="-3.40281">
        <ele>7</ele>
        <time>2011-08-29T13:38:07Z</time>
      </trkpt>
      <trkpt lat="47.73323" lon="-3.403">
        <ele>8</ele>
        <time>2011-08-29T13:38:11Z</time>
      </trkpt>
      <trkpt lat="47.73316" lon="-3.40324">
        <ele>7</ele>
        <time>2011-08-29T13:38:16Z</time>
      </trkpt>
      <trkpt lat="47.73306" lon="-3.40378">
        <ele>10</ele>
        <time>2011-08-29T13:38:28Z</time>
      </trkpt>
      <trkpt lat="47.73301" lon="-3.40389">
        <ele>10</ele>
        <time>2011-08-29T13:38:31Z</time>
      </trkpt>
      <trkpt lat="47.73292" lon="-3.404">
        <ele>11</ele>
        <time>2011-08-29T13:38:35Z</time>
      </trkpt>
      <trkpt lat="47.73287" lon="-3.40403">
        <ele>11</ele>
        <time>2011-08-29T13:38:37Z</time>
      </trkpt>
      <trkpt lat="47.73255" lon="-3.40409">
        <ele>13</ele>
        <time>2011-08-29T13:38:47Z</time>
      </trkpt>
      <trkpt lat="47.73241" lon="-3.40415">
        <ele>14</ele>
        <time>2011-08-29T13:38:51Z</time>
      </trkpt>
      <trkpt lat="47.73229" lon="-3.40429">
        <ele>16</ele>
        <time>2011-08-29T13:38:55Z</time>
      </trkpt>
      <trkpt lat="47.73223" lon="-3.40442">
        <ele>16</ele>
        <time>2011-08-29T13:38:58Z</time>
      </trkpt>
      <trkpt lat="47.7322" lon="-3.40468">
        <ele>17</ele>
        <time>2011-08-29T13:39:03Z</time>
      </trkpt>
      <trkpt lat="47.7323" lon="-3.40529">
        <ele>18</ele>
        <time>2011-08-29T13:39:16Z</time>
      </trkpt>
      <trkpt lat="47.73232" lon="-3.40556">
        <ele>19</ele>
        <time>2011-08-29T13:39:22Z</time>
      </trkpt>
      <trkpt lat="47.73232" lon="-3.4058">
        <ele>20</ele>
        <time>2011-08-29T13:39:27Z</time>
      </trkpt>
      <trkpt lat="47.73224" lon="-3.40616">
        <ele>23</ele>
        <time>2011-08-29T13:39:34Z</time>
      </trkpt>
      <trkpt lat="47.73213" lon="-3.40636">
        <ele>23</ele>
        <time>2011-08-29T13:39:39Z</time>
      </trkpt>
      <trkpt lat="47.73198" lon="-3.40656">
        <ele>24</ele>
        <time>2011-08-29T13:39:45Z</time>
      </trkpt>
      <trkpt lat="47.73188" lon="-3.40663">
        <ele>24</ele>
        <time>2011-08-29T13:39:48Z</time>
      </trkpt>
      <trkpt lat="47.73177" lon="-3.40667">
        <ele>25</ele>
        <time>2011-08-29T13:39:51Z</time>
      </trkpt>
      <trkpt lat="47.73149" lon="-3.40666">
        <ele>24</ele>
        <time>2011-08-29T13:39:58Z</time>
      </trkpt>
      <trkpt lat="47.73098" lon="-3.40653">
        <ele>23</ele>
        <time>2011-08-29T13:40:11Z</time>
      </trkpt>
      <trkpt lat="47.7309" lon="-3.40654">
        <ele>23</ele>
        <time>2011-08-29T13:40:13Z</time>
      </trkpt>
      <trkpt lat="47.73083" lon="-3.40658">
        <ele>23</ele>
        <time>2011-08-29T13:40:15Z</time>
      </trkpt>
      <trkpt lat="47.73072" lon="-3.40669">
        <ele>24</ele>
        <time>2011-08-29T13:40:19Z</time>
      </trkpt>
      <trkpt lat="47.73064" lon="-3.4068">
        <ele>24</ele>
        <time>2011-08-29T13:40:22Z</time>
      </trkpt>
      <trkpt lat="47.73017" lon="-3.40776">
        <ele>26</ele>
        <time>2011-08-29T13:40:45Z</time>
      </trkpt>
      <trkpt lat="47.73007" lon="-3.4079">
        <ele>26</ele>
        <time>2011-08-29T13:40:49Z</time>
      </trkpt>
      <trkpt lat="47.72992" lon="-3.408">
        <ele>27</ele>
        <time>2011-08-29T13:40:54Z</time>
      </trkpt>
      <trkpt lat="47.7298" lon="-3.40806">
        <ele>27</ele>
        <time>2011-08-29T13:40:58Z</time>
      </trkpt>
      <trkpt lat="47.72961" lon="-3.40808">
        <ele>27</ele>
        <time>2011-08-29T13:41:04Z</time>
      </trkpt>
      <trkpt lat="47.72891" lon="-3.40798">
        <ele>28</ele>
        <time>2011-08-29T13:41:17Z</time>
      </trkpt>
      <trkpt lat="47.7286" lon="-3.40792">
        <ele>28</ele>
        <time>2011-08-29T13:41:23Z</time>
      </trkpt>
      <trkpt lat="47.72849" lon="-3.40792">
        <ele>28</ele>
        <time>2011-08-29T13:41:26Z</time>
      </trkpt>
      <trkpt lat="47.72838" lon="-3.40794">
        <ele>29</ele>
        <time>2011-08-29T13:41:29Z</time>
      </trkpt>
      <trkpt lat="47.72809" lon="-3.40805">
        <ele>32</ele>
        <time>2011-08-29T13:41:37Z</time>
      </trkpt>
      <trkpt lat="47.72792" lon="-3.40807">
        <ele>32</ele>
        <time>2011-08-29T13:41:42Z</time>
      </trkpt>
      <trkpt lat="47.72786" lon="-3.40805">
        <ele>32</ele>
        <time>2011-08-29T13:41:44Z</time>
      </trkpt>
      <trkpt lat="47.72775" lon="-3.40797">
        <ele>32</ele>
        <time>2011-08-29T13:41:48Z</time>
      </trkpt>
      <trkpt lat="47.72759" lon="-3.40776">
        <ele>32</ele>
        <time>2011-08-29T13:42:01Z</time>
      </trkpt>
      <trkpt lat="47.72745" lon="-3.40764">
        <ele>33</ele>
        <time>2011-08-29T13:42:06Z</time>
      </trkpt>
      <trkpt lat="47.72734" lon="-3.40761">
        <ele>34</ele>
        <time>2011-08-29T13:42:09Z</time>
      </trkpt>
      <trkpt lat="47.72724" lon="-3.40761">
        <ele>34</ele>
        <time>2011-08-29T13:42:12Z</time>
      </trkpt>
      <trkpt lat="47.72705" lon="-3.40766">
        <ele>34</ele>
        <time>2011-08-29T13:42:17Z</time>
      </trkpt>
      <trkpt lat="47.72684" lon="-3.40795">
        <ele>35</ele>
        <time>2011-08-29T13:42:25Z</time>
      </trkpt>
      <trkpt lat="47.72677" lon="-3.40818">
        <ele>35</ele>
        <time>2011-08-29T13:42:30Z</time>
      </trkpt>
      <trkpt lat="47.72674" lon="-3.40851">
        <ele>37</ele>
        <time>2011-08-29T13:42:37Z</time>
      </trkpt>
      <trkpt lat="47.72658" lon="-3.409">
        <ele>38</ele>
        <time>2011-08-29T13:42:48Z</time>
      </trkpt>
      <trkpt lat="47.72642" lon="-3.40985">
        <ele>39</ele>
        <time>2011-08-29T13:43:04Z</time>
      </trkpt>
      <trkpt lat="47.72632" lon="-3.41015">
        <ele>39</ele>
        <time>2011-08-29T13:43:10Z</time>
      </trkpt>
      <trkpt lat="47.72623" lon="-3.41029">
        <ele>38</ele>
        <time>2011-08-29T13:43:13Z</time>
      </trkpt>
      <trkpt lat="47.72615" lon="-3.41037">
        <ele>38</ele>
        <time>2011-08-29T13:43:15Z</time>
      </trkpt>
      <trkpt lat="47.72602" lon="-3.41046">
        <ele>38</ele>
        <time>2011-08-29T13:43:18Z</time>
      </trkpt>
      <trkpt lat="47.72577" lon="-3.41057">
        <ele>36</ele>
        <time>2011-08-29T13:43:23Z</time>
      </trkpt>
      <trkpt lat="47.72572" lon="-3.41061">
        <ele>36</ele>
        <time>2011-08-29T13:43:24Z</time>
      </trkpt>
      <trkpt lat="47.72568" lon="-3.41065">
        <ele>36</ele>
        <time>2011-08-29T13:43:25Z</time>
      </trkpt>
      <trkpt lat="47.72558" lon="-3.41084">
        <ele>35</ele>
        <time>2011-08-29T13:43:28Z</time>
      </trkpt>
      <trkpt lat="47.7255" lon="-3.41093">
        <ele>35</ele>
        <time>2011-08-29T13:43:30Z</time>
      </trkpt>
      <trkpt lat="47.72482" lon="-3.41109">
        <ele>35</ele>
        <time>2011-08-29T13:43:44Z</time>
      </trkpt>
      <trkpt lat="47.72472" lon="-3.4111">
        <ele>35</ele>
        <time>2011-08-29T13:43:46Z</time>
      </trkpt>
      <trkpt lat="47.72462" lon="-3.41108">
        <ele>35</ele>
        <time>2011-08-29T13:43:48Z</time>
      </trkpt>
      <trkpt lat="47.72443" lon="-3.41095">
        <ele>35</ele>
        <time>2011-08-29T13:43:52Z</time>
      </trkpt>
      <trkpt lat="47.7231" lon="-3.40979">
        <ele>34</ele>
        <time>2011-08-29T13:44:21Z</time>
      </trkpt>
      <trkpt lat="47.72295" lon="-3.40969">
        <ele>34</ele>
        <time>2011-08-29T13:44:24Z</time>
      </trkpt>
      <trkpt lat="47.72267" lon="-3.40955">
        <ele>34</ele>
        <time>2011-08-29T13:44:30Z</time>
      </trkpt>
      <trkpt lat="47.72246" lon="-3.40951">
        <ele>34</ele>
        <time>2011-08-29T13:44:34Z</time>
      </trkpt>
      <trkpt lat="47.72235" lon="-3.40952">
        <ele>34</ele>
        <time>2011-08-29T13:44:36Z</time>
      </trkpt>
      <trkpt lat="47.72224" lon="-3.40954">
        <ele>34</ele>
        <time>2011-08-29T13:44:38Z</time>
      </trkpt>
      <trkpt lat="47.72192" lon="-3.40966">
        <ele>34</ele>
        <time>2011-08-29T13:44:45Z</time>
      </trkpt>
      <trkpt lat="47.72182" lon="-3.40967">
        <ele>34</ele>
        <time>2011-08-29T13:44:47Z</time>
      </trkpt>
      <trkpt lat="47.72171" lon="-3.40966">
        <ele>34</ele>
        <time>2011-08-29T13:44:49Z</time>
      </trkpt>
      <trkpt lat="47.72075" lon="-3.40937">
        <ele>32</ele>
        <time>2011-08-29T13:45:08Z</time>
      </trkpt>
      <trkpt lat="47.71983" lon="-3.40906">
        <ele>32</ele>
        <time>2011-08-29T13:45:27Z</time>
      </trkpt>
      <trkpt lat="47.71968" lon="-3.40903">
        <ele>32</ele>
        <time>2011-08-29T13:45:30Z</time>
      </trkpt>
      <trkpt lat="47.71954" lon="-3.40908">
        <ele>32</ele>
        <time>2011-08-29T13:45:33Z</time>
      </trkpt>
      <trkpt lat="47.7194" lon="-3.40917">
        <ele>33</ele>
        <time>2011-08-29T13:45:36Z</time>
      </trkpt>
      <trkpt lat="47.71912" lon="-3.40942">
        <ele>33</ele>
        <time>2011-08-29T13:45:42Z</time>
      </trkpt>
      <trkpt lat="47.71896" lon="-3.40961">
        <ele>32</ele>
        <time>2011-08-29T13:45:46Z</time>
      </trkpt>
      <trkpt lat="47.71889" lon="-3.40971">
        <ele>32</ele>
        <time>2011-08-29T13:45:48Z</time>
      </trkpt>
      <trkpt lat="47.71878" lon="-3.40998">
        <ele>31</ele>
        <time>2011-08-29T13:45:52Z</time>
      </trkpt>
      <trkpt lat="47.71864" lon="-3.4103">
        <ele>29</ele>
        <time>2011-08-29T13:45:57Z</time>
      </trkpt>
      <trkpt lat="47.71853" lon="-3.41046">
        <ele>29</ele>
        <time>2011-08-29T13:46:00Z</time>
      </trkpt>
      <trkpt lat="47.71845" lon="-3.41055">
        <ele>29</ele>
        <time>2011-08-29T13:46:02Z</time>
      </trkpt>
      <trkpt lat="47.71835" lon="-3.41059">
        <ele>29</ele>
        <time>2011-08-29T13:46:04Z</time>
      </trkpt>
      <trkpt lat="47.71819" lon="-3.41062">
        <ele>29</ele>
        <time>2011-08-29T13:46:07Z</time>
      </trkpt>
      <trkpt lat="47.71762" lon="-3.41058">
        <ele>29</ele>
        <time>2011-08-29T13:46:18Z</time>
      </trkpt>
      <trkpt lat="47.71732" lon="-3.41058">
        <ele>29</ele>
        <time>2011-08-29T13:46:24Z</time>
      </trkpt>
      <trkpt lat="47.71723" lon="-3.4106">
        <ele>29</ele>
        <time>2011-08-29T13:46:26Z</time>
      </trkpt>
      <trkpt lat="47.71709" lon="-3.4107">
        <ele>29</ele>
        <time>2011-08-29T13:46:29Z</time>
      </trkpt>
      <trkpt lat="47.71705" lon="-3.41074">
        <ele>29</ele>
        <time>2011-08-29T13:46:30Z</time>
      </trkpt>
      <trkpt lat="47.71692" lon="-3.41096">
        <ele>28</ele>
        <time>2011-08-29T13:46:34Z</time>
      </trkpt>
      <trkpt lat="47.7168" lon="-3.41131">
        <ele>28</ele>
        <time>2011-08-29T13:46:39Z</time>
      </trkpt>
      <trkpt lat="47.71677" lon="-3.41145">
        <ele>27</ele>
        <time>2011-08-29T13:46:41Z</time>
      </trkpt>
      <trkpt lat="47.71675" lon="-3.41217">
        <ele>26</ele>
        <time>2011-08-29T13:46:50Z</time>
      </trkpt>
      <trkpt lat="47.71673" lon="-3.41242">
        <ele>25</ele>
        <time>2011-08-29T13:46:53Z</time>
      </trkpt>
      <trkpt lat="47.71664" lon="-3.41267">
        <ele>25</ele>
        <time>2011-08-29T13:46:56Z</time>
      </trkpt>
      <trkpt lat="47.7165" lon="-3.41286">
        <ele>25</ele>
        <time>2011-08-29T13:46:59Z</time>
      </trkpt>
      <trkpt lat="47.71641" lon="-3.41297">
        <ele>25</ele>
        <time>2011-08-29T13:47:01Z</time>
      </trkpt>
      <trkpt lat="47.7163" lon="-3.41306">
        <ele>25</ele>
        <time>2011-08-29T13:47:03Z</time>
      </trkpt>
      <trkpt lat="47.71608" lon="-3.41317">
        <ele>25</ele>
        <time>2011-08-29T13:47:07Z</time>
      </trkpt>
      <trkpt lat="47.71533" lon="-3.41333">
        <ele>27</ele>
        <time>2011-08-29T13:47:21Z</time>
      </trkpt>
      <trkpt lat="47.71492" lon="-3.41345">
        <ele>27</ele>
        <time>2011-08-29T13:47:30Z</time>
      </trkpt>
      <trkpt lat="47.71484" lon="-3.41348">
        <ele>27</ele>
        <time>2011-08-29T13:47:32Z</time>
      </trkpt>
      <trkpt lat="47.71477" lon="-3.41355">
        <ele>27</ele>
        <time>2011-08-29T13:47:34Z</time>
      </trkpt>
      <trkpt lat="47.71455" lon="-3.41427">
        <ele>26</ele>
        <time>2011-08-29T13:47:45Z</time>
      </trkpt>
      <trkpt lat="47.71436" lon="-3.41472">
        <ele>25</ele>
        <time>2011-08-29T13:47:52Z</time>
      </trkpt>
      <trkpt lat="47.71407" lon="-3.41533">
        <ele>20</ele>
        <time>2011-08-29T13:48:01Z</time>
      </trkpt>
      <trkpt lat="47.71393" lon="-3.41579">
        <ele>19</ele>
        <time>2011-08-29T13:48:07Z</time>
      </trkpt>
      <trkpt lat="47.71383" lon="-3.41627">
        <ele>18</ele>
        <time>2011-08-29T13:48:13Z</time>
      </trkpt>
      <trkpt lat="47.71376" lon="-3.41666">
        <ele>17</ele>
        <time>2011-08-29T13:48:18Z</time>
      </trkpt>
      <trkpt lat="47.71371" lon="-3.41711">
        <ele>17</ele>
        <time>2011-08-29T13:48:24Z</time>
      </trkpt>
      <trkpt lat="47.71369" lon="-3.41772">
        <ele>17</ele>
        <time>2011-08-29T13:48:32Z</time>
      </trkpt>
      <trkpt lat="47.71364" lon="-3.41825">
        <ele>17</ele>
        <time>2011-08-29T13:48:39Z</time>
      </trkpt>
      <trkpt lat="47.7136" lon="-3.41855">
        <ele>16</ele>
        <time>2011-08-29T13:48:43Z</time>
      </trkpt>
      <trkpt lat="47.71352" lon="-3.4189">
        <ele>16</ele>
        <time>2011-08-29T13:48:48Z</time>
      </trkpt>
      <trkpt lat="47.71341" lon="-3.41916">
        <ele>16</ele>
        <time>2011-08-29T13:48:52Z</time>
      </trkpt>
      <trkpt lat="47.71333" lon="-3.41926">
        <ele>16</ele>
        <time>2011-08-29T13:48:54Z</time>
      </trkpt>
      <trkpt lat="47.71294" lon="-3.41972">
        <ele>16</ele>
        <time>2011-08-29T13:49:04Z</time>
      </trkpt>
      <trkpt lat="47.71274" lon="-3.41991">
        <ele>17</ele>
        <time>2011-08-29T13:49:09Z</time>
      </trkpt>
      <trkpt lat="47.71267" lon="-3.41999">
        <ele>17</ele>
        <time>2011-08-29T13:49:11Z</time>
      </trkpt>
      <trkpt lat="47.71262" lon="-3.42012">
        <ele>16</ele>
        <time>2011-08-29T13:49:13Z</time>
      </trkpt>
      <trkpt lat="47.71259" lon="-3.42041">
        <ele>16</ele>
        <time>2011-08-29T13:49:17Z</time>
      </trkpt>
      <trkpt lat="47.71252" lon="-3.4206">
        <ele>16</ele>
        <time>2011-08-29T13:49:20Z</time>
      </trkpt>
      <trkpt lat="47.71248" lon="-3.42063">
        <ele>17</ele>
        <time>2011-08-29T13:49:21Z</time>
      </trkpt>
      <trkpt lat="47.71239" lon="-3.42063">
        <ele>17</ele>
        <time>2011-08-29T13:49:23Z</time>
      </trkpt>
      <trkpt lat="47.71148" lon="-3.42028">
        <ele>16</ele>
        <time>2011-08-29T13:49:41Z</time>
      </trkpt>
      <trkpt lat="47.71124" lon="-3.42022">
        <ele>16</ele>
        <time>2011-08-29T13:49:46Z</time>
      </trkpt>
      <trkpt lat="47.71109" lon="-3.42022">
        <ele>16</ele>
        <time>2011-08-29T13:49:49Z</time>
      </trkpt>
      <trkpt lat="47.71099" lon="-3.42024">
        <ele>15</ele>
        <time>2011-08-29T13:49:51Z</time>
      </trkpt>
      <trkpt lat="47.71083" lon="-3.4203">
        <ele>14</ele>
        <time>2011-08-29T13:49:54Z</time>
      </trkpt>
      <trkpt lat="47.71" lon="-3.42066">
        <ele>13</ele>
        <time>2011-08-29T13:50:11Z</time>
      </trkpt>
      <trkpt lat="47.70969" lon="-3.42081">
        <ele>13</ele>
        <time>2011-08-29T13:50:17Z</time>
      </trkpt>
      <trkpt lat="47.70944" lon="-3.42092">
        <ele>13</ele>
        <time>2011-08-29T13:50:22Z</time>
      </trkpt>
      <trkpt lat="47.70929" lon="-3.42097">
        <ele>13</ele>
        <time>2011-08-29T13:50:25Z</time>
      </trkpt>
      <trkpt lat="47.70876" lon="-3.42104">
        <ele>13</ele>
        <time>2011-08-29T13:50:35Z</time>
      </trkpt>
      <trkpt lat="47.70869" lon="-3.42107">
        <ele>13</ele>
        <time>2011-08-29T13:50:37Z</time>
      </trkpt>
      <trkpt lat="47.70862" lon="-3.42111">
        <ele>13</ele>
        <time>2011-08-29T13:50:44Z</time>
      </trkpt>
      <trkpt lat="47.70849" lon="-3.42124">
        <ele>13</ele>
        <time>2011-08-29T13:50:48Z</time>
      </trkpt>
      <trkpt lat="47.70844" lon="-3.42126">
        <ele>13</ele>
        <time>2011-08-29T13:50:49Z</time>
      </trkpt>
      <trkpt lat="47.70838" lon="-3.42126">
        <ele>13</ele>
        <time>2011-08-29T13:50:50Z</time>
      </trkpt>
      <trkpt lat="47.70814" lon="-3.42111">
        <ele>12</ele>
        <time>2011-08-29T13:50:55Z</time>
      </trkpt>
      <trkpt lat="47.70808" lon="-3.4211">
        <ele>12</ele>
        <time>2011-08-29T13:50:56Z</time>
      </trkpt>
      <trkpt lat="47.70763" lon="-3.42109">
        <ele>12</ele>
        <time>2011-08-29T13:51:05Z</time>
      </trkpt>
      <trkpt lat="47.70742" lon="-3.4211">
        <ele>11</ele>
        <time>2011-08-29T13:51:09Z</time>
      </trkpt>
      <trkpt lat="47.70725" lon="-3.42114">
        <ele>11</ele>
        <time>2011-08-29T13:51:12Z</time>
      </trkpt>
      <trkpt lat="47.70714" lon="-3.42121">
        <ele>11</ele>
        <time>2011-08-29T13:51:14Z</time>
      </trkpt>
      <trkpt lat="47.70703" lon="-3.42131">
        <ele>11</ele>
        <time>2011-08-29T13:51:16Z</time>
      </trkpt>
      <trkpt lat="47.70689" lon="-3.42149">
        <ele>11</ele>
        <time>2011-08-29T13:51:19Z</time>
      </trkpt>
      <trkpt lat="47.7068" lon="-3.4217">
        <ele>10</ele>
        <time>2011-08-29T13:51:22Z</time>
      </trkpt>
      <trkpt lat="47.70675" lon="-3.42186">
        <ele>10</ele>
        <time>2011-08-29T13:51:24Z</time>
      </trkpt>
      <trkpt lat="47.70661" lon="-3.42258">
        <ele>8</ele>
        <time>2011-08-29T13:51:33Z</time>
      </trkpt>
      <trkpt lat="47.70655" lon="-3.42306">
        <ele>7</ele>
        <time>2011-08-29T13:51:39Z</time>
      </trkpt>
      <trkpt lat="47.70643" lon="-3.42365">
        <ele>6</ele>
        <time>2011-08-29T13:51:47Z</time>
      </trkpt>
      <trkpt lat="47.70644" lon="-3.42392">
        <ele>6</ele>
        <time>2011-08-29T13:51:51Z</time>
      </trkpt>
      <trkpt lat="47.70643" lon="-3.42398">
        <ele>6</ele>
        <time>2011-08-29T13:51:52Z</time>
      </trkpt>
      <trkpt lat="47.70637" lon="-3.42408">
        <ele>6</ele>
        <time>2011-08-29T13:51:54Z</time>
      </trkpt>
      <trkpt lat="47.70612" lon="-3.42439">
        <ele>5</ele>
        <time>2011-08-29T13:52:00Z</time>
      </trkpt>
      <trkpt lat="47.70593" lon="-3.42469">
        <ele>5</ele>
        <time>2011-08-29T13:52:05Z</time>
      </trkpt>
      <trkpt lat="47.70579" lon="-3.42499">
        <ele>5</ele>
        <time>2011-08-29T13:52:10Z</time>
      </trkpt>
      <trkpt lat="47.70571" lon="-3.42529">
        <ele>5</ele>
        <time>2011-08-29T13:52:14Z</time>
      </trkpt>
      <trkpt lat="47.70558" lon="-3.42597">
        <ele>4</ele>
        <time>2011-08-29T13:52:23Z</time>
      </trkpt>
      <trkpt lat="47.70541" lon="-3.42716">
        <ele>5</ele>
        <time>2011-08-29T13:52:39Z</time>
      </trkpt>
      <trkpt lat="47.70473" lon="-3.43207">
        <ele>5</ele>
        <time>2011-08-29T13:53:49Z</time>
      </trkpt>
      <trkpt lat="47.70468" lon="-3.43237">
        <ele>5</ele>
        <time>2011-08-29T13:53:55Z</time>
      </trkpt>
      <trkpt lat="47.70461" lon="-3.43262">
        <ele>4</ele>
        <time>2011-08-29T13:54:00Z</time>
      </trkpt>
      <trkpt lat="47.70454" lon="-3.43266">
        <ele>4</ele>
        <time>2011-08-29T13:54:02Z</time>
      </trkpt>
      <trkpt lat="47.70448" lon="-3.43265">
        <ele>4</ele>
        <time>2011-08-29T13:54:04Z</time>
      </trkpt>
      <trkpt lat="47.7043" lon="-3.43255">
        <ele>5</ele>
        <time>2011-08-29T13:54:09Z</time>
      </trkpt>
      <trkpt lat="47.7034" lon="-3.43215">
        <ele>6</ele>
        <time>2011-08-29T13:54:34Z</time>
      </trkpt>
      <trkpt lat="47.70317" lon="-3.43196">
        <ele>6</ele>
        <time>2011-08-29T13:54:39Z</time>
      </trkpt>
      <trkpt lat="47.70245" lon="-3.43146">
        <ele>4</ele>
        <time>2011-08-29T13:54:53Z</time>
      </trkpt>
      <trkpt lat="47.70232" lon="-3.43133">
        <ele>4</ele>
        <time>2011-08-29T13:54:57Z</time>
      </trkpt>
      <trkpt lat="47.70227" lon="-3.43133">
        <ele>4</ele>
        <time>2011-08-29T13:54:59Z</time>
      </trkpt>
      <trkpt lat="47.70209" lon="-3.43145">
        <ele>4</ele>
        <time>2011-08-29T13:55:07Z</time>
      </trkpt>
      <trkpt lat="47.70205" lon="-3.43143">
        <ele>4</ele>
        <time>2011-08-29T13:55:10Z</time>
      </trkpt>
    </trkseg>
  </trk>
</gpx>